     2              OBSERVATION DATA                        RINEX VERSION / TYPE
DAT2RIN 1.01d Dan Johnson 12SEP96 4:31:01 GMT               PGM / RUN BY / DATE
Mojave '96 team Central Washington U                        OBSERVER / AGENCY
16331 TRIMBLE 4000SSI Nav 7.09 Sig 3.03                     REC # / TYPE / VERS
66916 TRIMBLE CHOKE                                         ANT # / TYPE
BAMA ALABAMA-HILLS                                          MARKER NAME
 -2416660.0000 -4522300.0000  3782897.0000                  APPROX POSITION XYZ
        0.0814        0.0000        0.0000                  ANTENNA: DELTA H/E/N
     1     1     0                                          WAVELENGTH FACT L1/2
     5    L1    C1    P1    L2    P2                        # / TYPES OF OBSERV
    30                                                      INTERVAL
  1996     9     3     0    39   30.000000                  TIME OF FIRST OBS
  1996     9     3    14    15    0.000000                  TIME OF LAST OBS
                                                            COMMENT
PANGA GPS Data Analysis Center                              COMMENT
Department of Geology                                       COMMENT
Central Washington University                               COMMENT
Ellensburg, WA 98926                                        COMMENT
                                                            COMMENT
http://www.panga.cwu.edu                                    COMMENT
ftp://panga.cwu.edu                                         COMMENT
                                                            COMMENT
    23                                                      # OF SATELLITES
           1   118   118     0   118   118                  PRN / # OF OBS
           2   841   841     0   840   840                  PRN / # OF OBS
           3   368   368     0   367   367                  PRN / # OF OBS
           4   703   703     0   663   663                  PRN / # OF OBS
           5   391   391     0   382   382                  PRN / # OF OBS
           6    75    75     0    64    64                  PRN / # OF OBS
           7   736   736     0   735   735                  PRN / # OF OBS
           9   514   514     0   513   513                  PRN / # OF OBS
          10   447   449     0   436   436                  PRN / # OF OBS
          14   560   560     0   559   559                  PRN / # OF OBS
          15   577   577     0   573   573                  PRN / # OF OBS
          16   436   438     0   418   418                  PRN / # OF OBS
          18   753   753     0   745   745                  PRN / # OF OBS
          19   833   833     0   828   828                  PRN / # OF OBS
          21    33    33     0    33    33                  PRN / # OF OBS
          22   562   562     0   560   560                  PRN / # OF OBS
          24   400   400     0   399   399                  PRN / # OF OBS
          25   320   320     0   320   320                  PRN / # OF OBS
          26   448   449     0   446   446                  PRN / # OF OBS
          27   798   798     0   794   794                  PRN / # OF OBS
          28    61     0    61    62    62                  PRN / # OF OBS
          29   704   704     0   704   704                  PRN / # OF OBS
          31   502   502     0   500   500                  PRN / # OF OBS
                                                            END OF HEADER
 96  9  3  0 39 30.0000000  0  6  1 14 15 21 25 29
   1966058.09210  23096766.57800                   1421476.90850  23096772.69540
    -37097.02910  22454983.15600
    801589.43910  20793169.47700                    594592.84950  20793175.50040
   2195664.96010  23896191.36700                   1473253.57750  23896198.88340
    604393.63510  20723857.78900                    470955.21450  20723862.88740
   -220227.36210  22797931.10200                   -171605.68150  22797937.85240
 96  9  3  0 40  0.0000000  0  6  1 14 15 21 25 29
   2090748.26000  23120494.14800                   1518638.04040  23120500.72340
    -68236.03800  22449057.87500                    -20187.49450  22449064.08640
    862029.71700  20804671.07800                    641689.14640  20804677.11340
   2335596.49500  23922819.49200                   1582291.06440  23922827.03140
    659357.87100  20734317.29700                    513784.47440  20734322.27740
   -233164.00400  22795469.26600                   -181686.14940  22795474.72740
 96  9  3  0 40 30.0000000  0  6  1 14 15 21 25 29
   2215994.14500  23144327.85900                   1616232.21340  23144333.81340
    -98766.24500  22443247.87500                    -43977.25140  22443253.89840
    923619.36400  20816391.10200                    689681.07140  20816397.14840
   2476263.04400  23949586.29700                   1691901.33740  23949593.85940
    715372.57800  20744976.56300                    557432.29440  20744981.52040
   -245432.73000  22793134.70300                   -191246.16340  22793140.32840
 96  9  3  0 41  0.0000000  0  6  1 14 15 21 25 29
   2341772.67800  23168262.45300                   1714241.42240  23168268.89840
   -128712.37400  22437549.56300                    -67311.87340  22437555.65640
    986331.67600  20828324.81300                    738547.79740  20828330.85940
   2617623.92000  23976487.11700                   1802052.53840  23976493.78540
    772419.10300  20755832.22700                    601884.13240  20755837.37140
   -257048.97600  22790923.85200                   -200297.75340  22790929.73440
 96  9  3  0 41 30.0000000  0  6  1 14 15 21 25 29
   2468046.08400  23192291.50000                   1812636.25840  23192297.77040
   -158109.11200  22431955.89100                    -90218.39540  22431962.09040
   1050123.94900  20840464.25800                    788256.05840  20840470.30540
   2759626.43300  24003509.53100                   1912703.81240  24003518.24240
    830456.03100  20766876.26600                    647107.71340  20766881.28140
   -268053.37600  22788830.16400                   -208872.57140  22788836.29340
 96  9  3  0 42  0.0000000  0  6  1 14 15 21 25 29
   2594792.44200  23216411.10200                   1911399.63540  23216419.02740
   -186966.60200  22426464.40600                   -112704.72840  22426470.65240
   1114978.28900  20852805.57800                    838791.90240  20852811.61340
   2902256.80700  24030649.18800                   2023844.24540  24030656.84440
    889474.30600  20778106.92200                    693095.98540  20778111.93840
   -278454.21400  22786850.96900                   -216977.09240  22786857.16840
 96  9  3  0 42 30.0000000  0  6  1 14 15 21 25 29
   2721998.70400  23240617.46900                   2010521.37140  23240624.25440
   -215300.42000  22421072.56300                   -134783.00040  22421078.43440
   1180870.47500  20865344.31300                    890136.45340  20865350.26640
   3045485.90100  24057907.07000                   2135451.26540  24057913.68040
    949445.04900  20789519.23400                    739826.43240  20789524.14540
   -288265.33800  22784983.75800                   -224622.09740  22784989.11340
 96  9  3  0 43  0.0000000  0  6  1 14 15 21 25 29
   2849654.64600  23264909.15600                   2109993.50440  23264915.29740
   -243117.38800  22415778.85900                   -156458.54540  22415785.17640
   1247793.54600  20878079.43000                    942284.29040  20878085.47740
   3189310.34400  24085275.28900                   2247522.18640  24085282.16040
   1010361.03900  20801111.07000                    787293.43440  20801116.16840
   -297498.46800  22783227.01600                   -231816.71140  22783232.61740
 96  9  3  0 43 30.0000000  0  6  1 14 15 21 25 29
   2977728.37300  23289280.93000                   2209791.19740  23289287.08240
   -270423.33000  22410582.68000                   -177735.87740  22410588.84440
   1315730.46400  20891007.39800                    995222.13640  20891013.43440
   3333721.33700  24112756.50000                   2360050.17140  24112761.89140
   1072187.36200  20812876.20300                    835469.79740  20812881.14840
   -306175.29100  22781575.14800                   -238577.84940  22781580.98440
 96  9  3  0 44  0.0000000  0  6  1 14 15 21 25 29
   3106196.46300  23313728.44500                   2309896.18140  23313734.96140
   -297235.24200  22405480.81300                   -198628.25340  22405486.67240
   1384665.90600  20904125.40600                   1048938.05640  20904131.38340
   3478706.83400  24140346.03900                   2473025.79040  24140354.50440
   1134891.71100  20824808.53900                    884330.32640  20824813.50840
   -314309.23900  22780027.83600                   -244915.96340  22780033.96540
 96  9  3  0 44 30.0000000  0  6  1 14 15 21 25 29
   3235035.41100  23338245.33600                   2410290.12740  23338251.39540
   -323571.62600  22400468.90600                   -219150.10140  22400475.03540
   1454580.39200  20917429.78100                   1103416.86140  20917435.84040
   3624239.52100  24168040.26600                   2586427.87540  24168049.72740
   1198450.62600  20836903.36700                    933856.75240  20836908.40640
   -321916.55000  22778580.09400                   -250843.71040  22778585.53140
 96  9  3  0 45  0.0000000  0  6  1 14 15 21 25 29
   3364223.36800  23362828.42200                   2510956.04540  23362835.11340
   -349440.21800  22395546.36700                   -239307.41040  22395552.28540
   1525457.11900  20930917.21900                   1158645.47040  20930923.07840
   3770296.88700  24195833.75000                   2700238.72640  24195839.14140
   1262857.69200  20849159.71100                    984044.07940  20849164.60940
   -329009.37800  22777230.53900                   -256370.56040  22777236.18840
 96  9  3  0 45 30.0000000  0  6  1 14 15 21 25 29
   3493757.61500  23387478.99200                   2611891.80440  23387485.33240
   -374847.13500  22390711.91400                   -259104.99040  22390717.98440
   1597284.75700  20944585.56300                   1214615.04440  20944591.53940
   3916871.12500  24223725.97700                   2814452.31940  24223731.71940
   1328096.70200  20861574.19500                   1034879.67240  20861579.15240
   -335595.21000  22775977.05500                   -261502.34540  22775983.05540
 96  9  3  0 46  0.0000000  0  6  1 14 15 21 25 29
   3623636.17000  23412193.74200                   2713095.84240  23412199.94140
   -399807.29200  22385962.09400                   -278554.43340  22385968.02340
   1670047.13800  20958431.85200                   1271312.99040  20958437.84040
   4063941.85000  24251713.10200                   2929052.81740  24251721.22740
   1394163.39300  20874146.28900                   1086360.21040  20874151.10540
   -341685.46100  22774818.17200                   -266247.95440  22774824.24240
 96  9  3  0 46 30.0000000  0  6  1 14 15 21 25 29
   3753857.38000  23436973.96900                   2814566.88540  23436980.29740
   -424322.83200  22381297.06300                   -297657.43440  22381302.75840
   1743731.89200  20972453.46900                   1328729.67040  20972459.44540
   4211503.85100  24279793.31300                   3044036.14040  24279801.97740
   1461054.24200  20886875.30500                   1138482.95540  20886880.27340
   -347285.99900  22773752.49200                   -270611.97440  22773757.89540
 96  9  3  0 47  0.0000000  0  6  1 14 15 21 25 29
   3884413.01800  23461817.65600                   2916298.52840  23461823.10540
   -448418.26100  22376712.08600                   -316433.06740  22376718.42640
   1818324.04600  20986648.02300                   1386853.40840  20986654.04740
   4359542.69800  24307964.13300                   3159391.05840  24307970.42640
   1528739.50400  20899755.44500                   1191224.71540  20899760.36740
   -352408.70100  22772777.56300                   -274603.66040  22772783.04740
 96  9  3  0 47 30.0000000  0  6  1 14 15 21 25 29
   4015293.40800  23486723.53900                   3018283.21740  23486731.13740
   -472107.34300  22372203.89100                   -334892.06540  22372210.21940
   1893815.31600  21001013.53900                   1445677.75940  21001019.51640
   4508061.48100  24336225.82800                   3275119.90840  24336233.50840
   1597194.55600  20912781.92200                   1244566.31640  20912786.73840
   -357076.36700  22771889.60900                   -278240.76040  22771895.46940
 96  9  3  0 48  0.0000000  0  6  1 14 15 21 25 29
   4146461.85900  23511684.15600                   3120492.38040  23511690.71940
   -495413.00100  22367768.93800                   -353052.31040  22367774.73840
   1970184.94800  21015546.14800                   1505186.54840  21015552.20740
   4657044.99200  24364577.02300                   3391210.90840  24364584.76240
   1666410.07900  20925952.95300                   1298500.49440  20925957.87540
   -361315.24400  22771082.63300                   -281543.75340  22771088.43440
 96  9  3  0 48 30.0000000  0  6  1 14 15 21 25 29
   4277905.23400  23536697.35900                   3222915.77640  23536702.77340
   -518337.83800  22363406.21100                   -370915.79340  22363412.15240
   2047430.14300  21030245.40600                   1565377.59240  21030251.46540
   4806502.13400  24393018.17200                   3507670.88440  24393025.57040
   1736399.59900  20939271.65600                   1353037.78240  20939276.39140
   -365136.11800  22770355.62500                   -284521.00440  22770361.23840
 96  9  3  0 49  0.0000000  0  6  1 14 15 21 25 29
   4409602.53700  23561757.41400                   3325537.01240  23561763.40240
   -540901.01900  22359112.77300                   -388497.46840  22359118.92640
   2125541.27600  21045109.72700                   1626243.39040  21045115.79740
   4956426.12100  24421548.33600                   3624494.71540  24421557.73840
   1807174.76400  20952739.86700                   1408187.25540  20952744.78940
   -368561.97600  22769703.63300                   -287190.47640  22769709.30540
 96  9  3  0 49 30.0000000  0  6  1 14 15 21 25 29
   4541523.78100  23586861.85900                   3428332.73840  23586868.66840
   -563118.47100  22354885.06300                   -405809.74340  22354890.95740
   2204489.50100  21060133.03900                   1687761.47440  21060139.13340
   5106797.51600  24450162.51600                   3741667.15040  24450169.05540
   1878731.09100  20966356.67200                   1463945.43740  20966361.45340
   -371627.62100  22769120.02300                   -289579.25140  22769126.05940
 96  9  3  0 50  0.0000000  0  6  1 14 15 21 25 29
   4673667.90200  23612008.60900                   3531302.15940  23612013.37940
   -584982.21000  22350724.45300                   -422846.41140  22350729.82040
   2284274.44000  21075315.71100                   1749931.54240  21075321.74640
   5257603.19300  24478859.41400                   3859178.01040  24478868.30140
   1951079.98400  20980124.07800                   1520321.19740  20980129.03540
   -374320.19100  22768607.93800                   -291677.32140  22768613.12940
 96  9  3  0 50 30.0000000  0  6  1 14 15 21 25 29
   4806045.49500  23637197.87500                   3634453.52340  23637205.12140
   -606496.88200  22346630.04700                   -439611.06740  22346635.90640
   2364884.36600  21090655.19500                   1812744.45440  21090661.19540
   5408816.64400  24507634.37500                   3977006.58340  24507641.96140
   2024195.10100  20994037.39100                   1577294.01540  20994042.05540
   -376644.45200  22768165.51600                   -293488.39240  22768170.74240
 96  9  3  0 51  0.0010000  0  6  1 14 15 21 25 29
   4938648.73800  23662432.63000                   3737780.68940  23662438.77140
   -627681.68700  22342598.66900                   -456118.67740  22342604.42340
   2446306.06600  21106149.33300                   1876189.92140  21106155.32140
   5560413.21500  24536482.47400                   4095133.73640  24536490.98540
   2098034.43100  21008088.67700                   1634831.15740  21008093.42340
   -378611.45200  22767791.77100                   -295021.09740  22767797.29040
 96  9  3  0 51 30.0010000  0  6  1 14 15 21 25 29
   5071467.13100  23687707.32500                   3841275.47740  23687713.61840
   -648519.46600  22338633.32500                   -472355.89640  22338639.47840
   2528532.70000  21121796.37200                   1940262.60540  21121802.39640
   5712359.94500  24565396.58300                   4213533.76740  24565404.97840
   2172554.73600  21022269.38800                   1692898.92440  21022274.28640
   -380211.26100  22767487.11400                   -296267.66540  22767493.16140
 96  9  3  0 52  0.0010000  0  6  1 14 15 21 25 29
   5204484.35700  23713019.19200                   3944925.26440  23713025.05240
   -669030.36500  22334730.25500                   -488338.38840  22334736.57140
   2611543.87700  21137592.99700                   2004946.61940  21137598.99740
   5864633.63800  24594373.05200                   4332188.51740  24594382.43140
   2247714.29100  21036571.82500                   1751464.81240  21036576.72440
   -381470.88600  22767246.83300                   -297249.16140  22767251.94240
 96  9  3  0 52 30.0010000  0  6  1 14 15 21 25 29
   5337691.50000  23738369.33300                   4048723.01040  23738374.71240
   -689231.99100  22330886.33300                   -504079.88240  22330891.92340
   2695323.35300  21153535.78600                   2070229.31340  21153541.65740
   6017220.85100  24623410.41100                   4451087.53240  24623415.63840
   2323493.61300  21050992.31700                   1810513.63540  21050997.16940
   -382411.92300  22767067.81000                   -297982.40340  22767073.30640
 96  9  3  0 53  0.0010000  0  6  1 14 15 21 25 29
   5471085.58800  23763751.84900                   4152666.41140  23763758.59940
   -709113.93200  22327102.95000                   -519572.29040  22327108.86840
   2779879.97800  21169626.38800                   2136117.57340  21169632.35340
   6170126.68700  24652508.07500                   4570234.78240  24652516.93840
   2399902.34900  21065532.29400                   1870052.90940  21065537.11040
   -383035.53900  22766948.98900                   -298468.30440  22766955.07140
 96  9  3  0 53 30.0010000  0  6  1 14 15 21 25 29
   5604672.79400  23789173.23900                   4256760.32840  23789179.87240
   -728678.72400  22323379.77100                   -534817.55840  22323385.81740
   2865206.17600  21185863.32500                   2202605.50640  21185869.38440
   6323349.08300  24681662.04400                   4689628.77940  24681670.95440
   2476947.13600  21080193.20800                   1930087.80840  21080197.91940
   -383350.00100  22766889.09900                   -298713.31140  22766894.57140
 96  9  3  0 54  0.0010000  0  6  1 14 15 21 25 29
   5738457.34400  23814630.79400                   4361008.01940  23814636.38440
   -747939.34200  22319714.41900                   -549825.80740  22319720.27840
   2951297.68700  21202246.24700                   2269689.78540  21202252.22440
   6476904.82400  24710885.08300                   4809282.52740  24710892.63440
   2554650.19300  21094979.97400                   1990635.64040  21094984.64940
   -383355.24600  22766888.35600                   -298717.35840  22766894.04040
 96  9  3  0 54 30.0010000  0  6  1 14 15 21 25 29
   5872423.60800  23840124.68500                   4465397.28940  23840130.61440
   -766906.27900  22316105.31700                   -564605.21940  22316111.04840
   3038142.99300  21218772.25500                   2337361.44240  21218778.18540
   6630778.35100  24740167.69200                   4929183.89440  24740173.37640
   2633005.33700  21109890.30200                   2051691.59840  21109894.96640
   -383051.36200  22766946.33300                   -298480.54840  22766952.05240
 96  9  3  0 55  0.0010000  0  6  1 14 15 21 25 29
   6006566.16600  23865651.20000                   4569923.93340  23865656.83740
   -785579.60400  22312551.87200                   -579155.84940  22312557.53240
   3125738.35600  21235441.16100                   2405617.55640  21235447.13840
   6784978.74100  24769510.73100                   5049339.98340  24769520.54440
   2712012.99400  21124924.89600                   2113256.00640  21124929.56040
   -382431.22900  22767064.04400                   -297997.29840  22767069.63440
 96  9  3  0 55 30.0010000  0  6  1 14 15 21 25 29
   6140860.07400  23891205.43500                   4674568.51940  23891212.00940
   -803974.71300  22309051.16900                   -593489.66840  22309056.99340
   3214062.08000  21252248.50500                   2474441.22640  21252254.47040
   6939495.62400  24798913.95000                   5169742.65040  24798922.74340
   2791662.03500  21140081.73900                   2175320.19140  21140086.47440
   -381498.89700  22767241.99700                   -297270.77940  22767247.04840
 96  9  3  0 56  0.0010000  0  5  1 14 15 25 29
   6275277.41200  23916785.57500                   4779309.24240  23916791.54040
   -822090.23800  22305604.36400                   -607605.64840  22305610.01340
   3303107.19300  21269193.25500                   2543827.01140  21269199.18540
   2871935.45600  21155357.20000                   2237870.90140  21155361.93540
   -380267.45500  22767476.07500                   -296311.17940  22767481.34940
 96  9  3  0 56 30.0010000  0  5  1 14 15 25 29
   6409834.23600  23942390.02100                   4884158.69040  23942396.80640
   -839897.89100  22302215.38800                   -621481.72240  22302221.48140
   3392895.18400  21286279.51300                   2613791.66540  21286285.44240
   2952854.96400  21170755.58300                   2300925.06340  21170760.25940
   -378720.74800  22767770.31000                   -295105.92440  22767775.97040
 96  9  3  0 57  0.0010000  0  5  1 14 15 25 29
   6544514.71600  23968019.79400                   4989104.47440  23968026.21640
   -857419.68400  22298881.13800                   -635135.05740  22298887.04440
   3483402.13800  21303502.32500                   2684316.55440  21303508.38440
   3034415.46700  21186276.06700                   2364478.69640  21186281.00140
   -376885.76100  22768119.59100                   -293676.02940  22768125.07540
 96  9  3  0 57 30.0010000  0  5  1 14 15 25 29
   6679308.94600  23993669.41900                   5094138.94340  23993675.52440
   -874665.72200  22295599.19200                   -648573.51840  22295604.85340
   3574618.64900  21320860.05200                   2755394.33940  21320865.99340
   3116602.43800  21201915.86400                   2428520.49540  21201920.62240
   -374775.59500  22768521.20800                   -292031.71940  22768526.66940
 96  9  3  0 58  0.0010000  0  5  1 14 15 25 29
   6814239.16500  24019346.45800                   5199279.31840  24019350.94640
   -891629.24500  22292371.47400                   -661791.84040  22292377.40340
   3666551.70800  21338354.52100                   2827030.48140  21338360.43840
   3199425.83900  21217676.79400                   2493058.20940  21217681.58740
   -372392.72900  22768974.38800                   -290174.91140  22768979.97840
 96  9  3  0 58 30.0010000  0  5  1 14 15 25 29
   6949332.03600  24045053.64600                   5304546.46040  24045059.62240
   -908300.01200  22289199.03600                   -674782.03640  22289204.98940
   3759206.26900  21355986.23100                   2899228.83240  21355992.18540
   3282903.51500  21233561.79400                   2558105.75440  21233566.71640
   -369713.69300  22769484.28600                   -288087.30940  22769489.91140
 96  9  3  0 59  0.0010000  0  5  1 14 15 25 29
   7084568.76600  24070787.93500                   5409925.72940  24070793.29040
   -924705.74900  22286076.82500                   -687565.71840  22286082.73140
   3852553.48400  21373749.48900                   2971966.91540  21373755.45440
   3366982.85600  21249561.87200                   2623622.12140  21249566.48940
   -366765.32400  22770045.32500                   -285789.84740  22770050.95040
 96  9  3  0 59 30.0010000  0  6  1 14 15 22 25 29
   7219953.03500  24096550.49700                   5515419.94140  24096556.50940
   -940833.05200  22283008.27100                   -700132.42940  22283014.23540
   3946601.96900  21391646.38000                   3045251.43840  21391652.33340
    -21068.78210  24861084.64600
   3451636.47800  21265670.73900                   2689585.98840  21265675.33340
   -363539.35400  22770659.17700                   -283276.05640  22770664.90740
 96  9  3  1  0  0.0010000  0  6  1 14 15 22 25 29
   7355463.41600  24122337.23100                   5621012.40040  24122343.19640
   -956684.39100  22279991.61400                   -712484.11340  22279997.47440
   4041339.03900  21409674.23100                   3119072.51940  21409680.32540
    -58210.24500  24854016.99700
   3536844.94900  21281885.23900                   2755982.19840  21281889.93840
   -360038.64800  22771325.27800                   -280548.19440  22771330.78640
 96  9  3  1  0 30.0010000  0  6  1 14 15 22 25 29
   7491089.43200  24148146.72400                   5726694.96240  24148154.06340
   -972250.75200  22277029.45800                   -724613.72840  22277035.31740
   4136772.13000  21427834.50500                   3193435.96140  21427840.51740
    -95276.44000  24846962.94200                      -961.67850  24846969.57540
   3622599.70600  21298203.90300                   2822804.09440  21298208.54440
   -356256.51400  22772044.86400                   -277601.03440  22772050.06740
 96  9  3  1  1  0.0010000  0  6  1 14 15 22 25 29
   7626792.38900  24173971.06000                   5832437.50940  24173977.08340
   -987549.31300  22274118.24700                   -736534.67440  22274124.08340
   4232877.69600  21446122.89600                   3268323.40440  21446128.84940
   -132282.74800  24839921.09900                    -29797.61640  24839928.81340
   3708867.55400  21314620.06000                   2890025.79540  21314624.85340
   -352232.08800  22772810.70800                   -274465.08340  22772816.50940
 96  9  3  1  1 30.0010000  0  6  1 14 15 22 25 29
   7762560.59700  24199805.61400                   5938230.89140  24199811.18140
  -1002573.40600  22271259.36400                   -748241.74140  22271265.25940
   4329659.64100  21464539.70000                   3343737.90240  21464545.74740
   -169227.67600  24832890.48900                    -58585.77140  24832897.70040
   3795675.33300  21331138.95800                   2957668.22740  21331143.78640
   -347951.11100  22773625.07500                   -271129.20740  22773630.47840
 96  9  3  1  2  0.0010000  0  6  1 14 15 22 25 29
   7898412.63300  24225656.30200                   6044089.59840  24225663.93540
  -1017314.16900  22268454.06700                   -759728.03140  22268460.02140
   4427127.59000  21483087.47400                   3419686.93540  21483093.43840
   -206116.83300  24825870.70000                    -87330.38740  24825876.50140
   3883070.99500  21347770.02800                   3025768.74740  21347774.61040
   -343404.47100  22774490.52800                   -267586.33540  22774495.59140
 96  9  3  1  2 30.0010000  0  6  1 14 15 22 25 29
   8034364.30800  24251527.94200                   6150025.92440  24251533.72040
  -1031773.60100  22265702.52800                   -770995.10440  22265708.28240
   4525279.25000  21501765.20000                   3496168.73840  21501771.09540
   -242964.39100  24818859.20800                   -116042.60640  24818865.93540
   3971071.81600  21364515.99700                   3094340.81540  21364520.68540
   -338610.22600  22775402.91100                   -263850.51440  22775408.32540
 96  9  3  1  3  0.0010000  0  6  1 14 15 22 25 29
   8170420.79000  24277418.59100                   6256043.90140  24277425.79040
  -1045955.36800  22263004.10600                   -782045.81440  22263009.91940
   4624105.78900  21520571.25500                   3573176.41340  21520577.31340
   -279798.13600  24811850.36400                   -144744.27340  24811856.11840
   4059678.54200  21381377.16900                   3163385.02340  21381381.75140
   -333560.04400  22776363.63800                   -259915.27240  22776368.52440
 96  9  3  1  3 30.0010000  0  6  1 14 15 22 25 29
   8306596.17800  24303331.31700                   6362154.57840  24303337.66940
  -1059863.21700  22260357.04400                   -792883.07940  22260362.91540
   4723606.34400  21539505.58300                   3650709.29940  21539511.45440
   -316619.87500  24804842.46600                   -173436.46040  24804850.07540
   4148904.44900  21398356.38800                   3232911.70040  21398361.07540
   -328255.22900  22777373.17700                   -255781.61840  22777378.74340
 96  9  3  1  4  0.0010000  0  6  1 14 15 22 25 29
   8442848.24400  24329259.93500                   6468324.96440  24329266.46240
  -1073549.52000  22257753.02800                   -803547.70840  22257758.89940
   4823716.90100  21558555.93500                   3728717.51040  21558561.88840
   -353484.69400  24797826.50500                   -202162.13340  24797835.98940
   4238686.38700  21415441.21600                   3302871.65240  21415445.88040
   -322776.48900  22778415.91900                   -251512.43540  22778420.70040
 96  9  3  1  4 30.0010000  0  6  1 14 15 22 25 29
   8579225.54200  24355212.50500                   6574592.94440  24355218.58740
  -1086942.24600  22255204.31000                   -813983.57640  22255210.20440
   4924499.10200  21577734.09900                   3807249.07440  21577740.23940
   -390317.63600  24790818.27100                   -230862.92740  24790823.42740
   4329063.35300  21432639.54400                   3373295.26440  21432644.34940
   -317055.20300  22779504.56700                   -247054.27140  22779509.73540
 96  9  3  1  5  0.0020000  0  6  1 14 15 22 25 29
   8715729.91000  24381188.49400                   6680959.95440  24381192.79540
  -1100036.34600  22252712.51800                   -824186.75940  22252718.29540
   5025961.71500  21597041.79100                   3886310.82940  21597047.72140
   -427102.92800  24783818.66600                   -259526.72740  24783826.27540
   4420038.16500  21449951.40800                   3444184.72640  21449956.14340
   -311070.86500  22780643.37700                   -242391.13240  22780648.56840
 96  9  3  1  5 30.0020000  0  6  1 14 15 22 25 29
   8852329.60500  24407182.33800                   6787401.25340  24407187.57640
  -1112855.38300  22250273.09600                   -834175.58440  22250278.88540
   5128078.75900  21616474.32200                   3965882.53740  21616480.32240
   -463828.79200  24776829.45500                   -288144.19240  24776835.92440
   4511580.65700  21467371.39300                   3515516.53940  21467375.90440
   -304848.40000  22781827.59600                   -237542.43040  22781832.72940
 96  9  3  1  6  0.0020000  0  6  1 14 15 22 25 29
   8989016.18400  24433192.45500                   6893910.27140  24433198.63140
  -1125395.26300  22247886.93900                   -843946.90440  22247892.60040
   5230859.35700  21636032.58000                   4045971.29340  21636038.40440
   -500475.88800  24769854.78300                   -316700.29440  24769860.78340
   4603677.05600  21484896.65800                   3587279.97040  21484901.38140
   -298359.72200  22783061.91600                   -232486.29540  22783067.07240
 96  9  3  1  6 30.0020000  0  6  1 14 15 22 25 29
   9125767.45300  24459214.91600                   7000469.65240  24459220.45940
  -1137664.45000  22245551.80700                   -853507.28840  22245557.56140
   5334293.41600  21655715.36100                   4126569.24240  21655721.39640
   -537038.93600  24762897.54100                   -345190.79740  24762904.92840
   4696306.44100  21502523.65000                   3659458.70940  21502528.29140
   -291598.67500  22784348.47100                   -227217.93540  22784353.75640
 96  9  3  1  7  0.0020000  0  6  1 14 15 22 25 29
   9262586.94100  24485251.39300                   7107082.18840  24485257.21740
  -1149674.79300  22243266.78300                   -862865.97240  22243272.54940
   5438369.52900  21675520.36100                   4207667.48740  21675526.25640
   -573512.35100  24755957.09600                   -373611.52740  24755964.28340
   4789458.84000  21520249.73600                   3732044.99440  21520254.43640
   -284588.95300  22785682.56400                   -221755.79540  22785687.89640
 96  9  3  1  7 30.0020000  0  6  1 14 15 22 25 29
   9399461.84600  24511298.18200                   7213737.93340  24511304.24040
  -1161414.81500  22241032.78300                   -872014.02140  22241038.58440
   5543083.03500  21695446.98600                   4289262.40740  21695452.90440
   -609898.90200  24749033.34600                   -401964.59540  24749039.24040
   4883112.99000  21538071.58000                   3805022.24940  21538076.19740
   -277344.38900  22787061.03300                   -216110.65740  22787066.42440
 96  9  3  1  8  0.0020000  0  6  1 14 15 22 25 29
   9536409.47000  24537358.10400                   7320450.32240  24537363.01440
  -1172847.14600  22238857.29900                   -880922.31840  22238863.14640
   5648450.53800  21715497.78300                   4371366.94240  21715503.61940
   -646191.34000  24742127.00200                   -430244.39640  24742132.63940
   4977304.06500  21555995.79900                   3878417.89440  21556000.45140
   -269852.09100  22788486.96300                   -210272.47440  22788492.27140
 96  9  3  1  8 30.0020000  0  6  1 14 15 22 25 29
   9673425.23100  24563432.33000                   7427215.83140  24563438.42440
  -1183991.93100  22236736.36900                   -889606.54740  22236742.21740
   5754448.96700  21735668.54900                   4453963.09840  21735674.39640
   -682422.22200  24735231.21300                   -458476.14040  24735237.08440
   5072034.23900  21574022.18900                   3952233.61240  21574026.85440
   -262150.84500  22789952.12700                   -204271.47540  22789957.24840
 96  9  3  1  9  0.0020000  0  6  1 14 15 22 25 29
   9810522.66500  24589521.24400                   7534044.99240  24589529.38140
  -1194845.10400  22234671.13500                   -898063.54340  22234676.92440
   5861082.94700  21755960.33000                   4537054.48840  21755966.22540
   -718605.64800  24728346.22100                   -486670.86740  24728354.28740
   5167309.29900  21592152.43200                   4026473.91740  21592157.07240
   -254232.23600  22791459.59600                   -198101.10540  22791464.48240
 96  9  3  1  9 30.0020000  0  6  1 14 15 22 25 29
   9947714.48100  24615627.19700                   7640947.67440  24615632.38940
  -1205393.65600  22232663.81400                   -906283.18740  22232669.67440
   5968353.64200  21776373.11900                   4620642.02540  21776379.20140
   -754739.30500  24721470.86100                   -514826.93340  24721478.75240
   5263143.45700  21610389.20500                   4101149.88140  21610393.92840
   -246068.50600  22793012.54900                   -191739.72340  22793017.74040
 96  9  3  1 10  0.0020000  0  6  1 14 15 22 25 29
  10085011.80100  24641753.51800                   7747932.58540  24641759.03740
  -1215658.96800  22230710.07200                   -914282.12340  22230715.97940
   6076251.93500  21796905.61900                   4704718.59740  21796911.65440
   -790815.42500  24714605.22100                   -542938.08240  24714612.79540
   5359539.90800  21628732.76800                   4176263.99440  21628737.46740
   -237653.96400  22794613.95500                   -185182.91040  22794619.34640
 96  9  3  1 10 30.0020000  0  6  1 14 15 22 25 29
  10222429.58900  24667904.36900                   7855011.33740  24667909.52540
  -1225643.26900  22228810.42400                   -922062.08140  22228816.54140
   6184781.09700  21817558.04100                   4789286.76640  21817563.92440
   -826815.65500  24707754.40000                   -570990.06540  24707759.99040
   5456472.65500  21647178.41600                   4251795.99840  21647183.02140
   -228985.39200  22796263.55700                   -178428.13740  22796268.83040
 96  9  3  1 11  0.0020000  0  6  1 14 15 22 25 29
  10359958.95800  24694074.88500                   7962177.02640  24694083.38540
  -1235337.54500  22226965.39300                   -929616.05840  22226971.21740
   6293927.92000  21838327.95500                   4874336.22140  21838333.96740
   -862729.94900  24700920.55700                   -598975.21140  24700929.97140
   5553910.25300  21665720.29100                   4327721.38540  21665724.87340
   -220065.43500  22797960.99400                   -171477.49040  22797966.08040
 96  9  3  1 11 30.0020000  0  6  1 14 15 22 25 29
  10497581.08600  24720263.51800                   8069415.05840  24720269.83440
  -1244748.70700  22225174.47100                   -936949.42240  22225180.44740
   6403689.17300  21859214.89300                   4959864.45340  21859220.89340
   -898544.78200  24694105.46300                   -626882.77940  24694111.63940
   5651853.08300  21684357.94700                   4404040.46640  21684362.71740
   -210904.43600  22799703.96300                   -164339.01940  22799708.99040
 96  9  3  1 12  0.0020000  0  6  1 14 15 22 25 29
  10635278.21600  24746466.57200                   8176711.48640  24746471.18940
  -1253881.84000  22223436.83800                   -944066.14440  22223442.38140
   6514068.96500  21880219.43900                   5045874.66140  21880225.45140
   -934268.58800  24687306.56400                   -654719.41640  24687315.75640
   5750290.31100  21703090.16600                   4480744.79840  21703094.79540
   -201521.99000  22801489.76800                   -157027.97740  22801494.87740
 96  9  3  1 12 30.0020000  0  6  1 14 15 22 25 29
  10773046.57400  24772681.51800                   8284063.47440  24772688.89340
  -1262709.25000  22221756.93200                   -950944.64040  22221762.67440
   6625073.03600  21901342.74400                   5132371.32040  21901348.63940
   -969902.29800  24680525.55700                   -682485.83740  24680533.22540
   5849236.53700  21721919.03300                   4557845.74640  21721923.87340
   -191913.29900  22803317.95500                   -149540.66740  22803323.28740
 96  9  3  1 13  0.0020000  0  6  1 14 15 22 25 29
  10910852.08700  24798906.76800                   8391444.38340  24798912.20540
  -1271247.10000  22220132.40000                   -957597.50040  22220138.15440
   6736681.66000  21922581.40000                   5219339.07540  21922587.37740
  -1005464.22200  24673758.38500                   -710196.35240  24673766.87340
   5948703.19800  21740846.66600                   4635352.23540  21740851.38940
   -182090.51400  22805187.20500                   -141886.51240  22805192.01040
 96  9  3  1 13 30.0020000  0  6  1 14 15 22 25 29
  11048680.95100  24825134.35400                   8498843.43040  24825139.68640
  -1279518.42600  22218558.13500                   -964042.67840  22218564.13540
   6848885.06000  21943932.99400                   5306770.28040  21943938.95940
  -1040964.57300  24667003.51000                   -737858.88340  24667010.68640
   6048695.79600  21759874.78300                   4713268.54640  21759879.42440
   -172063.75400  22807095.22900                   -134073.42040  22807100.33840
 96  9  3  1 14  0.0020000  0  6  1 14 15 22 25 29
  11186573.28800  24851374.58800                   8606291.95740  24851379.70940
  -1287485.01800  22217041.97900                   -970250.40340  22217047.76840
   6961701.04500  21965400.97900                   5394678.82340  21965406.96740
  -1076376.72500  24660264.79100                   -765452.67040  24660273.16240
   6149234.85600  21779006.68200                   4791610.67540  21779011.20540
   -161793.78200  22809049.60400                   -126070.81740  22809054.51440
 96  9  3  1 14 30.0020000  0  6  1 14 15 22 25 29
  11324533.00500  24877628.18200                   8713793.08140  24877632.69340
  -1295147.82100  22215583.94700                   -976221.41340  22215589.78340
   7075113.13000  21986982.65000                   5483051.85840  21986988.55740
  -1111696.38600  24653543.45500                   -792974.37040  24653549.97140
   6250319.87500  21798242.58800                   4870378.21740  21798247.32240
   -151283.73200  22811049.35400                   -117881.13340  22811054.22940
 96  9  3  1 15  0.0020000  0  6  1 14 15 22 25 29
  11462571.32600  24903895.90000                   8821355.33140  24903902.41640
  -1302517.89600  22214181.38500                   -981964.31240  22214187.22140
   7189118.78300  22008677.28300                   5571887.41940  22008683.29540
  -1146924.61900  24646839.22900                   -820424.89340  24646846.73240
   6351931.99600  21817578.72900                   4949556.49940  21817583.54540
   -140545.98400  22813092.60400                   -109514.03040  22813097.77140
 96  9  3  1 15 30.0020000  0  6  1 14 15 22 25 29
  11600685.64400  24930177.93200                   8928976.88040  24930183.83840
  -1309593.16400  22212835.00200                   -987477.48940  22212840.66240
   7303707.29400  22030482.68200                   5661177.15840  22030488.63540
  -1182084.52000  24640148.65800                   -847822.12840  24640155.16240
   6454039.19700  21837008.98600                   5029120.55640  21837013.61540
   -129594.47900  22815176.65800                   -100980.36040  22815182.08440
 96  9  3  1 16  0.0020000  0  6  1 14 15 22 25 29
  11738875.69500  24956473.72100                   9036657.41240  24956480.92040
  -1316358.69100  22211547.64300                   -992749.31740  22211553.39640
   7418882.19700  22052399.82200                   5750923.81940  22052405.93940
  -1217179.87000  24633470.65800                   -875169.08640  24633475.83840
   6556632.58400  21856532.04100                   5109063.46040  21856536.68240
   -118444.35200  22817298.01000                    -92291.91240  22817303.67040
 96  9  3  1 16 30.0020000  0  6  1 14 15 22 25 29
  11877120.87500  24982780.84600                   9144380.88940  24982787.43240
  -1322824.48700  22210317.20500                   -997787.58140  22210322.93640
   7534638.82600  22074427.75200                   5841123.76940  22074433.75240
  -1252211.71300  24626804.33800                   -902466.53240  24626811.27940
   6659701.19700  21876145.08800                   5189376.66240  21876149.84640
   -107118.47600  22819453.58800                    -83466.53140  22819458.74440
 96  9  3  1 17  0.0020000  0  6  1 14 15 22 25 29
  12015407.87500  25009096.24400                   9252136.99240  25009103.42040
  -1328987.14100  22209144.61900                  -1002589.62840  22209150.44340
   7650982.75000  22096566.87700                   5931781.35740  22096572.88940
  -1287177.39200  24620149.35400                   -929712.46640  24620156.23640
   6763244.35100  21895848.82200                   5270059.64840  21895853.56840
    -95607.32500  22821644.16600                    -74496.77140  22821649.47540
 96  9  3  1 17 30.0020000  0  6  1 14 15 22 25 29
  12153732.14100  25035418.65000                   9359922.07540  25035422.88140
  -1334836.54500  22208031.70500                  -1007147.58640  22208037.35440
   7767923.45900  22118820.32200                   6022903.96740  22118826.26440
  -1322042.84100  24613515.08800                   -956880.24340  24613523.11940
   6867282.55500  21915646.93900                   5351128.37240  21915651.61540
    -83882.24000  22823874.94700                    -65360.31440  22823880.45540
 96  9  3  1 18  0.0030000  0  6  1 14 15 22 25 29
  12292063.54700  25061742.56900                   9467712.69040  25061748.86240
  -1340414.92400  22206969.74100                  -1011494.35740  22206975.53040
   7885432.76100  22141181.64700                   6114469.63840  22141187.54240
  -1356810.93100  24606899.24900                   -983972.21340  24606904.89740
   6971797.89300  21935535.28800                   5432568.89840  21935539.95240
    -71957.35400  22826144.61600                    -56068.15940  22826149.98340
 96  9  3  1 18 30.0030000  0  6  1 14 15 22 25 29
  12430417.89700  25088069.46000                   9575521.26740  25088075.14440
  -1345707.10900  22205962.67900                  -1015618.11040  22205968.17540
   8003512.41100  22163651.42900                   6206479.74340  22163657.38240
  -1391450.98900  24600307.14000                  -1010964.37640  24600314.19840
   7076804.74800  21955517.37400                   5514392.42040  21955522.00340
    -59795.01700  22828459.21800                    -46590.98240  22828464.24540
 96  9  3  1 19  0.0030000  0  6  1 14 15 22 25 29
  12568818.32500  25114408.13200                   9683365.70640  25114415.06240
  -1350723.24200  22205008.17100                  -1019526.76340  22205013.87840
   8122151.30300  22186227.65500                   6298925.60340  22186233.57340
  -1425970.94300  24593738.19400                  -1037863.04140  24593743.57340
   7182294.69900  21975591.33500                   5596592.37540  21975596.14040
    -47403.87500  22830816.78000                    -36935.52840  22830822.08940
 96  9  3  1 19 30.0030000  0  6  1 14 15 22 25 29
  12707297.35500  25140758.58500                   9791271.41840  25140765.44440
  -1355442.23100  22204110.18700                  -1023203.87140  22204115.89440
   8241359.99400  22208912.60800                   6391815.47440  22208918.58540
  -1460347.33100  24587196.02200                  -1064649.71340  24587201.87040
   7288263.34100  21995756.82700                   5679165.34340  21995761.55040
    -34775.86200  22833220.06900                    -27095.49240  22833225.14440
 96  9  3  1 20  0.0030000  0  6  1 14 15 22 25 29
  12845872.45300  25167129.42100                   9899252.00740  25167136.25340
  -1359842.17500  22203272.81900                  -1026632.37240  22203278.59740
   8361141.23900  22231705.89000                   6485151.49940  22231711.70240
  -1494591.23200  24580678.84300                  -1091333.21640  24580686.24140
   7394705.28600  22016011.89000                   5762107.11240  22016016.40140
    -21921.51100  22835666.31200                    -17079.09440  22835671.25740
 96  9  3  1 20 30.0030000  0  6  1 14 15 22 25 29
  12984549.01300  25193517.46000                  10007311.59940  25193524.08140
  -1363925.46900  22202495.83500                  -1029814.13240  22202501.54240
   8481487.65800  22254607.27200                   6578927.91040  22254613.43740
  -1528719.71300  24574185.64700                  -1117926.71640  24574193.86640
   7501607.31200  22036354.72600                   5845407.39140  22036359.35440
     -8862.22400  22838151.00700                     -6903.00340  22838156.06940
 96  9  3  1 21  0.0030000  0  6  1 14 15 22 25 29
  13123300.71300  25219922.32700                  10115429.79740  25219929.38640
  -1367688.96500  22201779.76500                  -1032746.70040  22201785.49540
   8602392.57500  22277614.57700                   6673139.51740  22277620.58940
  -1562743.41600  24567711.14000                  -1144438.67640  24567716.97640
   7608947.83400  22056781.09300                   5929049.35440  22056785.60440
      4388.76200  22840672.58500                      3422.46540  22840677.39040
 96  9  3  1 21 30.0030000  0  6  1 14 15 22 25 29
  13262105.67600  25246334.71000                  10223589.48040  25246342.06240
  -1371117.15600  22201127.42100                  -1035417.99640  22201132.90540
   8723858.26900  22300728.63200                   6767788.08940  22300734.64440
  -1596661.77800  24561255.99900                  -1170868.50840  24561263.70240
   7716738.37100  22077292.81900                   6013041.97840  22077297.27240
     17832.52200  22843230.80400                     13898.14640  22843235.59740
 96  9  3  1 22  0.0030000  0  6  1 14 15 22 25 29
  13400959.79500  25272758.88200                  10331787.39540  25272764.85840
  -1374202.78800  22200540.09300                  -1037822.36540  22200545.82340
   8845890.24900  22323950.73300                   6862877.91640  22323956.62840
  -1630461.27500  24554824.64000                  -1197205.72040  24554832.77640
   7825015.59200  22097897.05400                   6097413.83440  22097901.78840
     31487.04800  22845829.09300                     24538.06740  22845834.06240
 96  9  3  1 22 30.0030000  0  6  1 14 15 22 25 29
  13539845.27800  25299186.12400                  10440009.92740  25299195.91340
  -1376953.27000  22200016.95200                  -1039965.57740  22200022.51940
   8968477.72700  22347278.63200                   6958400.60540  22347284.60840
  -1664134.77200  24548416.68700                  -1223444.74140  24548423.27240
   7933782.52400  22118594.67900                   6182167.28740  22118599.36640
     45353.76100  22848467.73300                     35343.32440  22848472.71440
 96  9  3  1 23  0.0030000  0  6  1 14 15 22 25 29
  13678739.21300  25325617.84300                  10548238.88840  25325624.47640
  -1379370.29400  22199556.74900                  -1041848.95640  22199562.42140
   9091602.44600  22370708.09300                   7054341.92940  22370714.16340
  -1697683.11800  24542033.24100                  -1249586.22040  24542038.51540
   8043036.29600  22139385.38200                   6267300.09740  22139390.05840
     59423.53600  22851145.23300                     46306.80740  22851150.20240
 96  9  3  1 23 30.0030000  0  6  1 14 15 22 25 29
  13817651.97700  25352052.16300                  10656482.58140  25352060.39440
  -1381470.88600  22199156.74100                  -1043485.76140  22199162.34340
   9215259.09700  22394239.21800                   7150697.73340  22394245.21840
  -1731102.24900  24535673.58500                  -1275627.05840  24535680.11240
   8152789.06300  22160270.35800                   6352821.73540  22160274.97640
     73698.14800  22853861.62400                     57429.91940  22853866.85140
 96  9  3  1 24  0.0030000  0  6  1 14 15 22 25 29
  13956608.07000  25378495.65500                  10764760.01640  25378501.79640
  -1383251.96300  22198817.96800                  -1044873.59740  22198823.38240
   9339466.13600  22417874.99100                   7247482.41640  22417881.02640
  -1764370.92600  24529342.06200                  -1301550.63340  24529348.28440
   8263043.24800  22181251.16300                   6438734.09240  22181255.68740
     88216.75000  22856624.51500                     68743.14440  22856629.44840
 96  9  3  1 24 30.0030000  0  6  1 14 15 22 25 29
  14095615.81000  25404946.77200                  10873077.74040  25404953.84340
  -1384715.74500  22198539.42100                  -1046014.18740  22198545.12840
   9464215.03300  22441613.85100                   7344689.33140  22441619.90940
  -1797500.47500  24523037.58500                  -1327365.82440  24523044.59740
   8373761.36900  22202320.38200                   6525007.95840  22202325.23340
    102959.77600  22859429.88200                     80231.24040  22859434.93340
 96  9  3  1 25  0.0030000  0  6  1 14 15 22 25 29
  14234687.57600  25431412.49100                  10981445.32240  25431417.82340
  -1385875.76500  22198318.78800                  -1046918.08540  22198324.60140
   9589496.52900  22465454.23300                   7442311.25340  22465460.19840
  -1830494.82800  24516759.18700                  -1353075.63840  24516766.15140
   8484923.04600  22223473.09300                   6611627.45340  22223477.88640
    117917.48700  22862276.43700                     91886.63440  22862281.27640
 96  9  3  1 25 30.0030000  0  6  1 14 15 22 25 29
  14373818.64600  25457888.27200                  11089859.06140  25457894.87040
  -1386745.70600  22198153.17100                  -1047595.95540  22198158.72640
   9715300.93200  22489394.10800                   7540340.63340  22489400.12040
  -1863368.77300  24510503.53000                  -1378691.59640  24510509.54240
   8596503.70500  22244706.62400                   6698573.41840  22244711.08940
    133082.36600  22865161.71800                    103703.44640  22865166.94440
 96  9  3  1 26  0.0030000  0  6  1 14 15 22 25 29
  14513011.87400  25484375.61600                  11198321.34540  25484380.63240
  -1387300.28200  22198047.65500                  -1048028.08340  22198053.44440
   9841632.36500  22513434.17900                   7638780.69240  22513440.12040
  -1896098.51600  24504275.09300                  -1404195.26240  24504281.96440
   8708499.66200  22266018.89000                   6785843.00040  22266023.60140
    148448.25300  22868086.06200                    115676.89740  22868091.07740
 96  9  3  1 26 30.0030000  0  6  1 14 15 22 25 29
  14652256.78800  25510872.05400                  11306823.82240  25510877.92540
  -1387526.98700  22198004.58500                  -1048204.72240  22198010.02240
   9968481.80400  22537572.56200                   7737624.38840  22537578.64440
  -1928678.51000  24498075.65500                  -1429582.19640  24498082.53840
   8820922.87900  22287412.26500                   6873445.51240  22287416.89440
    163987.11500  22871043.20200                    127785.12440  22871048.01940
 96  9  3  1 27  0.0030000  0  6  1 14 15 22 25 29
  14791524.94400  25537374.36600                  11415344.47340  25537378.87840
  -1387430.18400  22198022.55400                  -1048129.28440  22198028.01540
  10095843.82700  22561809.08500                   7836867.50640  22561815.12040
  -1961110.84500  24491903.88200                  -1454854.10740  24491909.64740
   8933794.32900  22308890.78800                   6961397.29340  22308895.33540
    179709.25600  22874034.74900                    140036.17640  22874039.61240
 96  9  3  1 27 30.0030000  0  6  1 14 15 22 25 29
  14930799.61600  25563878.13200                  11523870.13140  25563884.47240
  -1386988.91600  22198106.87400                  -1047785.43140  22198112.39440
  10223723.22300  22586143.56900                   7936513.76340  22586149.55840
  -1993391.10000  24485760.92100                  -1480007.47040  24485766.67540
   9047128.39800  22330457.53800                   7049709.55340  22330462.27240
    195629.15100  22877064.33500                    152441.31240  22877069.37440
 96  9  3  1 28  0.0030000  0  6  1 14 15 22 25 29
  15070069.85600  25590379.78000                  11632392.32240  25590386.65140
  -1386212.52200  22198254.51500                  -1047180.43940  22198260.21040
  10352109.61700  22610574.88200                   8036555.09340  22610580.78840
  -2025519.18700  24479646.38200                  -1505042.29840  24479652.54640
   9160917.77300  22352110.69400                   7138376.59940  22352115.41740
    211747.69300  22880131.60100                    165001.24240  22880136.96840
 96  9  3  1 28 30.0030000  0  6  1 14 15 22 25 29
  15209354.30300  25616884.89000                  11740925.63540  25616889.61240
  -1385091.83700  22198467.85100                  -1046307.17040  22198473.44040
  10481008.40200  22635103.37400                   8136995.68340  22635109.36240
  -2057496.44900  24473561.77200                  -1529959.54140  24473569.18340
   9275172.73000  22373852.89700                   7227406.43040  22373857.55040
    228088.16100  22883241.12400                    177734.09540  22883246.25740
 96  9  3  1 29  0.0030000  0  6  1 14 15 22 25 29
  15348655.37300  25643392.65500                  11849471.89740  25643397.82340
  -1383643.65400  22198743.33500                  -1045178.70240  22198748.77240
  10610404.75400  22659726.78000                   8237823.98140  22659732.73340
  -2089336.67400  24467502.86600                  -1554770.03840  24467508.76140
   9389855.04200  22395676.07700                   7316769.27240  22395680.95240
    244649.65600  22886392.43700                    190639.18340  22886397.31240
 96  9  3  1 29 30.0030000  0  6  1 14 15 22 25 29
  15487986.87800  25669906.72600                  11958041.89540  25669912.47940
  -1381871.57300  22199080.65500                  -1043797.85540  22199086.43340
  10740289.74400  22684443.00700                   8339033.04140  22684449.19440
  -2121037.09500  24461470.11600                  -1579471.62640  24461476.46840
   9504931.83000  22417574.54600                   7406439.49840  22417579.05840
    261412.82400  22889582.31900                    203701.41240  22889587.26540
 96  9  3  1 30  0.0030000  0  6  1 14 15 22 25 29
  15627376.24500  25696431.35100                  12066656.95840  25696438.58540
  -1379758.84100  22199482.85100                  -1042151.55440  22199488.41740
  10870677.13400  22709255.08500                   8440633.58940  22709261.13240
  -2152576.60800  24455468.85800                  -1604047.82040  24455475.19840
   9620413.38900  22439550.23300                   7496425.12440  22439554.71040
    278374.39900  22892810.10800                    216918.25240  22892815.07740
 96  9  3  1 30 30.0040000  0  6  1 14 15 22 25 29
  15766811.33700  25722964.91800                  12175307.69340  25722968.89140
  -1377313.61000  22199947.98800                  -1040246.17240  22199953.55540
  11001548.32000  22734158.86300                   8542611.11440  22734165.03940
  -2183984.71600  24449492.04300                  -1628521.60340  24449498.31240
   9736281.73100  22461599.19900                   7586712.13940  22461603.82840
    295494.12800  22896068.07400                    230258.32140  22896072.82040
 96  9  3  1 31  0.0040000  0  6  1 14 15 22 25 29
  15906280.45400  25749505.39500                  12283984.88640  25749513.74240
  -1374543.73100  22200475.16800                  -1038087.80240  22200480.84040
  11132896.98100  22759153.87100                   8644960.70140  22759159.94140
  -2215253.64200  24443541.52700                  -1652886.92940  24443547.38740
   9852534.40900  22483721.16000                   7677298.63840  22483725.57840
    312760.92800  22899353.61300                    243712.98740  22899358.60540
 96  9  3  1 31 30.0040000  0  6  1 14 15 22 25 29
  16045797.41900  25776055.56600                  12392699.39940  25776062.34040
  -1371427.22700  22201068.10500                  -1035659.34340  22201073.73040
  11264739.06200  22784242.57400                   8747694.76840  22784248.68040
  -2246362.13600  24437621.51200                  -1677127.28140  24437628.09840
   9969209.36600  22505923.62900                   7768214.18540  22505928.14140
    330187.44000  22902669.72300                    257292.10640  22902674.68040
 96  9  3  1 32  0.0040000  0  6  1 14 15 22 25 29
  16185355.73200  25802611.77700                  12501446.11240  25802616.38340
  -1367968.81600  22201726.29300                  -1032964.46340  22201731.90640
  11397071.27300  22809424.72300                   8850810.75140  22809430.58240
  -2277299.01800  24431734.22300                  -1701233.89340  24431740.82040
  10086317.64100  22528208.84800                   7859467.38140  22528213.47740
    347776.37200  22906017.03500                    270997.78540  22906021.79340
 96  9  3  1 32 30.0040000  0  6  1 14 15 22 25 29
  16324953.40300  25829176.72300                  12610223.51240  25829182.85240
  -1364177.50000  22202447.71500                  -1030010.17140  22202453.31640
  11529888.08300  22834698.85500                   8954304.34840  22834704.64540
  -2308058.47900  24425881.50400                  -1725202.22440  24425887.21140
  10203850.22800  22550574.48800                   7951051.20940  22550579.01240
    365536.41500  22909396.49600                    284836.80240  22909401.28940
 96  9  3  1 33  0.0040000  0  6  1 14 15 22 25 29
  16464576.56900  25855745.84800                  12719020.72740  25855753.38740
  -1360054.54500  22203232.29300                  -1026797.46240  22203237.81240
  11663182.98600  22860064.05900                   9058170.48440  22860070.08240
  -2338621.99500  24420065.09800                  -1749017.90040  24420070.03140
  10321805.06500  22573020.81600                   8042964.06940  22573025.32840
    383479.21900  22912810.98800                    298818.22640  22912815.91040
 96  9  3  1 33 30.0040000  0  6  1 14 15 22 25 29
  16604199.41600  25882315.26200                  12827817.79240  25882321.20340
  -1355596.39500  22204080.66800                  -1023323.56140  22204086.19940
  11796936.72600  22885516.33200                   9162394.15540  22885522.34440
  -2368985.80500  24414287.52000                  -1772677.95240  24414294.29340
  10440158.15000  22595542.41000                   8135187.24840  22595546.85240
    401604.06300  22916259.90200                    312941.49640  22916264.83640
 96  9  3  1 34  0.0040000  0  6  1 14 15 22 25 29
  16743829.47900  25908884.75400                  12936620.42540  25908891.27040
  -1350795.73900  22204994.15200                  -1019582.77340  22204999.53140
  11931152.35200  22911056.71500                   9266977.73440  22911062.71540
  -2399138.34000  24408549.94900                  -1796173.35940  24408555.91440
  10558899.95800  22618138.28500                   8227713.33040  22618142.78540
    419923.09000  22919745.77000                    327216.08540  22919750.76240
 96  9  3  1 34 30.0040000  0  6  1 14 15 22 25 29
  16883477.06600  25935459.37100                  13045436.69240  25935467.30940
  -1345632.42300  22205976.87100                  -1015559.38740  22205982.48440
  12065835.32100  22936686.01200                   9371925.48140  22936692.10540
  -2429082.83200  24402850.67600                  -1819506.66740  24402856.30140
  10678034.46800  22640809.06600                   8320545.41840  22640813.55540
    438452.93500  22923272.15200                    341654.95440  22923277.22740
 96  9  3  1 35  0.0040000  0  6  1 14 15 22 25 29
  17023162.35200  25962041.70700                  13154282.36240  25962044.77740
  -1340085.92600  22207032.16800                  -1011237.42540  22207037.58240
  12201004.18800  22962408.10500                   9477251.84540  22962414.10540
  -2458788.05400  24397197.73000                  -1842653.54440  24397203.89540
  10797579.43900  22663557.55100                   8413697.34240  22663562.00440
    457216.11800  22926842.05900                    356275.63840  22926846.81640
 96  9  3  1 35 30.0040000  0  6  1 14 15 22 25 29
  17162881.10100  25988629.41000                  13263154.10140  25988638.02740
  -1334182.80700  22208155.72300                  -1006637.57540  22208161.00840
  12336636.69500  22988218.02700                   9582939.49740  22988224.13340
  -2488288.18700  24391583.92600                  -1865640.59840  24391590.02040
  10917497.80800  22686377.12900                   8507140.22140  22686381.67640
    476191.86900  22930453.34000                    371061.96240  22930458.14540
 96  9  3  1 36  0.0040000  0  6  1 14 15 22 25 29
  17302640.99000  26015224.45700                  13372057.89740  26015229.36740
  -1327932.61700  22209344.75400                  -1001767.28540  22209350.09840
  12472726.37800  23014114.91800                   9688983.38340  23014120.84840
  -2517617.32900  24386002.98800                  -1888494.38740  24386009.65640
  11037775.05100  22709265.09000                   8600862.75340  22709269.68440
    495358.18400  22934100.44900                    385996.77040  22934105.38340
 96  9  3  1 36 30.0040000  0  6  1 14 15 22 25 29
  17442432.43400  26041825.84800                  13480986.28940  26041834.32440
  -1321340.81400  22210599.14500                   -996630.79540  22210604.59440
  12609270.18700  23040098.44900                   9795381.13840  23040104.49640
  -2546781.09100  24380454.14500                  -1911219.36340  24380459.73440
  11158424.24200  22732223.98000                   8694875.11040  22732228.39840
    514709.42600  22937783.08200                    401075.68240  22937787.69940
 96  9  3  1 37  0.0040000  0  6  1 14 15 22 25 29
  17582257.55300  26068432.82400                  13589940.95540  26068437.61740
  -1314402.55300  22211919.68400                   -991224.34540  22211925.15640
  12746269.34700  23066168.87100                   9902133.70140  23066174.96540
  -2575770.08700  24374936.94900                  -1933808.12340  24374942.56240
  11279454.13100  22755255.11300                   8789184.11540  22755259.68440
    534254.63400  22941502.30100                    416305.72840  22941507.19940
 96  9  3  1 37 30.0040000  0  6  1 14 15 22 25 29
  17722105.28000  26095044.00400                  13698913.12740  26095052.12940
  -1307117.79600  22213305.56600                   -985547.90040  22213311.20340
  12883711.21700  23092322.98800                  10009231.24640  23092329.24640
  -2604604.06200  24369450.50400                  -1956276.09840  24369457.72740
  11400870.50900  22778359.69900                   8883794.28440  22778364.57440
    553988.18500  22945257.39500                    431682.54140  22945262.11740
 96  9  3  1 38  0.0040000  0  6  1 14 15 22 25 29
  17861965.03400  26121661.04300                  13807894.79440  26121664.88740
  -1299468.43700  22214761.40200                   -979587.34540  22214766.79340
  13021596.77100  23118561.61300                  10116674.50540  23118567.83640
  -2633254.47700  24363998.05900                  -1978601.07740  24364004.53940
  11522705.04400  22801544.23800                   8978730.28640  22801548.99640
    573914.34500  22949049.32400                    447209.43240  22949054.08240
 96  9  3  1 38 30.0040000  0  5 14 15 22 25 29
  -1291441.50900  22216288.64500                   -973332.58740  22216294.15240
  13159931.10300  23144886.16000                  10224467.46740  23144892.16040
  -2661676.18900  24358589.84000                  -2000747.77540  24358595.27740
  11644981.13000  22824812.73000                   9074010.35140  22824817.67640
    594054.75300  22952881.81600                    462903.27340  22952886.53940
 96  9  3  1 39  0.0040000  0  5 14 15 22 25 29
  -1283042.61500  22217887.04300                   -966787.98640  22217892.63340
  13298695.75700  23171291.89500                  10332595.74740  23171298.10540
  -2689879.39100  24353222.65200                  -2022724.25640  24353229.42640
  11767667.42200  22848158.87900                   9169610.06940  22848163.60240
    614388.18800  22956751.05100                    478747.52940  22956755.77340
 96  9  3  1 39 30.0040000  0  5 14 15 22 25 29
  -1274251.51900  22219560.02700                   -959937.76740  22219565.51240
  13437898.22600  23197781.69900                  10441065.18340  23197787.47740
  -2717851.44900  24347899.74600                  -2044520.61340  24347905.75840
  11890763.88100  22871583.09800                   9265529.39240  22871587.50440
    634907.27700  22960655.67600                    494736.45940  22960660.34040
 96  9  3  1 40  0.0040000  0  5 14 15 22 25 29
  -1265061.51900  22221308.52700                   -952776.72240  22221314.07040
  13577535.90800  23224353.23800                  10549873.74440  23224359.23840
  -2745588.89300  24342621.53500                  -2066134.14740  24342628.12140
  12014251.40500  22895082.51200                   9361753.43840  22895087.08240
    655600.17100  22964593.39500                    510860.81740  22964598.05940
 96  9  3  1 40 30.0040000  0  5 14 15 22 25 29
  -1255486.11600  22223130.84800                   -945315.35540  22223136.34440
  13717605.63600  23251008.00400                  10659018.96340  23251014.18040
  -2773102.43500  24337385.23000                  -2087573.22440  24337391.81640
  12138108.59900  22918651.77700                   9458265.53840  22918656.59440
    676466.33300  22968563.97300                    527120.19340  22968568.66040
 96  9  3  1 41  0.0040000  0  5 14 15 22 25 29
  -1245530.78100  22225025.30100                   -937557.94240  22225030.73840
  13858094.21800  23277742.06600                  10768490.56440  23277747.97340
  -2800417.37100  24332188.75400                  -2108857.53240  24332194.48440
  12262313.26100  22942286.75400                   9555048.38940  22942291.57040
    697491.49500  22972565.06600                    543503.45540  22972569.75440
 96  9  3  1 41 30.0040000  0  5 14 15 22 25 29
  -1235187.34100  22226993.51200                   -929498.11040  22226999.18440
  13999006.24300  23304556.79300                  10878292.11840  23304562.78140
  -2827509.58600  24327032.40200                  -2129968.28840  24327038.50840
  12386874.19000  22965990.07400                   9652108.85740  22965994.63340
    718681.18800  22976597.39500                    560014.92840  22976602.16440
 96  9  3  1 42  0.0040000  0  5 14 15 22 25 29
  -1224468.47300  22229033.22300                   -921145.73240  22229038.64840
  14140336.01900  23331450.84000                  10988419.19340  23331456.91040
  -2854369.11600  24321920.69100                  -2150897.75040  24321927.56240
  12511789.71200  22989760.73000                   9749445.62240  22989765.33640
    740039.50200  22980661.37100                    576657.79440  22980666.37540
 96  9  3  1 42 30.0040000  0  5 14 15 22 25 29
  -1213383.05600  22231142.74600                   -912507.73740  22231148.26640
  14282072.46200  23358422.50400                  11098863.14940  23358428.41040
  -2880998.70200  24316853.86300                  -2171648.03940  24316859.05540
  12637048.53400  23013596.84800                   9847049.89940  23013601.39540
    761560.76400  22984756.94100                    593427.62840  22984761.75840
 96  9  3  1 43  0.0040000  0  5 14 15 22 25 29
  -1201925.20200  22233323.10500                   -903579.52540  22233328.53140
  14424202.57500  23385468.81600                  11209613.86440  23385474.72340
  -2907405.55300  24311827.87100                  -2192224.76740  24311833.94140
  12762639.28300  23037496.05900                   9944912.81740  23037500.79340
    783229.37300  22988880.16800                    610312.28040  22988885.07840
 96  9  3  1 43 30.0050000  0  5 14 15 22 25 29
  -1190099.68200  22235573.36000                   -894364.82140  22235578.92740
  14566733.80900  23412591.89900                  11320677.12340  23412597.91140
  -2933580.81400  24306848.06300                  -2212621.05240  24306854.42740
  12888573.92000  23061460.11000                  10043043.69840  23061464.89240
    805059.51700  22993034.43800                    627322.79640  22993039.39540
 96  9  3  1 44  0.0050000  0  5 14 15 22 25 29
  -1177905.05700  22237894.00100                   -884862.50240  22237899.49740
  14709664.83300  23439790.63400                  11432051.93040  23439796.68140
  -2959530.48900  24301908.75900                  -2232841.50740  24301915.07540
  13014856.61400  23085491.14200                  10141445.78640  23085495.71240
    827068.74500  22997222.72000                    644472.86340  22997227.48940
 96  9  3  1 44 30.0050000  0  5 14 15 22 25 29
  -1165332.75900  22240286.21200                   -875065.88940  22240291.59140
  14853000.19400  23467066.38400                  11543741.79440  23467072.43140
  -2985249.40100  24297015.50100                  -2252882.20340  24297021.68840
  13141503.12200  23109591.00100                  10240131.36840  23109595.72440
    849259.69100  23001445.54000                    661764.52740  23001450.27440
 96  9  3  1 45  0.0050000  0  5 14 15 22 25 29
  -1152406.53600  22242746.17300                   -864993.48940  22242751.55240
  14996722.60600  23494415.80600                  11655733.26640  23494421.73540
  -3010739.48000  24292164.68100                  -2272744.56240  24292170.57540
  13268505.91200  23133758.97800                  10339094.57340  23133763.44240
    871622.78100  23005701.10300                    679190.32840  23005706.16540
 96  9  3  1 45 30.0050000  0  5 14 15 22 25 29
  -1139136.04300  22245271.44600                   -854652.83040  22245276.77840
  15140821.27400  23521836.89900                  11768017.90640  23521842.78240
  -3035997.09600  24287358.30600                  -2292425.78640  24287364.59940
  13395851.61900  23157992.09500                  10438324.99040  23157996.46640
    894155.08100  23009988.75900                    696747.97540  23009993.66940
 96  9  3  1 46  0.0050000  0  5 14 15 22 25 29
  -1125499.39900  22247866.39900                   -844026.85340  22247871.90740
  15285297.63100  23549329.79800                  11880596.85940  23549335.92740
  -3061002.31500  24282599.92300                  -2311910.30940  24282605.74740
  13523537.08400  23182289.84500                  10537820.14740  23182294.70840
    916859.07800  23014309.16500                    714439.42440  23014313.95840
 96  9  3  1 46 30.0050000  0  5 14 15 22 25 29
  -1111473.78800  22250535.27400                   -833097.79240  22250540.82940
  15430160.50400  23576896.62600                  11993476.99240  23576902.61440
  -3085722.78100  24277895.66500                  -2331172.95840  24277901.02040
  13651552.42000  23206650.50100                  10637572.35040  23206655.30640
    939761.43800  23018667.21200                    732285.43240  23018671.84140
 96  9  3  1 47  0.0050000  0  5 14 15 22 25 29
  -1097073.48700  22253275.57900                   -821876.75840  22253281.00540
  15575391.87900  23604532.85300                  12106644.26040  23604538.86440
  -3110184.97800  24273240.84500                  -2350234.38240  24273246.97440
  13779866.25600  23231067.89200                  10737557.15540  23231072.34540
    962858.84600  23023062.52400                    750283.43440  23023067.03640
 96  9  3  1 47 30.0050000  0  5 14 15 22 25 29
  -1082270.60300  22256092.42300                   -810342.02240  22256097.64940
  15720995.59700  23632240.61800                  12220101.67040  23632246.66540
  -3134398.28100  24268633.19600                  -2369101.84140  24268639.00940
  13908484.46900  23255542.93800                  10837779.14040  23255548.15340
    986151.79000  23027495.11800                    768433.79340  23027499.92340
 96  9  3  1 48  0.0050000  0  5 14 15 22 25 29
  -1067067.96400  22258985.36800                   -798495.79140  22258990.81740
  15866966.24700  23660018.18100                  12333845.00540  23660024.33340
  -3158367.99000  24264071.63400                  -2387779.48240  24264078.29040
  14037408.26000  23280076.67300                  10938239.22340  23280081.34940
   1009633.11200  23031963.42300                    786730.94340  23031967.89940
 96  9  3  1 48 30.0050000  0  5 14 15 22 25 29
  -1051464.33800  22261954.63400                   -786337.10440  22261959.87240
  16013301.91900  23687864.54800                  12447872.76940  23687870.65340
  -3182101.92000  24259555.10300                  -2406273.42940  24259561.02040
  14166653.37700  23304671.12600                  11038949.70240  23304675.73140
   1033294.09700  23036466.15700                    805168.08740  23036470.81040
 96  9  3  1 49  0.0050000  0  5 14 15 22 25 29
  -1035455.84900  22265001.16500                   -773862.94040  22265006.53240
  16159991.28400  23715778.74300                  12562176.13340  23715784.94240
  -3205611.88400  24255081.75900                  -2424592.81240  24255086.88040
  14296238.82300  23329330.43800                  11139925.36840  23329334.89240
   1057097.75600  23040995.59500                    823716.40640  23041000.10640
 96  9  3  1 49 30.0050000  0  5 14 15 22 25 29
  -1019047.85500  22268123.39200                   -761077.46840  22268128.58340
  16307020.08500  23743757.85300                  12676743.99140  23743764.34540
  -3228888.79500  24250651.97800                  -2442730.61440  24250657.89540
  14426151.26500  23354051.43800                  11241155.84040  23354056.20840
   1081022.96500  23045548.53200                    842359.44140  23045553.27840
 96  9  3  1 50  0.0050000  0  5 14 15 22 25 29
  -1002236.31400  22271322.47800                   -747977.55240  22271327.75140
  16454397.77200  23771802.67300                  12791583.71840  23771808.68540
  -3251902.31600  24246272.35300                  -2460663.17940  24246278.31740
  14556404.68100  23378838.05600                  11342652.01740  23378842.80240
   1105101.11300  23050130.42300                    861121.65540  23050135.04040
 96  9  3  1 50 30.0050000  0  5 14 15 22 25 29
   -985005.11400  22274601.52400                   -734550.62640  22274606.88040
  16602136.17800  23799915.97800                  12906704.52340  23799921.88440
  -3274638.97700  24241945.73500                  -2478380.00140  24241951.31340
  14687014.40100  23403692.11800                  11444425.83040  23403696.70040
   1129347.84800  23054744.50900                    880015.23640  23054749.20840
 96  9  3  1 51  0.0050000  0  5 14 15 22 25 29
   -967361.11400  22277958.99300                   -720802.04140  22277964.51340
  16750227.20900  23828097.15700                  13022100.09540  23828103.41540
  -3297100.29600  24237672.02400                  -2495882.29240  24237677.84940
  14817948.29600  23428608.18100                  11546452.24540  23428612.64540
   1153765.86500  23059390.88400                    899042.27440  23059395.59540
 96  9  3  1 51 30.0050000  0  5 14 15 22 25 29
   -949328.27800  22281390.68100                   -706750.46740  22281396.06040
  16898658.70900  23856342.87600                  13137760.96340  23856349.00540
  -3319294.26300  24233448.04000                  -2513176.23240  24233453.98140
  14949177.93300  23453580.34500                  11648709.10940  23453585.12640
   1178363.06300  23064071.68100                    918208.94640  23064076.25140
 96  9  3  1 52  0.0050000  0  5 14 15 22 25 29
   -930910.37200  22284895.36800                   -692398.84340  22284900.77040
  17047430.35500  23884652.98500                  13253686.89540  23884658.88040
  -3341222.31700  24229275.46200                  -2530262.95840  24229281.64940
  15080706.87200  23478609.72000                  11751199.19040  23478614.22040
   1203139.12400  23068786.37600                    937514.98140  23068790.89940
 96  9  3  1 52 30.0050000  0  5 14 15 22 25 29
   -912089.50100  22288476.88400                   -677733.22140  22288482.22840
  17196555.89300  23913030.58700                  13369888.58240  23913036.63440
  -3362854.89900  24225158.71200                  -2547119.45640  24225165.12240
  15212536.73600  23503696.13400                  11853923.76440  23503700.72840
   1228096.97300  23073535.65700                    956962.67740  23073540.25140
 96  9  3  1 53  0.0050000  0  5 14 15 22 25 29
   -892880.08900  22292132.24300                   -662764.83840  22292137.63440
  17346015.78500  23941471.97000                  13486350.79540  23941478.27440
  -3384190.05100  24221098.41500                  -2563744.20440  24221103.91140
  15344649.95100  23528836.41500                  11956869.12440  23528841.07940
   1253223.62900  23078316.92300                    976541.90940  23078321.57540
 96  9  3  1 53 30.0050000  0  5 14 15 22 25 29
   -873277.44400  22295862.43100                   -647490.04340  22295867.83340
  17495814.07300  23969977.65700                  13603076.69340  23969983.95040
  -3405194.29900  24217101.86000                  -2580111.09940  24217107.62640
  15477072.58000  23554035.35300                  12060055.59140  23554040.15740
   1278523.78300  23083131.42300                    996256.34040  23083135.85340
 96  9  3  1 54  0.0050000  0  5 14 15 22 25 29
   -853261.09800  22299671.40700                   -631892.88540  22299676.86840
  17645952.94400  23998548.02400                  13720067.99140  23998554.14240
  -3425844.90900  24213171.56300                  -2596202.43940  24213177.34140
  15609818.62200  23579296.05600                  12163494.07440  23579300.60340
   1304001.98300  23087979.77400                   1016109.50940  23087984.45040
 96  9  3  1 54 30.0050000  0  6 14 15 18 22 25 29
   -832789.95900  22303567.22000                   -615941.34040  22303572.63440
  17796447.73800  24027186.27400                  13837336.61540  24027192.67340
         0.24310  26302843.21200
  -3446123.52500  24209312.83700                  -2612003.91640  24209318.94240
  15742905.12100  23604621.47000                  12267197.83340  23604626.26340
   1329682.12500  23092866.52400                   1036120.03040  23092871.18840
 96  9  3  1 55  0.0050000  0  6 14 15 18 22 25 29
   -811878.74400  22307546.09500                   -599646.88040  22307551.43840
  17947264.92100  24055885.78200                  13954856.47340  24055891.93540
    -19659.59600  26299102.24300
  -3466073.32100  24205517.12600                  -2627549.17240  24205522.42340
  15876312.51500  23630007.87600                  12371151.64640  23630012.25940
   1355533.89500  23097786.04000                   1056264.29140  23097790.70440
 96  9  3  1 55 30.0050000  0  5 14 15 22 25 29
   -790516.82000  22311611.28200                   -583001.21940  22311616.73140
  18098403.97400  24084646.64900                  14072627.11740  24084652.88440
  -3485709.97000  24201780.03200                  -2642850.39240  24201786.36040
  16010035.18100  23655454.67300                  12475351.13440  23655458.98540
   1381556.11900  23102737.92300                   1076541.37140  23102742.63440
 96  9  3  1 56  0.0060000  0  5 14 15 22 25 29
   -768696.22200  22315763.70900                   -565998.15140  22315769.10040
  18249867.90000  24113469.54500                  14190650.93540  24113476.56840
  -3505059.01700  24198097.71700                  -2657927.52740  24198104.31440
  16144060.49400  23680958.67800                  12579786.43740  23680963.42440
   1407757.50100  23107723.74000                   1096958.05440  23107728.14640
 96  9  3  1 56 30.0060000  0  6 14 15 18 22 25 29
   -746405.37700  22320005.49800                   -548628.65540  22320010.67840
  18401665.46300  24142355.56100                  14308934.70740  24142362.12340
    -11023.99310  26287947.87300
  -3524117.27100  24194470.85700                  -2672778.07940  24194476.60040
  16278387.32400  23706520.67000                  12684456.69240  23706525.00640
   1434153.35300  23112746.85700                   1117526.27440  23112751.42840
 96  9  3  1 57  0.0060000  0  6 14 15 18 22 25 29
   -723679.11900  22324330.02900                   -530919.87040  22324335.45540
  18553789.35600  24171303.96700                  14427472.78340  24171309.92040
    -30432.25200  26284255.54500
  -3542890.44800  24190899.12300                  -2687406.47140  24190905.49840
  16413003.37400  23732137.35000                  12789352.31240  23732141.70940
   1460735.33800  23117805.16200                   1138239.53740  23117809.63940
 96  9  3  1 57 30.0060000  0  6 14 15 18 22 25 29
   -700538.76800  22328733.49800                   -512888.42140  22328738.90040
  18706232.03200  24200313.15400                  14546259.22940  24200319.36540
    -49779.25600  26280574.10700
  -3561374.83400  24187380.67800                  -2701809.84440  24187386.80740
  16547877.75000  23757802.74000                  12894449.22840  23757807.13540
   1487504.83500  23122899.24000                   1159098.91240  23122903.69340
 96  9  3  1 58  0.0060000  0  6 14 15 18 22 25 29
   -676989.64400  22333214.66200                   -494538.44740  22333219.94740
  18858985.57700  24229380.50600                  14665287.94140  24229386.85740
    -69064.34400  26276902.99000
  -3579553.88400  24183921.70900                  -2715975.30040  24183928.06140
  16682999.49100  23783515.35700                  12999738.88340  23783520.12740
   1514461.42400  23128028.82600                   1180104.06840  23128033.45540
 96  9  3  1 58 30.0060000  0  6 14 15 18 22 25 29
   -653019.30100  22337776.14600                   -475860.24840  22337781.49040
  19012049.38900  24258508.27900                  14784558.39440  24258514.37340
    -88286.47500  26273246.20900
  -3597406.39600  24180524.60700                  -2729886.28340  24180530.80740
  16818381.45800  23809277.81100                  13105231.32740  23809282.58040
   1541596.15400  23133192.48200                   1201248.04340  23133197.10040
 96  9  3  1 59  0.0060000  0  6 14 15 18 22 25 29
   -628617.17700  22342419.71700                   -456845.59740  22342425.00240
  19165410.51400  24287691.81100                  14904060.53640  24287698.08040
   -107448.88500  26269598.78700
  -3614921.09400  24177192.04500                  -2743534.05340  24177197.41240
  16954022.54500  23835089.85000                  13210925.68140  23835094.47840
   1568902.96300  23138388.84200                   1222526.09740  23138393.48240
 96  9  3  1 59 30.0060000  0  6 14 15 18 22 25 29
   -603746.28200  22347152.65400                   -437465.67640  22347158.13940
  19319080.82300  24316934.37300                  15023803.60240  24316941.11140
   -126549.83000  26265964.41200                     -4954.90050  26265973.94340
  -3632072.80800  24173927.75600                  -2756898.96940  24173934.00240
  17089953.68800  23860956.55300                  13316846.05440  23860960.88940
   1596393.44900  23143619.92800                   1243947.27840  23143624.60340
 96  9  3  2  0  0.0060000  0  6 14 15 18 22 25 29
   -578402.29700  22351975.50600                   -417717.10740  22351980.81440
  19473047.21100  24346233.05300                  15143777.36940  24346239.15840
   -145617.61500  26262335.41200                    -19813.00440  26262340.69740
  -3648866.57000  24170731.52900                  -2769984.97940  24170737.47140
  17226200.23200  23886883.27100                  13423012.18440  23886887.79540
   1624052.14600  23148883.17000                   1265499.53040  23148887.51840
 96  9  3  2  0 30.0060000  0  6 14 15 18 22 25 29
   -552569.46700  22356891.17800                   -397587.62240  22356896.56840
  19627322.69300  24375591.21700                  15263991.99340  24375597.04140
   -164636.91700  26258716.09200                    -34633.08040  26258724.55740
  -3665299.42300  24167604.36500                  -2782789.73340  24167610.41240
  17362785.94500  23912874.86500                  13529442.60740  23912879.57640
   1651894.24800  23154181.46700                   1287194.69740  23154185.86140
 96  9  3  2  1  0.0060000  0  6 14 15 18 22 25 29
   -526283.01700  22361893.36500                   -377104.66840  22361898.59240
  19781882.42100  24405002.56100                  15384428.10040  24405008.37340
   -183629.77600  26255102.47500                    -49432.58540  26255111.35040
  -3681394.30100  24164541.82600                  -2795331.14940  24164547.35740
  17499680.60900  23938924.78700                  13636113.77340  23938930.08440
   1679904.88400  23159511.59200                   1309021.18040  23159516.06840
 96  9  3  2  1 30.0060000  0  6 14 15 18 22 25 29
   -499550.01700  22366980.27100                   -356273.75040  22366985.69740
  19936741.88100  24434471.04500                  15505097.78540  24434477.24440
   -202582.89800  26251495.37300                    -64201.20140  26251498.08040
  -3697120.59000  24161549.35000                  -2807585.35740  24161555.33840
  17636891.85600  23965035.78700                  13743031.64040  23965040.42840
   1708095.69200  23164876.11500                   1330988.06440  23164880.63940
 96  9  3  2  2  0.0060000  0  6 14 15 18 22 25 29
   -472368.82900  22372152.69300                   -335093.59540  22372158.27140
  20091898.08400  24463996.52100                  15625998.69340  24464002.82640
   -221476.02800  26247899.60000                    -78923.06140  26247909.14340
  -3712480.79100  24158626.60000                  -2819554.29040  24158632.08440
  17774390.67500  23991200.49800                  13850173.56940  23991205.20940
   1736466.98400  23170274.98200                   1353095.57940  23170279.49440
 96  9  3  2  2 30.0060000  0  6 14 15 18 22 25 29
   -444746.20100  22377409.26400                   -313569.46140  22377414.68940
  20247343.00000  24493576.94300                  15747124.55440  24493582.87340
   -240306.62200  26244317.02900                    -93596.13040  26244320.38140
  -3727470.05100  24155774.36500                  -2831234.18540  24155779.94340
  17912138.20100  24017413.25600                  13957509.30340  24017417.52140
   1765021.53400  23175708.64600                   1375345.89240  23175713.22840
 96  9  3  2  3  0.0060000  0  6 14 15 18 22 25 29
   -416669.59600  22382752.02100                   -291691.58040  22382757.41240
  20403079.82800  24523212.43600                  15868477.90240  24523218.56440
   -259070.94500  26240745.46700                   -108217.66440  26240750.07240
  -3742058.23900  24152997.96700                  -2842601.54540  24153003.73240
  18050134.30000  24043672.80300                  14065038.73940  24043677.40840
   1793761.94500  23181177.83400                   1397741.03340  23181182.33440
 96  9  3  2  3 30.0060000  0  6 14 15 18 22 25 29
   -388123.12900  22388184.14600                   -269447.56740  22388189.57240
  20559100.80300  24552902.35000                  15990052.65740  24552908.66640
   -277764.71000  26237188.41200                   -122784.16340  26237195.84640
  -3756253.88500  24150296.45100                  -2853663.04640  24150302.49840
  18188377.19500  24069980.03700                  14172760.47640  24069984.80740
   1822689.69000  23186682.64600                   1420282.13840  23186686.90040
 96  9  3  2  4  0.0060000  0  6 14 15 18 22 25 29
   -359086.20000  22393709.66200                   -246821.36340  22393714.95940
  20715403.16600  24582646.13900                  16111846.68140  24582652.24440
   -296377.85400  26233646.87300                   -137287.87040  26233653.83840
  -3770083.06700  24147665.19300                  -2864438.97940  24147671.62740
  18326875.75500  24096334.82600                  14280681.43640  24096339.54940
   1851820.76100  23192226.01400                   1442981.62040  23192230.38540
 96  9  3  2  4 30.0060000  0  6 14 15 18 22 25 29
   -329563.01800  22399327.87300                   -223816.29540  22399333.17040
  20871981.68700  24612441.74800                  16233855.88140  24612447.90040
   -314918.76900  26230118.27100                   -151735.30840  26230127.95540
  -3783549.87300  24145102.47500                  -2874932.54040  24145108.22840
  18465648.95500  24122742.52100                  14388816.40140  24122747.76040
   1881162.48400  23197809.60000                   1465845.36640  23197814.20540
 96  9  3  2  5  0.0060000  0  6 14 15 18 22 25 29
   -299545.99800  22405039.91200                   -200426.40240  22405045.15040
  21028837.16000  24642290.27900                  16356080.89440  24642296.77140
   -333381.29200  26226604.92800                   -166121.58840  26226609.93240
  -3796659.85100  24142607.04500                  -2885148.05340  24142613.22140
  18604710.71600  24149204.66200                  14497176.21340  24149209.63140
   1910704.90300  23203431.43600                   1488865.44240  23203435.90040
 96  9  3  2  5 30.0060000  0  6 14 15 18 22 25 29
   -269039.77300  22410844.92800                   -176655.30540  22410850.10740
  21185963.04700  24672190.58400                  16478516.63540  24672196.80740
   -351773.70900  26223104.99000                   -180453.32840  26223112.47140
  -3809416.54800  24140179.43600                  -2895088.29340  24140185.45940
  18744047.97100  24175720.09200                  14605750.69640  24175724.19340
   1940437.09300  23209089.36500                   1512033.39240  23209093.97140
 96  9  3  2  6  0.0060000  0  6 14 15 18 22 25 29
   -238039.21800  22416744.20900                   -152499.01940  22416749.62340
  21343369.75600  24702143.50600                  16601171.17440  24702150.08040
   -370086.50000  26219620.22500                   -194722.99040  26219624.90040
  -3821788.77600  24137825.89600                  -2904728.95940  24137831.21740
  18883667.04900  24202288.49800                  14714544.78340  24202292.98640
   1970359.28600  23214783.29500                   1535349.39040  23214787.63140
 96  9  3  2  6 30.0060000  0  6 14 15 18 22 25 29
   -206561.84000  22422734.25600                   -127971.18540  22422739.61140
  21501036.86300  24732146.87300                  16724028.62340  24732153.37740
   -388342.44500  26216146.25600                   -208948.29640  26216153.98240
  -3833770.64000  24135544.99000                  -2914065.42540  24135551.07240
  19023541.06000  24228905.77900                  14823537.53040  24228910.13940
   2000435.58600  23220506.48200                   1558785.47240  23220510.90040
 96  9  3  2  7  0.0060000  0  6 14 15 18 22 25 29
   -174596.44000  22428816.91200                   -103063.07340  22428822.37340
  21658967.75800  24762200.12300                  16847091.64240  24762207.13540
   -406540.04200  26212682.78700                   -223128.20840  26212688.89340
  -3845342.37500  24133343.41200                  -2923082.32140  24133349.45940
  19163674.49100  24255572.27900                  14932732.38940  24255576.77940
   2030662.40100  23226258.34200                   1582338.83540  23226262.88940
 96  9  3  2  7 30.0060000  0  6 14 15 18 22 25 29
   -142147.50200  22434991.68600                    -77778.17740  22434997.01840
  21817157.61300  24792303.00600                  16970356.43740  24792309.46340
   -424688.47500  26209229.11500                   -237269.84840  26209237.22840
  -3856506.09300  24131218.81100                  -2931781.28440  24131224.45940
  19304072.98300  24282288.99800                  15042133.81740  24282293.89640
   2061066.02500  23232044.01400                   1606029.97940  23232048.65440
 96  9  3  2  8  0.0060000  0  6 14 15 18 22 25 29
   -109216.81600  22441258.32600                    -52117.90040  22441263.58840
  21975597.60600  24822453.06800                  17093816.15240  24822459.25640
   -442787.94600  26205785.18600                   -251373.27040  26205793.10040
  -3867271.35000  24129170.56100                  -2940169.74040  24129176.39640
  19444742.52500  24309057.77100                  15151746.44440  24309062.85740
   2091670.68300  23237867.87300                   1629877.76840  23237872.38540
 96  9  3  2  8 30.0070000  0  6 14 15 18 22 25 29
    -75786.45500  22447619.90900                    -26068.25340  22447625.24140
  22134299.02400  24852652.49500                  17217479.56440  24852659.08140
   -460832.35000  26202351.65100                   -265433.75840  26202356.64440
  -3877634.90000  24127198.17500                  -2948245.18640  24127204.31540
  19585699.16900  24335881.07300                  15261582.78440  24335885.52640
   2122505.62400  23243735.67500                   1653905.00540  23243740.11640
 96  9  3  2  9  0.0070000  0  6 14 15 18 22 25 29
    -41872.77500  22454073.44800                       357.99540  22454078.67540
  22293240.80500  24882898.26900                  17341330.26640  24882904.35140
   -478829.72000  26198927.02600                   -279457.63340  26198932.42940
  -3887599.23100  24125301.76900                  -2956009.56340  24125307.61640
  19726922.91700  24362755.19800                  15371627.26040  24362760.12040
   2153573.76700  23249647.68300                   1678113.95440  23249652.28840
 96  9  3  2  9 30.0070000  0  6 14 15 18 22 25 29
     -7482.45500  22460617.78400                     27155.65240  22460623.03440
  22452422.76800  24913189.82300                  17465368.13040  24913196.26940
   -496763.64200  26195514.33100                   -293432.08440  26195520.20240
  -3897165.43800  24123481.60400                  -2963463.70640  24123487.21840
  19868399.17100  24389677.67500                  15481868.48740  24389682.19840
   2184876.76200  23255604.45600                   1702505.90440  23255608.78040
 96  9  3  2 10  0.0070000  0  6 14 15 18 22 25 29
     27392.25100  22467254.07300                     54330.75740  22467259.41740
  22611839.13600  24943526.15900                  17589588.62140  24943531.77240
   -514623.83900  26192114.93300                   -307349.08240  26192121.74140
  -3906326.71600  24121737.91700                  -2970602.32140  24121743.77640
  20010105.28300  24416642.79200                  15592288.82940  24416647.67940
   2216387.70100  23261600.84700                   1727059.89640  23261605.19440
 96  9  3  2 10 30.0070000  0  6 14 15 18 22 25 29
     62742.76500  22473980.88600                     81876.62140  22473986.22940
  22771478.32300  24973904.58100                  17713982.76540  24973911.21440
   -532420.37200  26188728.85400                   -321216.45740  26188736.40540
  -3915089.28800  24120070.63600                  -2977430.25840  24120075.99140
  20152020.72800  24443648.28400                  15702872.29040  24443653.27640
   2248073.30400  23267630.51900                   1751749.98640  23267634.94840
 96  9  3  2 11  0.0070000  0  6 14 15 18 22 25 29
     98569.82200  22480798.59700                    109793.81840  22480803.97640
  22931342.28300  25004325.48700                  17838552.07240  25004331.90940
   -550145.87300  26185354.94800                   -335028.45740  26185361.26540
  -3923442.82500  24118480.76100                  -2983939.44440  24118486.23340
  20294147.78800  24470694.48700                  15813620.64440  24470698.74140
   2279925.38800  23273691.64400                   1776569.80440  23273696.23740
 96  9  3  2 11 30.0070000  0  6 14 15 18 22 25 29
    134898.42900  22487711.82300                    138101.82640  22487717.03840
  23091436.84300  25034790.45600                  17963301.05040  25034797.60840
   -567785.79700  26181998.85400                   -348773.80540  26182004.46840
  -3931380.18000  24116970.22900                  -2990124.35140  24116976.13640
  20436499.69800  24497783.44000                  15924544.20640  24497788.33940
   2311955.15700  23279786.64400                   1801528.07940  23279791.01540
 96  9  3  2 12  0.0070000  0  6 14 15 18 22 25 29
    171722.94000  22494719.36200                    166796.25340  22494724.54240
  23251748.03100  25065296.25300                  18088218.82340  25065302.65140
   -585361.47500  26178654.01900                   -362469.05840  26178659.96040
  -3938903.95800  24115538.73700                  -2995986.99240  24115544.44440
  20579076.69000  24524914.46400                  16035643.15840  24524919.25740
   2344151.63600  23285913.42500                   1826616.25740  23285917.83140
 96  9  3  2 12 30.0070000  0  6 14 15 18 22 25 29
    209042.26600  22501821.08100                    195876.25340  22501826.35440
  23412280.63400  25095844.44800                  18213309.13840  25095850.58940
   -602869.73900  26175322.05800                   -376111.78940  26175328.26940
  -3945995.48500  24114189.08900                  -3001512.82040  24114194.52640
  20721902.45600  24552092.72200                  16146935.96040  24552097.51540
   2376524.83000  23292073.95600                   1851842.13640  23292078.46840
 96  9  3  2 13  0.0070000  0  6 14 15 18 22 25 29
    246842.13400  22509013.79200                    225330.69840  22509019.00740
  23573022.52700  25126432.90100                  18338562.50640  25126439.92540
   -620315.87600  26172002.58900                   -389706.10840  26172008.94040
  -3952657.32800  24112921.94800                  -3006703.81640  24112927.60840
  20864976.49900  24579319.51100                  16258422.23040  24579323.76540
   2409074.42500  23298267.86200                   1877205.47240  23298272.36240
 96  9  3  2 13 30.0070000  0  6 14 15 18 22 25 29
    285127.09500  22516299.52600                    255163.14440  22516304.78840
  23733973.46500  25157061.48700                  18463978.78440  25157067.82740
   -637703.36400  26168693.93300                   -403254.73640  26168701.17940
  -3958877.94600  24111737.58100                  -3011551.01640  24111743.49940
  21008292.47100  24606591.51100                  16370096.99540  24606595.67140
   2441807.42300  23304496.61200                   1902711.72240  23304500.94840
 96  9  3  2 14  0.0070000  0  6 14 15 18 22 25 29
    323898.02600  22523677.10400                    285374.26240  22523682.41340
  23895141.15300  25187729.97200                  18589563.97840  25187735.99540
   -655026.15800  26165397.12800                   -416752.91240  26165403.17540
  -3964646.82300  24110640.29200                  -3016046.19840  24110645.72940
  21151853.07600  24633909.85400                  16481962.41340  24633914.91740
   2474731.04000  23310761.77600                   1928366.50240  23310766.07740
 96  9  3  2 14 30.0070000  0  6 14 15 18 22 25 29
    363158.54700  22531148.33100                    315966.88240  22531153.53440
  24056524.89000  25218440.24500                  18715317.49140  25218446.63240
   -672285.24700  26162113.33900                   -430201.50540  26162119.08140
  -3969973.79400  24109626.40900                  -3020197.04640  24109632.21040
  21295646.65700  24661273.21400                  16594009.35140  24661277.90140
   2507853.01200  23317064.98700                   1954175.84940  23317069.28840
 96  9  3  2 15  0.0070000  0  6 14 15 18 22 25 29
    402903.35000  22538711.43300                    346936.85740  22538716.67140
  24218105.57600  25249188.92500                  18841224.48740  25249195.42940
   -689496.17900  26158837.87800                   -443612.55740  26158842.94040
  -3974883.28600  24108691.79200                  -3024022.58440  24108697.42940
  21439642.86500  24688675.26100                  16706214.18240  24688679.51540
   2541168.43200  23323404.30800                   1980135.93340  23323408.73740
 96  9  3  2 15 30.0070000  0  6 14 15 18 22 25 29
    443149.95500  22546369.99500                    378297.84940  22546375.23340
  24379885.03200  25279974.35400                  18967286.37040  25279980.09740
   -706653.24200  26155573.00300                   -456981.61540  26155579.06140
  -3979377.65800  24107836.74500                  -3027524.66440  24107842.33540
  21583830.15700  24716112.96400                  16818567.91040  24716116.99540
   2574676.06800  23329780.92500                   2006245.79240  23329785.35440
 96  9  3  2 16  0.0070000  0  6 14 15 18 22 25 29
    483899.52200  22554124.66700                    410050.75840  22554129.87040
  24541851.82600  25310795.64400                  19093494.22340  25310802.14740
   -723748.78300  26152319.34700                   -470302.76640  26152324.60840
  -3983473.50300  24107057.04200                  -3030716.18540  24107062.65540
  21728211.68100  24743587.43300                  16931072.99040  24743592.36640
   2608370.07000  23336192.57300                   2032500.87440  23336196.80440
 96  9  3  2 16 30.0070000  0  6 14 15 18 22 25 29
    525163.74500  22561976.83900                    442204.70040  22561982.07740
  24704005.87800  25341651.93300                  19219847.98940  25341658.51940
   -740780.36000  26149078.83900                   -483574.04440  26149085.47240
  -3987156.24600  24106356.69000                  -3033585.82340  24106362.45640
  21872806.78500  24771102.87800                  17043744.49440  24771108.10440
   2642250.17200  23342639.63600                   2058900.97140  23342643.87840
 96  9  3  2 17  0.0070000  0  6 14 15 18 22 25 29
    566953.33900  22569929.02600                    474768.02040  22569934.22940
  24866344.62300  25372544.01900                  19346345.68340  25372550.28840
   -757746.41300  26145850.50300                   -496794.29740  26145856.28040
  -3990404.03400  24105738.33900                  -3036116.53240  24105744.10440
  22017624.22600  24798661.05800                  17156589.24540  24798665.15940
   2676309.03900  23349120.72200                   2085440.36140  23349125.22240
 96  9  3  2 17 30.0070000  0  6 14 15 18 22 25 29
    609282.39800  22577984.08900                    507751.70140  22577989.32740
  25028877.03500  25403472.83900                  19472994.27340  25403478.26540
   -774627.93600  26142637.24500                   -509948.66440  26142643.37440
  -3993189.85800  24105208.34700                  -3038287.27240  24105213.96040
  22162675.26600  24826263.27600                  17269616.02640  24826267.71840
   2710555.35900  23355637.60400                   2112125.82040  23355641.95240
 96  9  3  2 18  0.0070000  0  6 14 15 18 22 25 29
    652134.57100  22586138.50300                    541143.01040  22586143.84740
  25191585.34400  25434435.58100                  19599779.94240  25434441.42940
   -791444.70300  26139437.34700                   -523052.58740  26139443.14740
  -3995506.37300  24104767.39400                  -3040092.31140  24104773.25340
  22307958.29500  24853909.62000                  17382823.58340  24853914.23740
   2744974.11700  23362187.28400                   2138945.64940  23362191.64440
 96  9  3  2 18 30.0070000  0  6 14 15 18 22 25 29
    695506.91000  22594392.26900                    574939.63840  22594397.42540
  25354467.09500  25465430.90100                  19726700.75540  25465438.14740
   -808204.46700  26136248.30800                   -536112.09840  26136253.96840
  -3997340.76600  24104418.37000                  -3041521.67140  24104423.85440
  22453452.32300  24881596.43300                  17496195.54340  24881600.90940
   2779558.19900  23368768.38600                   2165894.30240  23368772.79240
 96  9  3  2 19  0.0070000  0  6 14 15 18 22 25 29
    739416.73000  22602747.79200                    609155.08340  22602753.00740
  25517535.04300  25496461.86200                  19853766.66540  25496468.80440
   -824886.24000  26133073.33900                   -549110.83640  26133078.99940
  -3998678.98000  24104163.83100                  -3042564.39540  24104169.22240
  22599146.30000  24909320.39400                  17609723.31440  24909325.15140
   2814334.29700  23375386.04200                   2192992.57540  23375390.36640
 96  9  3  2 19 30.0070000  0  6 14 15 18 22 25 29
    783843.92000  22611202.10400                    643773.67640  22611207.41340
  25680772.34400  25527524.83900                  19980964.50240  25527531.86240
   -841494.09200  26129912.77600                   -562051.97540  26129918.63640
  -3999544.20800  24103998.58900                  -3043238.56040  24104003.92140
  22745023.35500  24937081.32300                  17723393.74540  24937085.75340
   2849292.17100  23382038.21400                   2220232.49240  23382042.55040
 96  9  3  2 20  0.0070000  0  6 14 15 18 22 25 29
    828779.19900  22619752.97200                    678788.18440  22619758.24540
  25844169.39700  25558618.46400                  20108286.85340  25558624.65140
   -858050.24000  26126762.66700                   -574952.83240  26126768.92540
  -3999946.94100  24103922.40900                  -3043552.33540  24103928.46840
  22891085.10000  24964874.47200                  17837208.09740  24964879.25340
   2884424.40200  23388723.85400                   2247608.27040  23388728.03840
 96  9  3  2 20 30.0080000  0  6 14 15 18 22 25 29
    874225.37800  22628401.09400                    714200.79440  22628406.43740
  26007733.57600  25589744.10900                  20235739.43440  25589750.25040
   -874554.93000  26123621.82000                   -587813.58640  26123626.97740
  -3999892.10700  24103932.43000                  -3043509.56940  24103938.24240
  23037332.05000  24992704.92200                  17951166.75140  24992709.66840
   2919760.71600  23395447.99200                   2275143.07540  23395452.37540
 96  9  3  2 21  0.0080000  0  6 14 15 18 22 25 29
    920175.74700  22637144.94500                    750006.28240  22637150.38340
  26171442.30000  25620896.65600                  20363304.62540  25620903.07840
   -891013.14700  26120490.00800                   -600638.14440  26120494.74240
  -3999396.94900  24104027.32000                  -3043123.70140  24104032.69940
  23183760.54300  25020569.10200                  18065266.89640  25020573.88340
   2955298.39700  23402210.71900                   2302834.78940  23402215.05540
 96  9  3  2 21 30.0080000  0  6 14 15 18 22 25 29
    966627.96600  22645984.73400                    786202.82040  22645990.01940
  26335305.26300  25652078.19500                  20490990.03240  25652085.26640
   -907426.64600  26117366.63300                   -613427.84340  26117372.46940
  -3998460.57800  24104205.21100                  -3042394.02240  24104210.78940
  23330396.55300  25048472.94500                  18179528.72440  25048477.50440
   2991031.06600  23409010.25800                   2330678.44240  23409014.47740
 96  9  3  2 22  0.0080000  0  6 14 15 18 22 25 29
   1013570.47300  22654917.39100                    822781.40340  22654922.60540
  26499310.53800  25683288.03900                  20618786.32240  25683294.16840
   -923813.15800  26114247.96100                   -626196.51340  26114253.97340
  -3997087.27400  24104466.36700                  -3041323.87740  24104471.66440
  23477219.85100  25076412.75000                  18293936.48340  25076417.39140
   3026950.63100  23415845.43700                   2358667.72640  23415849.75040
 96  9  3  2 22 30.0080000  0  6 14 15 18 22 25 29
   1061020.62400  22663946.98400                    859755.55240  22663952.21140
  26663462.16100  25714524.68700                  20746696.64940  25714531.20340
   -940142.01800  26111141.07000                   -638920.28440  26111146.75440
  -3995264.33200  24104813.24200                  -3039903.37040  24104818.90240
  23624224.15700  25104387.39800                  18408485.29940  25104391.78140
   3063060.01800  23422716.95300                   2386804.92140  23422721.39440
 96  9  3  2 23  0.0080000  0  6 14 15 18 22 25 29
   1108983.93600  22673074.03100                    897129.56840  22673079.34040
  26827749.34300  25745787.43700                  20874712.61540  25745794.25840
   -956403.80700  26108046.29700                   -651591.76740  26108052.09840
  -3992998.95800  24105243.99200                  -3038138.10640  24105250.05140
  23771401.30600  25132393.64800                  18523168.79740  25132398.48840
   3099324.30500  23429618.01600                   2415062.82040  23429622.24640
 96  9  3  2 23 30.0080000  0  6 14 15 18 22 25 29
   1157471.05700  22682301.05500                    934911.74540  22682306.19940
  26992178.75300  25777077.20300                  21002839.39040  25777082.96940
   -972590.89600  26104966.39800                   -664205.06240  26104971.87140
  -3990260.71000  24105765.46900                  -3036004.37840  24105770.91840
  23918759.75300  25160435.59400                  18637993.57240  25160440.26940
   3135749.05500  23436549.28900                   2443445.75240  23436553.49640
 96  9  3  2 24  0.0080000  0  6 14 15 18 22 25 29
   1206491.35700  22691629.12500                    973109.38940  22691634.35240
  27156736.54900  25808391.46100                  21131066.20740  25808397.60240
   -988698.87700  26101900.96100                   -676756.71640  26101906.64440
  -3987047.67100  24106376.64800                  -3033500.66740  24106382.00440
  24066278.60000  25188506.91400                  18752943.31140  25188512.01240
   3172342.79900  23443512.85900                   2471960.36840  23443517.30140
 96  9  3  2 24 30.0080000  0  6 14 15 18 22 25 29
   1256050.42600  22701060.07800                   1011726.85340  22701065.26940
  27321415.46200  25839729.25000                  21259387.39340  25839735.70740
  -1004738.16500  26098848.29700                   -689254.84240  26098854.12140
  -3983365.66200  24107077.43000                  -3030631.53140  24107083.28940
  24213965.42600  25216611.49200                  18868023.97340  25216616.37940
   3209108.32200  23450509.01600                   2500608.83440  23450513.42240
 96  9  3  2 25  0.0080000  0  6 14 15 18 22 25 29
   1306132.74600  22710590.28100                   1050752.04540  22710595.53140
  27486213.36000  25871088.71100                  21387801.26540  25871095.18040
  -1020723.59600  26095806.94500                   -701711.02040  26095812.25440
  -3979207.24000  24107868.53900                  -3027391.17940  24107874.07040
  24361827.25000  25244747.92200                  18983240.96740  25244752.52740
   3246051.20900  23457539.04700                   2529395.51140  23457543.45340
 96  9  3  2 25 30.0080000  0  6 14 15 18 22 25 29
   1356732.68600  22720219.12500                   1090180.57840  22720224.48040
  27651125.27400  25902471.12500                  21516304.02840  25902478.09040
  -1036673.66400  26092771.62500                   -714139.64540  26092776.72340
  -3974557.70600  24108753.50000                  -3023768.13240  24108759.18440
  24509861.17600  25272917.93700                  19098592.09140  25272922.10940
   3283186.16500  23464605.46100                   2558331.85440  23464609.71540
 96  9  3  2 26  0.0080000  0  6 14 15 18 22 25 29
   1407840.68700  22729944.38300                   1130005.00040  22729949.70340
  27816137.50800  25933871.94500                  21644884.95640  25933879.15640
  -1052606.59400  26089739.32800                   -726554.91240  26089744.84840
  -3969425.99700  24109730.11700                  -3019769.36840  24109735.78940
  24658044.27300  25301115.78100                  19214059.45840  25301119.98840
   3320508.25900  23471707.72700                   2587414.01040  23471711.98040
 96  9  3  2 26 30.0080000  0  6 14 15 18 22 25 29
   1459453.13400  22739766.10900                   1170222.50040  22739771.26640
  27981253.32100  25965291.97700                  21773546.60340  25965300.58240
  -1068524.07100  26086710.90600                   -738958.10740  26086716.97740
  -3963793.98500  24110801.60200                  -3015380.75240  24110807.40240
  24806389.48000  25329345.52300                  19329653.10840  25329349.61340
   3358016.39300  23478845.39800                   2616641.13340  23478849.66440
 96  9  3  2 27  0.0080000  0  6 14 15 18 22 25 29
   1511576.06700  22749684.88300                   1210837.77840  22749690.12140
  28146475.33400  25996732.11700                  21902291.00040  25996739.82040
  -1084402.50400  26083689.07000                   -751330.89440  26083694.47340
  -3957645.53900  24111971.35900                  -3010589.72540  24111977.13740
  24954888.65000  25357604.43000                  19445366.75340  25357609.38740
   3395703.09800  23486016.92200                   2646007.40340  23486021.17640
 96  9  3  2 27 30.0080000  0  6 14 15 18 22 25 29
   1564216.71600  22759701.99200                   1251856.47440  22759707.27740
  28311799.81000  26028193.28900                  22031115.22640  26028200.33640
  -1100234.41500  26080675.53900                   -763667.42540  26080681.25840
  -3950991.85800  24113237.83600                  -3005405.00340  24113243.39140
  25103534.67300  25385890.33600                  19561194.82840  25385895.19940
   3433569.68700  23493222.60900                   2675513.84140  23493227.02740
 96  9  3  2 28  0.0080000  0  6 14 15 18 22 25 29
   1617367.84900  22769816.51600                   1293272.94840  22769821.66040
  28477220.10000  26059671.51600                  22160014.11140  26059677.87940
  -1116005.92900  26077674.64100                   -775956.88640  26077680.28940
  -3943849.09700  24114596.87500                  -2999839.18040  24114602.34840
  25252316.21800  25414202.07800                  19677128.49240  25414205.99240
   3471607.79000  23500460.89800                   2705153.92740  23500465.30540
 96  9  3  2 28 30.0080000  0  6 14 15 18 22 25 29
   1671027.62000  22780027.59400                   1335085.76340  22780032.78540
  28642734.48200  26091167.68700                  22288986.32240  26091175.47340
  -1131701.14100  26074688.05500                   -788186.91740  26074694.57040
  -3936227.74700  24116047.30500                  -2993900.42840  24116052.70740
  25401241.69200  25442542.32000                  19793174.30740  25442547.40640
   3509815.64700  23507731.57000                   2734926.29140  23507735.82440
 96  9  3  2 29  0.0080000  0  6 14 15 18 22 25 29
   1725207.72000  22790337.47700                   1377304.02440  22790342.70340
  28808344.63700  26122682.08600                  22418033.14040  26122688.53140
  -1147309.46200  26071718.18700                   -800349.21540  26071724.01240
  -3928138.90400  24117586.53900                  -2987597.40440  24117591.97740
  25550318.92300  25470910.45300                  19909338.38340  25470915.12940
   3548199.66400  23515035.86700                   2764835.92340  23515040.02740
 96  9  3  2 29 30.0080000  0  6 14 15 18 22 25 29
   1779899.83200  22800745.07800                   1419921.25940  22800750.38740
  28974033.74300  26154212.92200                  22547141.49240  26154220.00440
  -1162847.84200  26068761.71100                   -812456.98740  26068766.93740
  -3919600.03100  24119211.50000                  -2980943.69840  24119217.09040
  25699539.35300  25499306.46900                  20025614.05140  25499310.87540
   3586771.92900  23522376.05500                   2794892.24340  23522380.34440
 96  9  3  2 30  0.0080000  0  6 14 15 18 22 25 29
   1835113.82000  22811251.96100                   1462945.15540  22811257.21140
  29139799.80500  26185756.67200                  22676309.78840  26185762.81240
  -1178316.40800  26065817.59400                   -824510.34440  26065823.98040
  -3910597.92900  24120924.28900                  -2973929.03540  24120930.20740
  25848900.27000  25527728.63300                  20141999.17440  25527733.73040
   3625534.73300  23529752.23400                   2825097.03140  23529756.55940
 96  9  3  2 30 30.0080000  0  6 14 15 18 22 25 29
   1890853.29900  22821858.82800                   1506378.51640  22821864.09040
  29305634.00000  26217313.69500                  22805531.22540  26217319.23840
  -1193737.97400  26062882.34400                   -836527.10240  26062888.53140
  -3901137.23900  24122724.57800                  -2966557.02640  24122730.02740
  25998400.45100  25556177.72700                  20258492.82640  25556181.86340
   3664487.82900  23537164.75800                   2855450.10040  23537169.08240
 96  9  3  2 31  0.0080000  0  6 14 15 18 22 25 29
   1947136.38500  22832569.28100                   1550235.47140  22832574.57840
  29471540.34100  26248885.13300                  22934808.82640  26248891.39140
  -1209119.06100  26059955.62500                   -848512.29040  26059961.64840
  -3891204.30000  24124614.93000                  -2958817.04040  24124620.82440
  26148027.25000  25584650.87500                  20375085.10940  25584656.07840
   3703639.91400  23544615.10200                   2885958.22940  23544619.42640
 96  9  3  2 31 30.0080000  0  6 14 15 18 22 25 29
   2003965.01400  22843383.09400                   1594517.52440  22843388.19140
  29637528.65500  26280471.71100                  23064150.33440  26280479.09840
  -1224456.04600  26057037.42200                   -860463.14440  26057042.28540
  -3880762.98900  24126601.44500                  -2950680.91440  24126607.16440
  26297771.74700  25613145.50000                  20491769.16540  25613149.61340
   3742987.33400  23552102.83600                   2916618.56740  23552106.97340
 96  9  3  2 32  0.0080000  0  6 14 15 18 22 25 29
   2061309.85900  22854295.78100                   1639201.82240  22854301.05540
  29803577.85400  26312069.82800                  23193539.29740  26312076.19140
  -1239787.07800  26054119.85900                   -872409.35540  26054124.54740
  -3869823.62200  24128682.78100                  -2942156.70140  24128688.32440
  26447615.10600  25641660.08600                  20608530.21240  25641664.82040
   3782482.76400  23559618.49200                   2947394.23740  23559622.84040
 96  9  3  2 32 30.0080000  0  6 14 15 18 22 25 29
   2119172.76500  22865306.56200                   1684289.80640  22865311.82440
  29969686.83500  26343679.14800                  23322974.80640  26343686.64140
  -1255111.36600  26051203.82000                   -884350.29440  26051209.21140
  -3858377.30600  24130861.32000                  -2933237.44840  24130866.65240
  26597555.15900  25670192.68700                  20725366.63040  25670197.01240
   3822122.08600  23567161.71100                   2978282.03840  23567165.95340
 96  9  3  2 33  0.0090000  0  6 14 15 18 22 25 29
   2177555.42100  22876416.53600                   1729782.79040  22876421.79840
  30135860.79700  26375301.00500                  23452460.94740  26375309.07140
  -1270412.70600  26048292.46600                   -896273.36040  26048298.53640
  -3846400.51100  24133140.61400                  -2923904.83540  24133146.15740
  26747603.81600  25698746.43500                  20842287.64840  25698751.43840
   3861899.84500  23574730.91900                   3009277.70040  23574735.16140
 96  9  3  2 33 30.0090000  0  6 14 15 18 22 25 29
   2236460.57600  22887625.74700                   1775682.91440  22887630.93840
  30302098.39300  26406934.66100                  23581996.68240  26406941.01340
  -1285672.56800  26045388.07500                   -908164.10640  26045394.67340
  -3833881.59600  24135522.79400                  -2914149.79940  24135528.25540
  26897784.37600  25727324.56000                  20959311.47940  25727329.47040
   3901837.05900  23582330.76300                   3040397.62140  23582334.98140
 96  9  3  2 34  0.0090000  0  6 14 15 18 22 25 29
   2295905.14800  22898937.73900                   1822003.36540  22898942.84940
  30468393.46900  26438580.02800                  23711577.24340  26438586.68540
  -1300889.17500  26042492.06000                   -920021.15040  26042497.25140
  -3820838.15200  24138004.91100                  -2903986.04040  24138010.61840
  27048111.03900  25755930.43500                  21076449.14840  25755934.98140
   3941948.72800  23589963.86400                   3071653.47640  23589968.01340
 96  9  3  2 34 30.0090000  0  6 14 15 18 22 25 29
   2355900.81400  22910354.48900                   1868753.24140  22910359.58740
  30634741.67500  26470234.50500                  23841199.11540  26470240.89240
  -1316038.38000  26039609.42700                   -931825.66340  26039615.96640
  -3807276.69300  24140585.58300                  -2893418.63440  24140590.78640
  27198588.14600  25784565.49700                  21193704.03640  25784569.76340
   3982250.05400  23597632.99700                   3103057.11740  23597637.33340
 96  9  3  2 35  0.0090000  0  6 14 15 18 22 25 29
   2416438.05200  22921874.33300                   1915925.12240  22921879.50140
  30801137.57000  26501898.35600                  23970858.24140  26501905.18840
  -1331118.92300  26036739.78600                   -943576.68940  26036745.70440
  -3793210.46200  24143262.19200                  -2882457.90040  24143267.39540
  27349220.95600  25813230.09900                  21311080.27140  25813233.74340
   4022758.00900  23605341.45800                   3134621.76840  23605345.61840
 96  9  3  2 35 30.0090000  0  6 14 15 18 22 25 29
   2477514.41200  22933496.73100                   1963517.09440  22933501.87640
  30967578.32500  26533571.59900                  24100552.27540  26533577.57540
  -1346122.66700  26033884.48100                   -955267.87540  26033890.54040
  -3778646.42400  24146033.46600                  -2871109.25940  24146039.06740
  27499999.95400  25841922.52800                  21428570.39940  25841927.83740
   4063476.97400  23613089.73900                   3166350.84240  23613093.80640
 96  9  3  2 36  0.0090000  0  6 14 15 18 22 25 29
   2539132.56000  22945222.31700                   2011531.24040  22945227.57940
  31134063.83300  26565253.35600                  24230281.20140  26565260.70840
  -1361033.58000  26031047.19200                   -966886.70840  26031053.32140
  -3763571.67500  24148902.15300                  -2859362.67040  24148907.48540
  27650911.69300  25870639.61400                  21546163.96540  25870644.27840
   4104390.16900  23620875.30200                   3198231.26340  23620879.53240
 96  9  3  2 36 30.0090000  0  6 14 15 18 22 25 29
   2601284.19300  22957049.49700                   2059961.08640  22957054.61840
  31300601.14300  26596943.69200                  24360050.49240  26596950.32540
  -1375839.24000  26028229.17700                   -978423.51040  26028235.38840
  -3747971.70100  24151870.58300                  -2847206.80840  24151876.02040
  27801949.42500  25899381.55200                  21663855.70840  25899385.98140
   4145508.04400  23628699.80200                   3230271.17740  23628704.03240
 96  9  3  2 37  0.0090000  0  6 14 15 18 22 25 29
   2663942.34000  22968972.79400                   2108785.62140  22968977.95040
  31467175.08600  26628641.82500                  24489848.30140  26628648.09540
  -1390559.91100  26025428.17700                   -989894.10840  26025433.55640
  -3731839.41400  24154940.92700                  -2834636.16440  24154946.15340
  27953089.24600  25928142.74700                  21781626.99540  25928147.45840
   4186799.82000  23636557.33300                   3262446.59740  23636561.63440
 96  9  3  2 37 30.0090000  0  6 14 15 18 22 25 29
   2727101.02300  22980991.48100                   2158000.18240  22980996.55640
  31633771.27300  26660344.14500                  24619663.45040  26660349.60640
  -1405213.54000  26022640.06700                  -1001312.45540  26022646.04440
  -3715172.61700  24158111.54400                  -2821649.01740  24158117.36840
  28104310.69000  25956919.23100                  21899461.87540  25956922.81740
   4228232.60800  23644441.98900                   3294731.89840  23644446.20840
 96  9  3  2 38  0.0090000  0  6 14 15 18 22 25 29
   2790779.81300  22993109.12200                   2207620.02840  22993114.43140
  31800399.77900  26692052.50500                  24749503.80940  26692057.01740
  -1419811.61800  26019861.41900                  -1012687.55240  26019867.57140
  -3697952.97200  24161388.86400                  -2808231.08340  24161394.25540
  28255628.45200  25985713.44200                  22017371.81340  25985718.31740
   4269823.61900  23652356.14500                   3327140.49140  23652360.37640
 96  9  3  2 38 30.0090000  0  6 14 15 18 22 25 29
   2854984.29200  23005326.83300                   2257649.49540  23005332.13040
  31967055.01500  26723766.19200                  24879364.94440  26723774.08340
  -1434377.64900  26017090.76300                  -1024037.63640  26017097.39540
  -3680188.09300  24164769.34900                  -2794388.29140  24164774.54040
  28407045.23300  26014527.49700                  22135358.93940  26014532.61840
   4311575.13500  23660301.17700                   3359674.15540  23660305.48940
 96  9  3  2 39  0.0090000  0  6 14 15 18 22 25 29
   2919734.98700  23017648.47400                   2308104.58740  23017653.74740
  32133741.42400  26755485.84900                  25009250.38840  26755491.09940
  -1448917.79500  26014322.86400                  -1035367.53040  26014328.31340
  -3661869.94100  24168255.42700                  -2780114.37940  24168260.75940
  28558573.76700  26043361.51300                  22253433.14340  26043367.60640
   4353491.61000  23668277.88800                   3392336.35440  23668282.04840
 96  9  3  2 39 30.0090000  0  6 14 15 18 22 25 29
   2985030.26400  23030073.66900                   2358984.02640  23030078.90740
  32300438.92500  26787207.36400                  25139144.48240  26787213.45840
  -1463448.25200  26011558.24700                  -1046689.90640  26011563.82540
  -3643033.99000  24171839.37200                  -2765436.98840  24171844.65740
  28710194.05400  26072215.39500                  22371578.79640  26072221.40740
   4395586.68700  23676288.20800                   3425137.72540  23676292.36840
 96  9  3  2 40  0.0090000  0  6 14 15 18 22 25 29
   3050878.74800  23042604.27800                   2410294.53640  23042609.37640
  32467152.38500  26818931.79400                  25269051.05140  26818941.29040
  -1477945.68800  26008798.81000                  -1057986.54440  26008804.28240
  -3623681.48500  24175522.26300                  -2750357.08240  24175527.72440
  28861913.24800  26101084.95000                  22489801.55440  26101090.50540
   4437871.94400  23684334.83300                   3458087.29140  23684339.09940
 96  9  3  2 40 30.0090000  0  6 14 15 18 22 25 29
   3117275.23400  23055239.22400                   2462032.06340  23055244.39240
  32633877.24900  26850657.84100                  25398966.43740  26850665.59140
  -1492380.43300  26006052.56700                  -1069234.34040  26006057.79440
  -3603812.58100  24179303.19200                  -2734874.79940  24179308.33740
  29013720.43500  26129974.23100                  22608092.86140  26129978.47440
   4480351.52100  23692418.28600                   3491188.27840  23692422.52840
 96  9  3  2 41  0.0090000  0  7  4 14 15 18 22 25 29
        -0.83910  27653178.94200
   3184204.94600  23067975.36400                   2514185.08440  23067980.56740
  32800607.06300  26882385.92700                  25528885.69340  26882394.72040
  -1506742.54500  26003318.81000                  -1080425.55240  26003325.19640
  -3583421.08400  24183183.41100                  -2718985.29040  24183188.43840
  29165607.34600  26158877.39500                  22726446.31640  26158881.25140
   4523041.14500  23700541.63800                   3524452.93540  23700545.93840
 96  9  3  2 41 30.0090000  0  7  4 14 15 18 22 25 29
     22073.88000  27657378.92700
   3251678.85300  23080815.20000                   2566762.16040  23080820.36840
  32967352.37900  26914116.77000                  25658817.07840  26914123.70040
  -1521003.55900  26000605.48900                  -1091537.95340  26000610.59940
  -3562487.39400  24187167.09100                  -2702673.29340  24187172.31740
  29317593.54200  26187799.45000                  22844877.12040  26187803.69240
   4565946.01700  23708706.48900                   3557885.31840  23708710.70840
 96  9  3  2 42  0.0090000  0  7  4 14 15 18 22 25 29
     44605.72000  27661667.71600                     14654.30350  27661672.28640
   3319686.18900  23093756.85600                   2619754.88740  23093761.96640
  33134102.49900  26945847.38800                  25788752.15840  26945853.79840
  -1535167.53900  25997910.17700                  -1102574.78140  25997916.68140
  -3540997.72000  24191256.25500                  -2685928.06840  24191261.36440
  29469676.74400  26216739.73900                  22963383.52640  26216743.54840
   4609051.95900  23716909.24700                   3591474.37840  23716913.47740
 96  9  3  2 42 30.0090000  0  7  4 14 15 18 22 25 29
     67580.30200  27666039.06000                     32556.58640  27666045.38840
   3388223.48400  23106798.95800                   2673160.57740  23106804.05640
  33300846.78400  26977578.79400                  25918682.71940  26977584.66540
  -1549264.95300  25995227.23900                  -1113559.71440  25995232.25540
  -3518949.07700  24195451.99700                  -2668747.27540  24195457.17740
  29621853.23100  26245698.63000                  23081962.59940  26245702.69640
   4652367.03800  23725151.71600                   3625226.40040  23725155.85240
 96  9  3  2 43  0.0090000  0  7  4 14 15 18 22 25 29
     91004.85000  27670496.28600                     50809.49340  27670505.30240
   3457301.23200  23119943.97400                   2726987.39740  23119949.09540
  33467585.04600  27009308.29400                  26048608.57040  27009315.99740
  -1563309.57900  25992554.75500                  -1124503.55540  25992560.66140
  -3496337.09200  24199755.20000                  -2651127.51740  24199760.52040
  29774134.08100  26274675.03600                  23200623.02440  26274680.61440
   4695885.07800  23733432.89500                   3659136.58340  23733437.23140
 96  9  3  2 43 30.0090000  0  7  4 14 15 18 22 25 29
    114892.01700  27675042.05200                     69422.88540  27675046.86840
   3526929.61300  23133193.74700                   2781243.28240  23133199.02040
  33634317.88000  27041036.34100                  26178530.16340  27041043.54040
  -1577299.69500  25989892.46600                  -1135404.90240  25989898.26740
  -3473161.40300  24204164.97400                  -2633068.50640  24204170.43540
  29926522.74800  26303674.56000                  23319367.42040  26303679.44640
   4739596.36200  23741750.96600                   3693197.34340  23741755.05640
 96  9  3  2 44  0.0090000  0  7  4 14 15 18 22 25 29
    139266.82900  27679680.41100                     88416.22940  27679684.75940
   3597104.26800  23146547.31700                   2835924.83340  23146552.50940
  33801045.50400  27072762.88800                  26308447.71740  27072769.49740
  -1591248.91200  25987237.83300                  -1146274.38540  25987242.90740
  -3449423.41400  24208682.26300                  -2614571.34440  24208687.47740
  30079011.85600  26332691.90300                  23438190.11840  26332697.24740
   4783514.64200  23750108.11400                   3727419.39340  23750112.45040
 96  9  3  2 44 30.0090000  0  7  4 14 15 18 22 25 29
    164131.95500  27684412.01300                    107791.61040  27684419.44640
   3667826.23900  23160005.49700                   2891032.86440  23160010.73540
  33967759.88200  27104488.59100                  26438355.00440  27104495.79040
  -1605170.81600  25984588.87200                  -1157122.58240  25984594.61440
  -3425147.58100  24213301.84100                  -2595655.07740  24213306.82140
  30231593.82100  26361727.52000                  23557085.17240  26361732.43140
   4827616.84200  23758500.54400                   3761784.76040  23758504.78640
 96  9  3  2 45  0.0090000  0  7  4 14 15 18 22 25 29
    189510.06800  27689242.17700                    127566.77940  27689246.20840
   3739100.16100  23173568.49700                   2946570.99040  23173573.60640
  34134467.99700  27136211.82500                  26568257.34240  27136218.84940
  -1619038.46600  25981949.99700                  -1167928.51440  25981955.84540
  -3400327.49900  24218024.95800                  -2576314.72340  24218030.10240
  30384263.70600  26390779.27000                  23676048.70440  26390783.66540
   4871891.97600  23766925.89500                   3796284.87640  23766930.26740
 96  9  3  2 45 30.0100000  0  7  4 14 15 18 22 25 29
    215387.96900  27694165.57200                    147731.37240  27694170.13140
   3810911.06800  23187233.65800                   3002527.54040  23187238.79140
  34301156.91400  27167931.71300                  26698144.72440  27167938.63140
  -1632865.67300  25979318.79900                  -1178702.92740  25979324.03740
  -3374984.11600  24222847.43900                  -2556566.61040  24222852.45540
  30537001.52000  26419844.51800                  23795065.21740  26419848.31440
   4916327.44500  23775381.83000                   3830909.93240  23775386.13140
 96  9  3  2 46  0.0100000  0  7  4 14 15 18 22 25 29
    241787.53200  27699189.65800                    168302.45840  27699194.17040
   3883281.91800  23201005.47100                   3058920.41440  23201010.72140
  34467825.56600  27199648.20500                  26828016.32240  27199654.60340
  -1646639.51900  25976697.32200                  -1189435.76340  25976702.73640
  -3349103.50500  24227772.28300                  -2536399.87040  24227777.66240
  30689803.51500  26448921.15800                  23914131.70040  26448926.10340
   4960926.66600  23783868.40800                   3865662.58640  23783872.77940
 96  9  3  2 46 30.0100000  0  7  4 14 15 18 22 25 29
    268689.44600  27704309.01000                    189264.98740  27704314.35340
   3956223.32200  23214885.68900                   3115757.87740  23214890.88140
  34634473.03800  27231359.68200                  26957871.37940  27231366.20940
  -1660350.09500  25974088.38500                  -1200119.29440  25974094.50240
  -3322682.21900  24232800.11100                  -2515811.82940  24232805.53740
  30842665.34800  26478010.84600                  24033244.86140  26478015.24040
   5005675.39600  23792383.84600                   3900531.74240  23792388.10040
 96  9  3  2 47  0.0100000  0  7  4 14 15 18 22 25 29
    296084.62900  27709521.26000                    210611.87540  27709526.92040
   4029716.89800  23228871.06400                   3173025.60440  23228876.25640
  34801089.62300  27263065.28300                  27087702.42240  27263073.50240
  -1673994.10500  25971492.20500                  -1210750.97040  25971498.02940
  -3295707.09100  24237933.47100                  -2494792.21740  24237938.59240
  30995579.50100  26507108.91600                  24152398.71940  26507113.40440
   5050595.24500  23800931.89300                   3935534.23040  23800935.99440
 96  9  3  2 47 30.0100000  0  7  4 14 15 18 22 25 29
    323967.24700  27714828.93200                    232338.59440  27714833.85340
   4103780.45600  23242964.76800                   3230737.47140  23242969.95940
  34967686.50600  27294768.12700                  27217518.12440  27294775.42040
  -1687567.74000  25968909.10300                  -1221327.80440  25968914.62340
  -3268166.53200  24243174.33800                  -2473332.01740  24243179.42440
  31148574.03400  26536223.07200                  24271615.20640  26536226.15440
   5095718.31800  23809518.58000                   3970695.08240  23809522.78740
 96  9  3  2 48  0.0100000  0  7  4 14 15 18 22 25 29
    352330.29200  27720224.62700                    254439.68540  27720229.68940
   4178419.41700  23257168.28300                   3288897.70740  23257173.47540
  35134264.35500  27326466.60300                  27347318.95740  27326472.81440
  -1701062.17200  25966341.18200                  -1231842.90340  25966346.33840
  -3240052.23300  24248524.32200                  -2451424.74540  24248529.44340
  31301653.63700  26565353.26000                  24390898.05040  26565358.06440
   5141047.26800  23818144.47100                   4006016.35140  23818148.46740
 96  9  3  2 48 30.0100000  0  7  4 14 15 18 22 25 29
    381167.53000  27725712.57200                    276910.34740  27725715.45540
   4253610.58200  23271476.47800                   3347488.22740  23271481.68240
  35300820.90600  27358162.11100                  27477103.19940  27358169.47540
  -1714465.53300  25963790.68900                  -1242287.06140  25963795.77540
  -3211356.24100  24253984.77500                  -2429064.20940  24253989.74440
  31454822.10900  26594499.51000                  24510250.09440  26594503.90440
   5186598.97600  23826812.63500                   4041511.20440  23826816.72540
 96  9  3  2 49  0.0100000  0  7  4 14 15 18 22 25 29
    410484.59600  27731291.41600
   4329346.25600  23285888.56400                   3406503.04340  23285893.77940
  35467341.55600  27389849.61900                  27606859.45740  27389857.04140
  -1727787.49000  25961255.66600                  -1252667.75740  25961261.32640
  -3182089.09000  24259553.91600                  -2406258.61140  24259559.06040
  31608068.53700  26623661.61900                  24629662.89940  26623667.54940
   5232364.70900  23835521.79900                   4077172.82640  23835525.92440
 96  9  3  2 49 30.0100000  0  7  4 14 15 18 22 25 29
    440292.78100  27736964.92400
   4405638.77000  23300406.53300                   3465951.76140  23300411.61940
  35633823.55000  27421530.77500                  27736585.57540  27421538.25640
  -1741034.42800  25958734.33000                  -1262989.99340  25958740.24840
  -3152244.67900  24265233.00200                  -2383003.19740  24265238.15840
  31761385.36400  26652836.97800                  24749130.53840  26652841.87740
   5278311.19300  23844264.71300                   4112975.29640  23844268.92040
 96  9  3  2 50  0.0100000  0  7  4 14 15 18 22 25 29
    470618.64800  27742735.04900
   4482493.45300  23315031.47100                   3525838.53340  23315036.51040
  35800268.38800  27453203.46300                  27866282.82540  27453209.63940
  -1754192.76800  25956230.40800                  -1273243.19540  25956235.71740
  -3121798.43800  24271026.87700                  -2359278.83340  24271031.90440
  31914762.29300  26682024.23600                  24868645.03940  26682027.40040
   5324436.25300  23853041.96300                   4148916.91440  23853046.07640
 96  9  3  2 50 30.0100000  0  7  4 14 15 18 22 25 29
    501470.82300  27748605.22800
   4559900.43700  23329761.52500                   3586155.66640  23329766.70540
  35966665.61600  27484868.45500                  27995942.88540  27484874.26840
  -1767277.79100  25953740.57200                  -1283439.28040  25953746.31440
  -3090748.87500  24276935.64300                  -2335084.34840  24276941.01040
  32068205.22700  26711223.21300                  24988210.99040  26711228.20540
   5370743.84300  23861854.06400                   4185000.76240  23861858.44740
 96  9  3  2 51  0.0100000  0  7  4 14 15 18 22 25 29
    532862.05200  27754579.63500                      6561.67250  27754588.10040
   4637878.08800  23344600.20500                   3646917.47540  23344605.38540
  36133024.46900  27516525.19700                  28125573.08140  27516532.11540
  -1780292.05500  25951263.91600                  -1293580.20340  25951268.82640
  -3059088.41200  24282960.18900                  -2310413.83540  24282965.38140
  32221737.13500  26740439.35300                  25107846.22840  26740443.58440
   5417239.50400  23870701.81400                   4221231.15940  23870706.08040
 96  9  3  2 51 30.0100000  0  7  4 14 15 18 22 25 29
    564784.83800  27760654.27500                     31436.60640  27760657.66240
   4716412.14700  23359544.55700                   3708112.85040  23359549.83040
  36299342.52200  27548173.97800                  28255171.51140  27548180.17840
  -1793236.15700  25948800.60300                  -1303666.46240  25948806.05340
  -3026818.64300  24289100.90800                  -2285268.53340  24289106.28740
  32375363.59100  26769673.92400                  25227555.16140  26769676.87740
   5463933.07400  23879587.52500                   4257615.77740  23879591.73240
 96  9  3  2 52  0.0100000  0  7  4 14 15 18 22 25 29
    597216.43300  27766825.73600                     56707.99340  27766830.13140
   4795478.58200  23374590.62700                   3769723.06340  23374595.85340
  36465610.36300  27579813.66600                  28384730.77740  27579820.39340
  -1806092.88300  25946353.97100                  -1313684.63240  25946359.68940
  -2993963.03800  24295353.18200                  -2259666.74540  24295358.37340
  32529086.38900  26798925.68200                  25347339.16340  26798930.52140
   5510847.29300  23888514.83800                   4294172.32140  23888518.96340
 96  9  3  2 52 30.0100000  0  7  4 14 15 18 22 25 29
    630137.63800  27773089.04100                     82360.85240  27773093.38940
   4875061.28600  23389734.54100                   3831735.56740  23389739.86140
  36631825.53100  27611443.26000                  28514248.93640  27611449.60040
  -1818866.09300  25943923.79100                  -1323637.73540  25943929.00640
  -2960528.22200  24301715.67400                  -2233613.61540  24301720.92440
  32682900.91200  26828196.26000                  25467194.64440  26828200.50240
   5557978.59800  23897483.52500                   4330898.02240  23897487.76840
 96  9  3  2 53  0.0100000  0  7  4 14 15 18 22 25 29
    663543.98300  27779447.29900                    108391.80740  27779452.67840
   4955181.68600  23404980.95500                   3894167.05440  23404986.19340
  36798000.13000  27643066.10300                  28643735.66540  27643074.21740
  -1831532.47000  25941513.40800                  -1333507.59640  25941518.64640
  -2926503.95000  24308190.04900                  -2207101.16440  24308195.20540
  32836788.76800  26857479.65000                  25587107.29040  26857483.72840
   5605331.53500  23906494.55700                   4367796.43440  23906498.81040
 96  9  3  2 53 30.0100000  0  7  4 14 15 18 22 25 29
    697405.08900  27785890.66600                    134777.11540  27785894.69740
   5035827.59000  23420327.51000                   3957008.01340  23420332.54940
  36964102.55800  27674674.34600                  28773166.07940  27674681.01440
  -1844122.02200  25939117.53300                  -1343317.56240  25939122.68940
  -2891919.67000  24314771.43900                  -2180152.35840  24314776.60740
  32990697.57300  26886766.94700                  25707036.24740  26886771.38940
   5652891.18300  23915544.91600                   4404855.90640  23915549.06440
 96  9  3  2 54  0.0100000  0  7  4 14 15 18 22 25 29
    731752.46500  27792425.75200                    161541.29340  27792433.18540
   5117030.71100  23435779.76800                   4020283.18140  23435784.90040
  37130152.80900  27706272.25200                  28902555.70440  27706280.74040
  -1856622.77400  25936738.60300                  -1353058.37840  25936743.47840
  -2856748.63400  24321464.43200                  -2152746.33340  24321469.58840
  33144648.86600  26916062.83000                  25826998.30340  26916068.05740
   5700691.40300  23924641.00200                   4442102.84540  23924645.12740
 96  9  3  2 54 30.0100000  0  7  4 14 15 18 22 25 29
    766598.51800  27799058.18900                    188694.08940  27799065.89340
   5198811.35000  23451342.23600                   4084008.35540  23451347.41640
  37296143.74100  27737859.88500                  29031899.22740  27737867.58840
  -1869066.16300  25934370.44700                  -1362754.48440  25934375.62740
  -2820996.82600  24328267.37700                  -2124887.75240  24328272.28740
  33298640.82500  26945367.22100                  25946992.04440  26945371.11140
   5748719.91400  23933780.55700                   4479527.67140  23933784.72840
 96  9  3  2 55  0.0100000  0  7  4 14 15 18 22 25 29
    801955.67500  27805786.08800                    216245.14940  27805792.06440
   5281186.22100  23467017.54100                   4148196.56740  23467022.74440
  37462069.03300  27769434.10300                  29161191.59040  27769441.22140
  -1881449.95700  25932014.00200                  -1372404.15540  25932019.53340
  -2784668.09900  24335180.38500                  -2096579.63540  24335185.50640
  33452688.40800  26974681.60300                  26067029.13340  26974686.29140
   5796986.54100  23942965.29100                   4517138.03640  23942969.48640
 96  9  3  2 55 30.0100000  0  7  4 14 15 18 22 25 29
    837847.88200  27812615.47800                    244213.09140  27812621.19740
   5364156.79300  23482806.20500                   4212848.96240  23482811.46740
  37627933.53700  27800997.36900                  29290436.61640  27801003.59240
  -1893753.53200  25929672.43200                  -1381991.31240  25929677.37740
  -2747747.90200  24342206.15000                  -2067810.62540  24342211.17840
  33606821.87600  27004013.21300                  26187133.14740  27004018.28740
   5845502.26500  23952197.55700                   4554942.50240  23952201.64640
 96  9  3  2 56  0.0100000  0  7  4 14 15 18 22 25 29
    874269.27700  27819546.61900                    272593.45840  27819552.06840
   5447695.82800  23498703.28300                   4277944.31540  23498708.42840
  37793723.94600  27832546.62700                  29419623.76740  27832554.54140
  -1905972.79000  25927347.29900                  -1391512.78240  25927353.21740
  -2710240.33600  24349343.83000                  -2038583.92540  24349348.77540
  33761038.08500  27033358.20500                  26307301.61740  27033361.52140
   5894239.20300  23961471.90000                   4592919.34640  23961475.99040
 96  9  3  2 56 30.0100000  0  7  4 14 15 18 22 25 29
    911191.95800  27826573.68200                    301364.40040  27826578.10040
   5531797.09200  23514707.51000                   4343477.76940  23514712.68940
  37959430.14000  27864079.55700                  29548745.45740  27864088.31440
  -1918103.54100  25925039.04100                  -1400965.28840  25925045.11140
  -2672147.57100  24356592.37700                  -2008901.23240  24356597.29940
  33915317.00300  27062715.26000                  26427518.97340  27062720.49840
   5943170.53300  23970783.41600                   4631047.66440  23970787.58840
 96  9  3  2 57  0.0100000  0  7  4 14 15 18 22 25 29
    948618.26200  27833694.39300                    330527.71140  27833698.62340
   5616458.07900  23530817.70500                   4409447.37240  23530822.87340
  38125062.10300  27895597.91600                  29677809.14840  27895607.16640
  -1930110.64600  25922753.98600                  -1410321.44240  25922759.00240
  -2633439.54000  24363958.41600                  -1978739.10740  24363963.46740
  34069650.59800  27092085.34600                  26547778.94940  27092090.85340
   5992301.82100  23980132.39300                   4669331.78640  23980136.48240
 96  9  3  2 57 30.0100000  0  7  4 14 15 18 22 25 29
    986546.05700  27840912.02500                    360081.88040  27840916.84240
   5701670.48200  23547033.06400                   4475846.64940  23547038.32640
  38290615.00800  27927102.21300                  29806811.38140  27927109.27140
  -1941999.36800  25920490.90000                  -1419585.34040  25920495.88140
  -2594122.85400  24371440.24400                  -1948102.70240  24371445.14340
  34224028.45000  27121462.12700                  26668073.40040  27121465.84240
   6041620.06800  23989517.48600                   4707761.59640  23989521.58840
 96  9  3  2 58  0.0110000  0  7  4 14 15 18 22 25 29
   1024982.40000  27848225.69400                    390032.29840  27848231.42540
   5787437.40200  23563353.99900                   4542678.01240  23563359.22640
  38456094.34100  27958591.12400                  29935756.22740  27958599.08540
  -1953784.65800  25918248.60100                  -1428768.63840  25918253.73340
  -2554195.90200  24379037.72600                  -1916990.77340  24379042.83540
  34378454.04600  27150848.55400                  26788404.96640  27150854.01540
   6091131.69300  23998939.29600                   4746342.09340  23998943.39740
 96  9  3  2 58 30.0110000  0  7  4 14 15 18 22 25 29
   1063931.24800  27855637.13200                    420382.05440  27855643.82340
   5873763.95300  23579781.53800                   4609945.45440  23579786.71840
  38621489.28100  27990065.17900                  30064635.28940  27990076.31540
  -1965461.42600  25916026.64700                  -1437867.37140  25916031.55840
  -2513655.45000  24386752.24900                  -1885400.78540  24386757.24140
  34532919.32800  27180241.85800                  26908767.58740  27180247.75340
   6140841.11800  24008398.52200                   4785076.72240  24008402.74140
 96  9  3  2 59  0.0110000  0  7  4 14 15 18 22 25 29
   1103409.25300  27863150.55400                    451144.13740  27863154.85440
   5960639.10400  23596313.33500                   4677640.37740  23596318.56140
  38786791.43400  28021521.13200                  30193442.05640  28021529.77240
  -1977049.70500  25913821.48300                  -1446897.17740  25913827.09740
  -2472507.80300  24394582.62400                  -1853337.66740  24394587.67540
  34687426.02400  27209644.63200                  27029162.44140  27209647.32740
   6190749.01600  24017895.64700                   4823965.99440  24017899.73740
 96  9  3  2 59 30.0110000  0  7  4 14 15 18 22 25 29
   1143416.14300  27870763.74100                    482318.37140  27870770.31540
   6048056.38700  23612948.15500                   4745757.74040  23612953.32340
  38951989.06300  28052957.64700                  30322167.40740  28052964.85840
  -1988579.08700  25911627.53800                  -1455881.08740  25911632.70640
  -2430766.60800  24402525.36600                  -1820812.04140  24402530.64040
  34841973.87800  27239053.31100                  27149589.30640  27239058.92540
   6240852.12600  24027429.85100                   4863007.39540  24027434.09340
 96  9  3  3  0  0.0110000  0  7  4 14 15 18 22 25 29
   1183951.79700  27878477.56100                    513904.58340  27878484.03040
   6136024.49600  23629687.92100                   4814304.31640  23629693.06540
  39117092.11700  28084375.28800                  30450818.99640  28084380.24540
  -2000040.12500  25909446.90500                  -1464811.74240  25909451.97940
  -2388405.43900  24410586.50700                  -1787803.32040  24410591.73340
  34996553.08000  27268468.60800                  27270040.64940  27268474.05840
   6291167.29500  24037004.74100                   4902214.02440  24037008.86640
 96  9  3  3  0 30.0110000  0  6  4 14 18 22 25 29
   1225012.81600  27886290.44400                    545900.18340  27886296.71440
   6224551.55500  23646534.11600                   4883286.43740  23646539.34340
  -2011425.92300  25907279.95200                  -1473683.72540  25907285.21440
  -2345410.88200  24418768.10800                  -1754301.04840  24418772.94840
  35151159.90200  27297889.44400                  27390513.47640  27297895.22240
   6341706.32300  24046622.17900                   4941595.09940  24046626.32740
 96  9  3  3  1  0.0110000  0  7  4 14 18 19 22 25 29
   1266582.55100  27894201.03000                    578292.19940  27894205.17940
   6313621.92200  23663483.64000                   4952691.91140  23663488.90140
  -2022756.98800  25905123.41300                  -1482513.11040  25905128.83940
         0.37010  27871056.53800
  -2301798.27800  24427067.49900                  -1720317.17640  24427072.46840
  35305790.48900  27327314.88200                  27511004.87140  27327319.28840
   6392463.00100  24056280.55400                   4981145.77040  24056284.77240
 96  9  3  3  1 30.0110000  0  7  4 14 18 19 22 25 29
   1308656.87300  27902207.92100                    611077.37140  27902212.08140
   6403246.93500  23680538.73300                   5022529.58240  23680543.94840
  -2034021.89400  25902979.89000                  -1491290.93540  25902985.03440
    -27624.08300  27865800.08500                     -5009.89050  27865807.22640
  -2257568.07800  24435484.12400                  -1685852.06540  24435489.12840
  35460446.32000  27356744.71800                  27631515.90340  27356747.58940
   6443447.65100  24065982.65500                   5020874.08240  24065986.81540
 96  9  3  3  2  0.0110000  0  7  4 14 18 19 22 25 29
   1351224.83200  27910307.79600                    644247.16740  27910312.10840
   6493422.93800  23697698.50700                   5092796.59740  23697703.94440
  -2045205.00100  25900851.91300                  -1500005.01040  25900857.31540
    -55084.53400  27860574.45200                    -26407.57140  27860580.79240
  -2212725.66800  24444017.29600                  -1650909.90540  24444022.34740
  35615124.19800  27386179.08500                  27752044.16040  27386183.39740
   6494668.24900  24075729.46000                   5060786.24940  24075733.60840
 96  9  3  3  2 30.0110000  0  7  4 14 18 19 22 25 29
   1394306.70800  27918507.29600                    677817.47140  27918513.80040
   6584169.29000  23714966.96800                   5163508.03840  23714972.18340
  -2056292.57700  25898741.53800                  -1508644.65340  25898746.91740
    -82395.00900  27855378.05400                    -47688.34440  27855384.01840
  -2167286.04100  24452664.11600                  -1615502.38440  24452669.29640
  35769856.45300  27415623.99900                  27872614.71540  27415628.30040
   6546135.47100  24085523.46000                   5100890.59140  24085527.46840
 96  9  3  3  3  0.0110000  0  7  4 14 18 19 22 25 29
   1437915.10300  27926804.81900                    711798.06040  27926811.48740
   6675503.69300  23732347.40500                   5234677.70040  23732352.76140
  -2067268.82200  25896653.46800                  -1517197.52840  25896659.03440
   -109582.05400  27850203.68600                    -68872.95440  27850212.25740
  -2121251.74900  24461424.32700                  -1579631.48340  24461429.41340
  35924649.26800  27445079.87400                  27993232.50540  27445083.08540
   6597842.33600  24095362.65500                   5141181.66740  24095366.83940
 96  9  3  3  3 30.0110000  0  7  4 14 18 19 22 25 29
   1482044.45300  27935201.75700                    746184.52740  27935206.84340
   6767413.86900  23749837.20200                   5306296.01840  23749842.46440
  -2078135.63800  25894585.70200                  -1525665.15040  25894590.30840
   -136658.51100  27845051.46000                    -89971.32740  27845060.30040
  -2074634.25000  24470295.17900                  -1543306.14040  24470300.21840
  36079479.37300  27474542.87400                  28113879.33840  27474546.58940
   6649773.57500  24105245.06100                   5181647.58640  24105249.24540
 96  9  3  3  4  0.0110000  0  7  4 14 18 19 22 25 29
   1526702.84000  27943700.59300                    780983.28440  27943704.76540
   6859902.17700  23767437.21800                   5378364.82940  23767442.39740
  -2088880.87900  25892540.48300                  -1534038.02540  25892546.22640
   -163602.11800  27839924.13200                   -110966.28640  27839931.03840
  -2027426.78100  24479278.55400                  -1506521.07340  24479283.54640
  36234363.19400  27504015.92100                  28234568.07240  27504021.06540
   6701934.05800  24115170.99100                   5222292.13040  24115175.19840
 96  9  3  3  4 30.0110000  0  7  4 14 18 19 22 25 29
   1571891.46700  27952299.49900                    816195.20740  27952304.97240
   6952960.96400  23785145.77200                   5450878.16840  23785150.87040
  -2099521.82200  25890515.60100                  -1542329.63940  25890521.13240
   -190393.39500  27834826.78800                   -131842.53340  27834833.12840
  -1979628.27400  24488374.23300                  -1469275.46640  24488379.23740
  36389282.76300  27533495.87400                  28355284.60340  27533499.76540
   6754298.54000  24125135.51500                   5263095.63340  24125139.49940
 96  9  3  3  5  0.0110000  0  7  4 14 18 19 22 25 29
   1617612.40000  27960999.66300                    851821.87240  27961004.24540
   7046583.11000  23802961.49100                   5523830.48740  23802966.72940
  -2110051.76800  25888512.06100                  -1550534.75940  25888517.56940
   -216987.45700  27829765.13200                   -152565.06140  27829772.46040
  -1931209.05900  24497588.01500                  -1431546.18740  24497592.90140
  36544232.16700  27562981.87400                  28476024.40140  27562987.25340
   6806879.88800  24135141.37400                   5304068.12740  24135145.68640
 96  9  3  3  5 30.0110000  0  7  4 14 18 19 22 25 29
   1663842.44100  27969797.52200                    887845.27040  27969801.81140
   7140737.31500  23820878.28000                   5597197.39840  23820883.56540
  -2120488.48700  25886525.77200                  -1558667.23440  25886531.09340
   -243377.09500  27824742.96000                   -173128.29640  27824747.90540
  -1882173.30900  24506919.43600                  -1393336.48640  24506924.58140
  36699200.84100  27592472.17900                  28596779.22040  27592477.19440
   6859680.94400  24145189.05400                   5345211.81940  24145193.20240
 96  9  3  3  6  0.0110000  0  7  4 14 18 19 22 25 29
   1710570.94200  27978690.28800                    924257.08940  27978696.21840
   7235424.09700  23838896.71000                   5670979.30640  23838901.96040
  -2130837.75800  25884556.25700                  -1566731.56340  25884561.65940
   -269580.10700  27819756.83500                   -193546.16240  27819763.39740
  -1832512.65500  24516369.41300                  -1354639.85540  24516374.27640
  36854179.61100  27621964.14700                  28717541.92340  27621967.37040
   6912697.65900  24155277.90500                   5386523.56040  24155282.00740
 96  9  3  3  6 30.0110000  0  7  4 14 18 19 22 25 29
   1757804.00200  27987678.25700                    961062.05840  27987683.12040
   7330651.32700  23857017.73300                   5745182.33740  23857023.00740
  -2141089.02000  25882605.60100                  -1574719.53540  25882610.90940
   -295612.43500  27814802.81100                   -213830.96740  27814809.91740
  -1782202.89200  24525943.08500                  -1315437.42140  24525948.10140
  37009164.71400  27651454.82700                  28838309.54240  27651459.43340
   6965940.26100  24165409.53800                   5428011.31640  24165413.62840
 96  9  3  3  7  0.0110000  0  7  4 14 18 19 22 25 29
   1805531.65500  27996760.17900                    998252.39040  27996767.05040
   7426422.27900  23875242.54600                   5819809.04740  23875247.72640
  -2151228.27200  25880676.11600                  -1582620.22140  25880681.42540
   -321503.43200  27809875.66300                   -234005.70740  27809884.02240
  -1731248.73400  24535639.20200                  -1275732.85940  24535644.12440
  37164170.47100  27680952.29600                  28959093.24740  27680958.23740
   7019414.92100  24175585.38200                   5469679.89240  24175589.41340
 96  9  3  3  7 30.0110000  0  7  4 14 18 19 22 25 29
   1853760.60200  28005937.72600                   1035833.38040  28005943.40940
   7522746.81600  23893572.41300                   5894867.12840  23893577.61640
  -2161246.92400  25878769.42100                  -1590426.92740  25878774.21440
   -347278.53200  27804971.27200                   -254090.06940  27804977.87040
  -1679644.22000  24545459.21800                  -1235521.52540  24545464.31540
  37319196.79500  27710454.00700                  29079892.98140  27710457.80440
   7073114.22700  24185804.20200                   5511523.51540  24185808.37440
 96  9  3  3  8  0.0110000  0  7  4 14 18 19 22 25 29
   1902491.05400  28015211.30400                   1073805.14640  28015219.54640
   7619627.34700  23912008.00700                   5970358.45040  23912013.26840
  -2171149.24100  25876885.62400                  -1598142.97740  25876890.52240
   -372950.31600  27800085.88200                   -274093.95140  27800091.64740
  -1627418.56800  24555397.37400                  -1194826.18840  24555402.48340
  37474232.83100  27739955.14000                  29200700.34440  27739960.46040
   7127026.41200  24196063.28800                   5553533.02640  24196067.27240
 96  9  3  3  8 30.0110000  0  7  4 14 18 19 22 25 29
   1951703.18200  28024574.59300                   1112152.23940  28024580.99140
   7717046.78700  23930546.46000                   6046269.69940  23930551.71040
  -2180952.98600  25875019.54600                  -1605782.21840  25875024.42140
   -398521.15400  27795219.94400                   -294019.19240  27795225.75740
  -1574616.68100  24565445.28800                  -1153681.84140  24565450.15140
  37629275.70000  27769458.92900                  29321512.92640  27769463.28840
   7181130.70000  24206358.71800                   5595692.22240  24206362.91340
 96  9  3  3  9  0.0110000  0  7  4 14 18 19 22 25 29
   2001411.04600  28034034.69400                   1150885.62540  28034040.06140
   7815017.52600  23949189.51500                   6122610.52840  23949194.71840
  -2190657.54200  25873172.98300                  -1613344.17540  25873177.99940
   -423961.26700  27790378.33500                   -313842.57740  27790386.57740
  -1521240.89700  24575602.27200                  -1112090.30640  24575607.33540
  37784347.73100  27798968.59300                  29442348.31640  27798973.98340
   7235432.30800  24216692.03800                   5638005.17640  24216696.14040
 96  9  3  3  9 30.0110000  0  7  4 14 18 19 22 25 29
   2051641.15500  28043592.48300                   1190025.99140  28043597.08940
   7913540.94400  23967937.96000                   6199382.02040  23967943.30440
  -2200270.48500  25871343.80400                  -1620834.73140  25871348.99540
   -449235.65900  27785569.26500                   -333536.80240  27785577.00340
  -1467284.66000  24585869.69400                  -1070046.46640  24585874.81540
  37939447.96400  27828483.79600                  29563205.61040  27828490.77240
   7289949.64700  24227066.33500                   5680486.22940  24227070.56540
 96  9  3  3 10  0.0120000  0  7  4 14 18 19 22 25 29
   2102401.08400  28053251.85500                   1229579.19140  28053256.54340
   8012627.64600  23986793.55900                   6276592.44040  23986798.82040
  -2209792.30800  25869531.73000                  -1628254.29940  25869536.84040
   -474323.04300  27780795.10500                   -353085.34840  27780803.01940
  -1412752.92800  24596246.61300                  -1027554.18440  24596251.98040
  38094591.10100  27858005.62900                  29684096.39640  27858010.93740
   7344692.58200  24237483.67600                   5723143.06440  24237487.75440
 96  9  3  3 10 30.0120000  0  7  4 14 18 19 22 25 29
   2153668.07800  28063008.23800                   1269527.49240  28063013.58240
   8112243.40200  24005750.05100                   6354215.10540  24005755.19540
  -2219241.14400  25867733.36300                  -1635616.98440  25867738.21540
   -499237.81700  27776053.68400                   -372499.34140  27776059.97640
  -1357635.94900  24606735.35500                   -984605.85740  24606740.40640
  38249739.78800  27887530.34800                  29804991.51940  27887537.84040
   7399630.58000  24247937.81600                   5765951.90640  24247942.05940
 96  9  3  3 11  0.0120000  0  7  4 14 18 19 22 25 29
   2205465.01500  28072865.80900                   1309888.74740  28072870.12140
   8212404.52000  24024809.99600                   6432262.73340  24024815.17640
  -2228608.92100  25865950.87100                  -1642916.51440  25865956.06240
   -523971.30200  27771347.46500                   -391772.08740  27771354.48840
  -1301889.88000  24617343.27700                   -941167.35540  24617348.23440
  38404880.91700  27917051.96500                  29925880.69140  27917055.49240
   7454795.48700  24258435.40200                   5808937.56240  24258439.50440
 96  9  3  3 11 30.0120000  0  7  4 14 18 19 22 25 29
   2257785.58200  28082821.11300                   1350658.05540  28082825.85940
   8313110.93400  24043973.62900                   6510735.25940  24043978.82040
  -2237887.56300  25864184.87100                  -1650146.60740  25864189.94540
   -548536.28000  27766672.56600                   -410913.54140  27766679.48440
  -1245509.81100  24628072.20700                   -897234.81740  24628076.91840
  38559996.18600  27946569.62100                  30046749.73440  27946573.37140
   7510203.35300  24268979.55100                   5852112.53440  24268983.68740
 96  9  3  3 12  0.0120000  0  7  4 14 18 19 22 25 29
   2310597.17800  28092870.30900                   1391809.93540  28092876.03940
   8414354.39800  24063239.55900                   6589626.26740  24063244.77340
  -2247074.39500  25862437.03500                  -1657305.13840  25862442.30940
   -572961.24900  27762024.32400                   -429945.89440  27762030.46540
  -1188502.85400  24638920.05900                   -852813.79440  24638924.91040
  38715079.91100  27976081.08200                  30167594.25340  27976084.24640
   7565840.76800  24279566.67600                   5895466.37340  24279570.78940
 96  9  3  3 12 30.0120000  0  7  4 14 18 19 22 25 29
   2363895.38700  28103013.12100                   1433341.03940  28103018.88740
   8516130.18100  24082607.11300                   6668932.06340  24082612.36340
  -2256176.30000  25860705.15200                  -1664397.52040  25860710.27340
   -597251.98800  27757401.98000                   -448873.64340  27757407.35940
  -1130858.31200  24649889.41800                   -807895.94540  24649894.31640
  38870128.94700  28005585.41800                  30288411.64540  28005590.50440
   7621714.07500  24290199.05900                   5939004.02840  24290203.21940
 96  9  3  3 13  0.0120000  0  7  4 14 18 19 22 25 29
   2417669.47100  28113246.24600                   1475242.95140  28113251.74240
   8618428.00900  24102073.67600                   6748644.65940  24102078.86740
  -2265195.42300  25858988.85500                  -1671425.39240  25858993.19140
   -621414.93800  27752804.17600                   -467701.86340  27752811.19940
  -1072604.04600  24660974.99600                   -762503.00040  24660979.96540
  39025153.16700  28035086.11300                  30409209.83140  28035091.22340
   7677833.48900  24300878.26900                   5982733.45340  24300882.37140
 96  9  3  3 13 30.0120000  0  7  4 14 18 19 22 25 29
   2471940.36800  28123573.70700                   1517531.92540  28123577.98440
   8721247.62800  24121639.56600                   6828763.83840  24121644.66440
  -2274107.24900  25857292.69900                  -1678369.65540  25857297.53940
   -645440.69400  27748231.64400                   -486423.14740  27748237.62140
  -1013751.51600  24672174.05900                   -716643.86240  24672179.02740
  39180200.77000  28064591.01900                  30530026.04640  28064594.24240
   7734198.43700  24311604.07400                   6026654.20140  24311608.09440
 96  9  3  3 14  0.0120000  0  7  4 14 18 19 22 25 29
   2526707.55600  28133995.91000                   1560207.70140  28134001.95740
   8824570.72700  24141301.26200                   6909275.34240  24141306.59440
  -2282924.00000  25855615.31600                  -1685239.82040  25855620.13340
   -669337.41900  27743684.52700                   -505043.90140  27743689.70740
   -954310.28000  24683485.26900                   -670326.00140  24683490.33240
  39335264.27500  28094098.04300                  30650854.86240  28094101.07840
   7790784.15400  24322371.98000                   6070746.97840  24322376.12940
 96  9  3  3 14 30.0120000  0  7  4 14 18 19 22 25 29
   2581973.16000  28144512.69900                   1603271.83240  28144517.56240
   8928399.18800  24161059.08200                   6990180.63940  24161064.40240
  -2291643.79200  25853955.44900                  -1692034.44240  25853960.48840
   -693101.36700  27739162.33200                   -523561.21040  27739167.95740
   -894280.63400  24694908.80900                   -623549.63140  24694913.74240
  39490323.39400  28123604.50400                  30771680.16740  28123609.27340
   7847588.56100  24333181.42600                   6115010.16840  24333185.39840
 96  9  3  3 15  0.0120000  0  7  4 14 18 19 22 25 29
   2637736.88500  28155123.69900                   1646724.11040  28155129.05540
   9032736.92100  24180914.17600                   7071482.76740  24180919.51940
  -2300249.35500  25852317.90200                  -1698740.05240  25852323.04740
   -716730.38900  27734665.87100                   -541973.33340  27734672.45740
   -833661.44900  24706444.18400                   -576313.88840  24706448.93040
  39645372.60400  28153109.55100                  30892497.71540  28153116.32440
   7904611.64900  24344032.70700                   6159443.75340  24344036.73840
 96  9  3  3 15 30.0120000  0  7  4 14 18 19 22 25 29
   2693998.77300  28165829.50400                   1690564.54040  28165834.28540
   9137602.42400  24200869.24600                   7153196.14540  24200874.47340
  -2308749.30100  25850700.68400                  -1705363.35840  25850705.91040
   -740215.43900  27730197.36300                   -560273.30940  27730203.49240
   -772434.74600  24718095.30900                   -528604.75240  24718099.91440
  39800403.22900  28182610.76900                  31013300.82040  28182618.36740
   7961837.56000  24354922.37900                   6204035.38240  24354926.36340
 96  9  3  3 16  0.0120000  0  7  4 14 18 19 22 25 29
   2750750.49400  28176629.75400                   1734786.70440  28176636.34040
   9243026.14500  24220930.79300                   7235344.49040  24220936.01940
  -2317133.19100  25849105.23000                  -1711896.23240  25849110.56240
   -763529.61000  27725759.68400                   -578440.15040  27725766.82440
   -710562.87800  24729869.17600                   -480392.88840  24729874.09840
  39955423.13700  28212109.87100                  31134095.50840  28212111.78140
   8019284.36000  24365854.22300                   6248799.13840  24365858.21940
 96  9  3  3 16 30.0120000  0  7  4 14 18 19 22 25 29
   2807971.20400  28187518.05900                   1779374.29540  28187523.95340
   9349000.61100  24241097.01900                   7317921.99140  24241102.30540
  -2325419.11200  25847528.35500                  -1718352.75040  25847533.17240
   -786667.86200  27721357.11300                   -596469.88440  27721364.46540
   -648069.85400  24741760.90200                   -431697.01040  24741765.61340
  40110428.50700  28241606.71500                  31254878.94040  28241611.28540
   8076937.64800  24376825.09800                   6293723.79140  24376829.28140
 96  9  3  3 17  0.0120000  0  7  4 14 18 19 22 25 29
   2865694.20400  28198502.37100
   9455525.90000  24261368.03500                   7400928.70840  24261373.35540
  -2333611.36200  25845968.98800                  -1724736.28840  25845974.08640
   -809613.48400  27716990.82400                   -614349.51940  27716997.69540
   -584955.21000  24753771.34800                   -382516.74940  24753776.19940
  40265450.88100  28271107.04300                  31375675.58740  28271112.86740
   8134812.62000  24387838.45700                   6338821.18440  24387842.54740
 96  9  3  3 17 30.0120000  0  7  4 14 18 19 22 25 29
   2923924.32300  28209582.85500
   9562589.43600  24281741.70700                   7484354.83840  24281746.96940
  -2341723.61200  25844425.23000                  -1731057.48740  25844430.12940
   -832374.17100  27712659.50400                   -632085.08440  27712665.82040
   -521232.71900  24765897.22300                   -332862.83940  24765901.95740
  40420490.91000  28300610.00400                  31496486.06240  28300616.36740
   8192914.83500  24398894.75400                   6384095.65140  24398898.80940
 96  9  3  3 18  0.0120000  0  7  4 14 18 19 22 25 29
   2982665.52000  28220761.25400
   9670171.23000  24302213.77700                   7568184.80940  24302218.96940
  -2349751.84600  25842897.69900                  -1737313.22940  25842902.85540
   -854960.62900  27708361.55100                   -649684.81540  27708368.39440
   -456909.72100  24778137.32400                   -282741.00540  24778141.95340
  40575526.74300  28330111.87100                  31617293.20440  28330115.72640
   8251254.32700  24409996.59800                   6429555.00640  24410000.59440
 96  9  3  3 18 30.0120000  0  7  4 14 18 19 22 25 29
   3041929.97400  28232038.59800                     23139.82850  28232043.23840
   9778267.90600  24322783.61300                   7652415.98440  24322788.75840
  -2357687.31700  25841387.76200                  -1743496.68640  25841392.83640
   -877380.15200  27704094.44900                   -667154.52140  27704101.22340
   -391981.63100  24790492.67600                   -232147.66640  24790497.52740
  40730541.30200  28359609.12100                  31738083.75840  28359613.96140
   8309840.98700  24421145.19100                   6475206.96340  24421149.19940
 96  9  3  3 19  0.0120000  0  7  4 14 18 19 22 25 29
   3101728.48800  28243418.00400                     69736.10140  28243424.23840
   9886892.17900  24343454.37900                   7737058.26640  24343459.51240
  -2365503.77500  25839900.34000                  -1749587.40840  25839905.56640
   -899641.76000  27699858.36300                   -684501.15040  27699864.75040
   -326418.56700  24802968.85500                   -181059.54640  24802973.78940
  40885536.66900  28389105.01200                  31858859.35840  28389109.88740
   8368701.38700  24432345.86300                   6521072.22040  24432349.80140
 96  9  3  3 19 30.0120000  0  6  4 14 18 19 22 29
   3162017.88200  28254890.51200                    116714.87140  28254895.05940
   9996034.87900  24364223.55100                   7822104.52540  24364228.78940
  -2373199.28800  25838436.31600                  -1755583.88140  25838440.86340
   -921768.54300  27695647.12100                   -701742.73440  27695653.46140
   -260223.29800  24815565.71500                   -129478.80240  24815570.50840
   8427807.96600  24443593.56600                   6567129.30940  24443597.66840
 96  9  3  3 20  0.0120000  0  6  4 14 18 19 22 29
   3222813.16300  28266459.37900                    164087.79540  28266463.55140
  10105718.05300  24385095.49600                   7907571.92640  24385100.76940
  -2380737.41400  25837001.46500                  -1761457.72040  25837006.48040
   -943734.13800  27691467.76900                   -718858.71940  27691473.84040
   -193375.03200  24828286.05100                    -77389.22440  24828290.84440
   8487167.16200  24454889.10500                   6613383.23940  24454893.10140
 96  9  3  3 20 30.0120000  0  6  4 14 18 19 22 29
   3284091.21600  28278120.69900                    211836.96740  28278126.39440
  10215920.57800  24406066.47300                   7993444.01640  24406071.79340
  -2388132.83400  25835594.18400                  -1767220.35440  25835599.18740
   -965559.24000  27687313.87100                   -735865.20040  27687320.22340
   -125909.36900  24841124.89400                    -24818.56040  24841129.74640
   8546761.67900  24466229.51200                   6659820.53540  24466233.71940
 96  9  3  3 21  0.0120000  0  6  4 14 18 19 22 29
   3345850.00700  28289872.54300                    259960.67640  28289876.57440
  10326642.12600  24427135.95700                   8079720.54340  24427141.31240
  -2395388.14500  25834213.62100                  -1772873.81940  25834218.53140
   -987238.92300  27683189.24600                   -752758.39540  27683195.29340
    -57841.76200  24854077.29300                     28221.14840  24854082.44940
   8606581.40900  24477612.78500                   6706433.32240  24477616.88740
 96  9  3  3 21 30.0120000  0  6  4 14 18 19 22 29
   3408082.46800  28301714.61300                    308453.50640  28301721.05940
  10437868.65400  24448301.73800                   8166390.56140  24448307.00040
  -2402513.43000  25832857.56600                  -1778425.96040  25832862.74640
  -1008767.63300  27679090.98800                   -769533.91840  27679096.34440
     10815.70500  24867142.69900                     81720.48640  24867147.56240
   8666606.20200  24489035.38700                   6753205.89640  24489039.34840
 96  9  3  3 22  0.0120000  0  6  4 14 18 19 22 29
   3470782.55100  28313646.26200                    357310.74940  28313652.33240
  10549593.11500  24469562.21500                   8253448.58340  24469567.47640
  -2409530.50300  25831521.83200                  -1783893.78540  25831526.78940
  -1030145.29000  27675023.87900                   -786191.77140  27675029.46940
     80056.44100  24880318.76200                    135674.32640  24880323.75440
   8726839.12200  24500497.16000                   6800140.65040  24500501.13340
 96  9  3  3 22 30.0130000  0  6  4 14 18 19 22 29
   3533956.94300  28325668.60200                    406537.53040  28325674.00540
  10661828.96700  24490919.79800                   8340905.09040  24490925.15340
  -2416451.41900  25830205.24300                  -1789286.67740  25830210.28240
  -1051359.84700  27670987.12600                   -802722.52040  27670993.41940
    149900.24300  24893609.54000                    190098.08040  24893614.49740
   8787289.91000  24512000.63400                   6847245.16540  24512004.57140
 96  9  3  3 23  0.0130000  0  6  4 14 18 19 22 29
   3597595.53600  28337778.11000                    456126.03940  28337782.13040
  10774573.26600  24512374.39200                   8428757.78540  24512379.58340
  -2423278.19900  25828905.88400                  -1794606.22140  25828910.95840
  -1072396.23000  27666983.77400                   -819114.45940  27666990.71640
    220361.96900  24907018.12600                    245003.33540  24907023.22440
   8847945.11700  24523542.87600                   6894508.97040  24523546.82540
 96  9  3  3 23 30.0130000  0  6  4 14 18 19 22 29
   3661689.31400  28349974.87600                    506069.26640  28349979.59940
  10887804.73500  24533921.99300                   8516990.09340  24533927.30240
  -2430026.20400  25827621.37600                  -1799864.39340  25827626.36840
  -1093274.18700  27663011.03200                   -835382.89340  27663016.96240
    291428.51200  24920541.34500                    300379.87440  24920546.17340
   8908807.54600  24535124.56300                   6941934.24640  24535128.55940
 96  9  3  3 24  0.0130000  0  6  4 14 18 19 22 29
   3726248.37300  28362260.23500                    556375.04840  28362266.21240
  11001525.53700  24555561.93100                   8605603.69940  24555567.34540
  -2436694.87000  25826353.25100                  -1805060.72040  25826358.82940
  -1113996.27800  27659067.12600                   -851529.93240  27659072.73940
    363085.89500  24934177.25900                    356216.81540  24934182.11040
   8969881.47800  24546746.66500                   6989524.33040  24546750.79040
 96  9  3  3 24 30.0130000  0  6  4 14 18 19 22 29
   3791307.38000  28374640.89900                    607070.38740  28374646.63040
  11115746.48800  24577297.43100                   8694607.03740  24577302.70440
  -2443245.88800  25825106.29800                  -1810165.39140  25825111.00940
  -1134549.07800  27655156.46200                   -867545.00440  27655161.99340
    435342.45600  24947926.99300                    412520.64740  24947931.97440
   9031190.18600  24558413.29000                   7037297.36240  24558417.29840
 96  9  3  3 25  0.0130000  0  6  4 14 18 19 22 29
   3856874.28900  28387117.03200                    658161.48140  28387122.21240
  11230470.87300  24599128.80600                   8784002.64640  24599134.14940
  -2449657.08300  25823885.93100                  -1815161.10640  25823890.95840
  -1154940.09600  27651275.29800                   -883434.01740  27651281.69640
    508192.96000  24961790.22000                    469287.28240  24961795.04840
   9092759.82900  24570129.36000                   7085273.70740  24570133.34540
 96  9  3  3 25 30.0130000  0  6  4 14 18 19 22 29
   3922965.22200  28399693.86000                    709660.92040  28399699.90740
  11345706.74800  24621057.48500                   8873796.82540  24621062.95840
  -2455923.09100  25822693.81300                  -1820043.69040  25822699.02840
  -1175173.45100  27647425.43100                   -899200.18540  27647432.26340
    581631.49700  24975765.15700                    526512.12640  24975769.85640
   9154604.48400  24581898.26700                   7133464.35340  24581902.36840
 96  9  3  3 26  0.0130000  0  6  4 14 18 19 22 29
   3989567.60300  28412368.13400                    761558.88840  28412374.14540
  11461450.25400  24643082.82100                   8963986.56940  24643088.18840
  -2462056.95100  25821526.27400                  -1824823.30040  25821531.25540
  -1195248.51600  27643605.45400                   -914843.02640  27643611.94640
    655663.44500  24989852.67300                    584199.38140  24989857.44240
   9216701.21500  24593714.61000                   7181851.42040  24593718.78240
 96  9  3  3 26 30.0130000  0  6  4 14 18 19 22 29
   4056663.39900  28425135.95400                    813841.31240  28425141.97740
  11577700.69800  24665204.34500                   9054571.32840  24665209.55940
  -2468067.26800  25820382.82100                  -1829506.63940  25820387.74340
  -1215166.88200  27639815.17300                   -930363.74540  27639820.35240
    730301.40800  25004055.72700                    642358.84040  25004060.67340
   9279050.16800  24605579.51700                   7230435.03240  24605583.60640
 96  9  3  3 27  0.0130000  0  6  4 14 18 19 22 29
   4124229.98500  28437993.37600                    866490.61340  28437998.46240
  11694456.96300  24687422.60200                   9145550.23140  24687427.81740
  -2473973.67200  25819258.84500                  -1834109.01340  25819263.25140
  -1234931.61700  27636053.45400                   -945764.77840  27636060.25140
    805557.48600  25018376.30600                    700999.95540  25018381.35640
   9341639.22500  24617489.61000                   7279205.73440  24617493.70040
 96  9  3  3 27 30.0130000  0  6  4 14 18 19 22 29
   4192255.73000  28450938.69600                    919497.66940  28450943.57140
  11811704.87400  24709734.06300                   9236912.23640  24709739.25540
  -2479793.24500  25818151.58700                  -1838643.71540  25818156.56740
  -1254542.49100  27632322.04000                   -961045.87940  27632329.19240
    881426.14700  25032814.10200                    760118.40740  25032818.90740
   9404435.89300  24629439.32100                   7328138.21240  24629443.35240
 96  9  3  3 28  0.0130000  0  6  4 14 18 19 22 29
   4260747.42200  28463971.37600                    972867.80740  28463977.17740
  11929448.90900  24732139.95400                   9328660.83140  24732145.14540
  -2485510.98900  25817063.23500                  -1843099.07240  25817068.07540
  -1273994.71100  27628619.86800                   -976203.39340  27628626.73940
    957921.28300  25047370.49300                    819725.02140  25047375.30940
   9467453.34800  24641431.24300                   7377242.73140  24641435.34540
 96  9  3  3 28 30.0130000  0  6  4 14 18 19 22 29
   4329690.15400  28477090.86800                   1026589.39940  28477096.00140
  12047671.43000  24754636.72700                   9420782.27040  24754642.07140
  -2491135.38400  25815992.96200                  -1847481.68940  25815998.13040
  -1293315.18500  27624943.85200                   -991258.22340  27624951.15740
   1035005.14000  25062039.03200                    879790.37640  25062043.84940
   9530681.09900  24653463.25900                   7426511.11140  24653467.26740
 96  9  3  3 29  0.0130000  0  6  4 14 18 19 22 29
   4399084.60300  28490297.05600                   1080663.01540  28490301.89540
  12166373.79700  24777225.33700                   9513277.61640  24777230.64540
  -2496650.98000  25814943.39900                  -1851779.53540  25814948.48540
  -1312501.71200  27621292.27400                  -1006208.68140  27621298.04040
   1112657.65000  25076815.90700                    940298.83940  25076820.63040
   9594118.36500  24665534.80600                   7475942.75140  24665538.87240
 96  9  3  3 29 30.0130000  0  6  4 14 18 19 22 29
   4468926.79600  28503587.43100                   1135085.52940  28503591.56740
  12285550.04400  24799903.79000                   9606142.22640  24799909.07540
  -2502058.94800  25813914.15700                  -1855993.50640  25813919.47740
  -1331561.33700  27617665.14900                  -1021060.24240  27617670.82140
   1190847.32300  25091694.94600                   1001225.87140  25091699.55240
   9657762.16900  24677646.04800                   7525535.33040  24677649.98540
 96  9  3  3 30  0.0130000  0  6  4 14 18 19 22 29
   4539210.78200  28516961.54000                   1189852.24340  28516966.14540
  12405196.72000  24822671.89900                   9699373.38740  24822677.26740
  -2507350.34400  25812907.30600                  -1860116.63940  25812912.68440
  -1350495.10100  27614062.46200                  -1035813.76040  27614067.75940
   1269573.74900  25106676.19600                   1062571.15640  25106680.81340
   9721624.23800  24689798.40700                   7575297.99640  24689802.45040
 96  9  3  3 30 30.0130000  0  6  4 14 18 19 22 29
   4609943.32200  28530421.44600                   1244968.48340  28530425.92340
  12525325.96400  24845531.68100                   9792980.58640  24845537.07140
  -2512500.13700  25811927.07100                  -1864129.43540  25811932.32140
  -1369266.43000  27610490.87600                  -1050440.72640  27610496.63040
   1348858.87500  25121763.39900                   1124351.78940  25121768.06340
   9785725.90900  24701996.37600                   7625247.35640  24702000.43140
 96  9  3  3 31  0.0130000  0  6  4 14 18 19 22 29
   4681111.36500  28543964.45400                   1300424.11040  28543971.37240
  12645922.89500  24868480.51700                   9886952.20940  24868485.76740
  -2517516.12500  25810972.62600                  -1868037.98140  25810977.48940
  -1387872.96500  27606949.22000                  -1064939.23740  27606956.24340
   1428718.90700  25136960.06300                   1186580.39940  25136964.90340
   9850066.34400  24714240.11800                   7675382.77040  24714244.18440
 96  9  3  3 31 30.0130000  0  6  4 14 18 19 22 29
   4752738.36500  28557594.13400                   1356237.35540  28557600.28640
  12766987.67900  24891518.31300                   9981288.39840  24891523.62240
  -2522398.80900  25810043.62600                  -1871842.64740  25810048.55940
  -1406298.23900  27603443.27400                  -1079296.53240  27603450.22740
   1509190.03300  25152273.49300                   1249285.18740  25152278.33340
   9914657.15000  24726531.23500                   7725713.28440  24726535.25540
 96  9  3  3 32  0.0130000  0  6  4 14 18 19 22 29
   4824827.46000  28571312.90700                   1412410.65640  28571319.17740
  12888516.07900  24914644.40700                  10075985.84340  24914649.61040
  -2527148.18400  25809139.92300                  -1875543.43340  25809145.10240
  -1424537.41600  27599972.50900                  -1093508.78640  27599978.74340
   1590277.60200  25167703.64900                   1312470.31840  25167708.52440
   9979508.87100  24738872.25100                   7776247.09940  24738876.29440
 96  9  3  3 32 30.0130000  0  6  4 14 18 19 22 29
   4897374.12600  28585117.74300                   1468940.52040  28585123.06340
  13010518.03100  24937860.72000                  10171052.29240  24937865.91140
  -2531781.57300  25808258.27400                  -1879153.85840  25808262.97440
  -1442596.15700  27596536.47000                  -1107580.50140  27596542.96240
   1671973.48600  25183250.02400                   1376129.45940  25183254.87640
  10044618.12300  24751262.32100                   7826981.58440  24751266.37640
 96  9  3  3 33  0.0130000  0  6  4 14 18 19 22 29
   4970393.69500  28599012.58700                   1525838.90240  28599017.98940
  13133022.22800  24961172.32100                  10266510.10140  24961177.63040
  -2536296.51300  25807399.07100                  -1882671.97840  25807403.86440
  -1460473.96400  27593134.00900                  -1121511.20140  27593139.72740
   1754285.78900  25198913.63400                   1440268.92440  25198918.32140
  10109987.34500  24763701.35200                   7877918.64240  24763705.37240
 96  9  3  3 33 30.0130000  0  6  4 14 18 19 22 29
   5043884.60600  28612998.26700                   1583104.53040  28613002.61440
  13256029.99100  24984579.77400                  10362360.30440  24984585.01340
  -2540697.05200  25806561.31300                  -1886100.94140  25806566.28240
  -1478180.58300  27589764.63400                  -1135308.49440  27589769.70840
   1837194.43400  25214690.79800                   1504873.07540  25214695.53240
  10175619.26700  24776190.77400                   7929060.40740  24776194.85240
 96  9  3  3 34  0.0130000  0  6  4 14 18 19 22 29
   5117845.31000  28627072.50900                   1640736.25340  28627077.06740
  13379545.37200  25008084.19600                  10458606.04840  25008089.59940
  -2544975.12200  25805747.47700                  -1889434.48740  25805752.17740
  -1495720.28900  27586426.44600                  -1148975.75240  27586433.11440
   1920689.81200  25230579.51700                   1569934.42340  25230584.27440
  10241522.90500  24788731.64200                   7980413.89340  24788735.60240
 96  9  3  3 34 30.0130000  0  6  4 14 18 19 22 29
   5192269.85800  28641234.86000                   1698729.41040  28641240.05240
  13503555.28900  25031682.61000                  10555237.14340  25031687.94240
  -2549125.66100  25804957.61000                  -1892668.65540  25804962.50940
  -1513109.05200  27583117.66500                  -1162525.40440  27583123.84140
   2004780.44900  25246581.06300                   1635459.60940  25246585.72740
  10307672.09200  24801319.47700                   8031958.72640  24801323.56740
 96  9  3  3 35  0.0140000  0  6  4 14 18 19 22 29
   5267162.11100  28655486.01400                   1757086.98440  28655492.11940
  13628036.45500  25055370.29500                  10652235.44540  25055375.67440
  -2553143.96800  25804192.74000                  -1895799.78540  25804197.68540
  -1530349.48800  27579836.63900                  -1175959.45340  27579843.83840
   2089466.81500  25262696.49000                   1701448.99440  25262701.07240
  10374068.10900  24813954.16200                   8083695.89040  24813958.15840
 96  9  3  3 35 30.0140000  0  6  4 14 18 19 22 29
   5342526.56600  28669827.43500                   1815812.53740  28669832.32240
  13752954.30900  25079141.85000                  10749574.02840  25079147.08840
  -2557025.17500  25803454.10700                  -1898824.08040  25803459.20540
  -1547441.00400  27576584.76400                  -1189277.47140  27576590.47140
   2174727.44000  25278920.90400                   1767885.85640  25278925.63940
  10440709.91700  24826635.79500                   8135624.58340  24826639.69740
 96  9  3  3 36  0.0140000  0  6  4 14 18 19 22 29
   5418355.01900  28684256.93500                   1874899.63340  28684261.33040
  13878300.19100  25102994.06000                  10847246.14040  25102999.42840
  -2560755.67100  25802744.40400                  -1901730.93740  25802749.35040
  -1564389.21900  27573359.06000                  -1202483.82740  27573363.81840
   2260559.85300  25295254.44300                   1834768.27140  25295259.24840
  10507577.52000  24839360.42000                   8187729.21740  24839364.55740
 96  9  3  3 36 30.0140000  0  6  4 14 18 19 22 29
   5494641.47800  28698773.92800                   1934343.59140  28698780.56040
  14004074.09700  25126928.15400                  10945251.77240  25126933.48640
  -2564331.77700  25802064.03700                  -1904517.49440  25802068.79540
  -1581184.01400  27570163.49000                  -1215570.64740  27570168.95140
   2346972.67500  25311697.95100                   1902102.94340  25311702.73240
  10574670.89100  24852127.50600                   8240009.77340  24852131.74840
 96  9  3  3 37  0.0140000  0  6  4 14 18 19 22 29
   5571383.22600  28713378.50600                   1994142.36040  28713383.59240
  14130273.64700  25150943.01400                  11043589.08240  25150948.42840
  -2567761.49000  25801411.08400                  -1907189.98140  25801415.84240
  -1597808.56000  27566999.69300                  -1228524.78940  27567005.06040
   2433952.66000  25328249.89600                   1969879.56640  25328254.45540
  10642012.14000  24864942.24000                   8292483.48240  24864946.35340
 96  9  3  3 37 30.0140000  0  6  4 14 18 19 22 29
   5648566.43000  28728065.02100                   2054285.08040  28728069.68540
  14256899.43300  25175039.37300                  11142258.52640  25175044.65840
  -2571039.00900  25800787.61500                  -1909743.87540  25800792.64240
  -1614269.30800  27563867.35700                  -1241351.28640  27563873.15840
   2521489.44100  25344907.16200                   2038090.05240  25344912.00240
  10709591.66300  24877802.24000                   8345142.85540  24877806.37740
 96  9  3  3 38  0.0140000  0  6  4 14 18 19 22 29
   5726153.51600  28742829.52100                   2114742.55040  28742836.95540
  14383954.27000  25199216.78700                  11241262.29040  25199222.02540
  -2574184.16900  25800189.01400                  -1912194.63740  25800193.85340
  -1630579.47100  27560763.47500                  -1254060.46640  27560770.22540
   2609590.57900  25361672.73200                   2106740.29640  25361677.36140
  10777400.07500  24890705.85700                   8397980.58540  24890709.93540
 96  9  3  3 38 30.0140000  0  6  4 14 18 19 22 29
   5804153.24800  28757672.85000                   2175521.59540  28757679.63540
  14511460.91700  25223480.34200                  11340618.11440  25223485.83840
  -2577203.03700  25799614.64600                  -1914546.97640  25799619.83840
  -1646721.02200  27557691.42000                  -1266638.25540  27557697.30340
   2698264.13200  25378546.70100                   2175836.58540  25378551.55340
  10845465.94100  24903658.08400                   8451018.92340  24903662.08040
 96  9  3  3 39  0.0140000  0  6  4 14 18 19 22 29
   5882571.74300  28772595.06000                   2236626.82140  28772598.82240
  14639436.24400  25247833.56000                  11440339.13440  25247838.83440
  -2580089.71800  25799065.02100                  -1916796.31940  25799069.94340
  -1662691.15600  27554653.13900                  -1279082.45340  27554658.83440
   2787495.80000  25395526.88100                   2245367.75140  25395531.81440
  10913783.66500  24916658.52900                   8504253.51340  24916662.56040
 96  9  3  3 39 30.0140000  0  6  4 14 18 19 22 29
   5961384.69700  28787592.33400                   2298039.52540  28787597.18540
  14767872.68300  25272274.02900                  11540419.46940  25272279.29140
  -2582848.32600  25798539.94300                  -1918945.86240  25798545.18240
  -1678517.92600  27551640.75600                  -1291414.96840  27551645.93540
   2877264.73000  25412609.49000                   2315317.57440  25412614.16640
  10982316.04000  24929699.92000                   8557655.37040  24929703.91640
 96  9  3  3 40  0.0140000  0  6  4 14 18 19 22 29
   6040593.06200  28802664.80300                   2359760.27040  28802671.33040
  14896762.04100  25296801.02100                  11640852.72040  25296806.33040
  -2585500.08400  25798035.55300                  -1921012.14640  25798040.59240
  -1694207.32300  27548655.26400                  -1303640.40240  27548661.20540
   2967567.11700  25429793.13900                   2385683.08140  25429797.86140
  11051051.47500  24942779.81800                   8611215.45040  24942783.89640
 96  9  3  3 40 30.0140000  0  6  4 14 18 19 22 29
   6120220.18500  28817817.55300                   2421807.39040  28817825.56040
  15026088.65700  25321411.09200                  11741626.69540  25321416.49440
  -2588032.22200  25797553.17000                  -1922985.22240  25797558.22140
  -1709752.98200  27545697.34200                  -1315753.85440  27545704.11540
   3058388.72700  25447075.87300                   2456453.17340  25447080.81840
  11119984.94700  24955897.27900                   8664929.85140  24955901.36940
 96  9  3  3 41  0.0140000  0  6  4 14 18 19 22 29
   6200274.43500  28833051.41200                   2484187.30640  28833056.12340
  15155837.66200  25346101.45100                  11842729.80640  25346106.68940
  -2590429.06600  25797097.28700                  -1924852.87740  25797102.36140
  -1725151.08000  27542767.18500                  -1327752.31440  27542773.17440
   3149749.18100  25464461.13100                   2527643.14240  25464465.97140
  11189123.90300  24969054.11500                   8718804.36740  24969058.38140
 96  9  3  3 41 30.0140000  0  6  4 14 18 19 22 29
   6280770.01400  28848369.80300                   2546911.10540  28848376.83840
  15286001.55000  25370870.82600                  11944156.20840  25370876.14640
  -2592678.81800  25796669.60000                  -1926605.91540  25796674.56840
  -1740394.67300  27539866.35700                  -1339630.42240  27539872.40440
   3241671.70500  25481953.83400                   2599271.08940  25481958.56840
  11258501.46000  24982256.06000                   8772864.80540  24982260.20940
 96  9  3  3 42  0.0140000  0  6  4 14 18 19 22 29
   6361712.91300  28863771.98200                   2609983.55440  28863776.68240
  15416573.36800  25395718.04500                  12045900.47540  25395723.52940
  -2594797.76100  25796266.06800                  -1928257.02940  25796270.62740
  -1755482.49000  27536994.78700                  -1351387.08240  27537000.58840
   3334167.32500  25499555.02900                   2671345.60440  25499559.64640
  11328136.54000  24995507.30300                   8827125.90940  24995511.43940
 96  9  3  3 42 30.0140000  0  6  4 14 18 19 22 29
   6443072.59800  28879254.74800                   2673380.69040  28879260.91240
  15547540.58200  25420639.85700                  12147952.84840  25420645.54140
  -2596797.68700  25795885.77100                  -1929815.40040  25795890.47140
  -1770432.01800  27534150.70900                  -1363036.02940  27534156.63940
   3427219.11900  25517262.17000                   2743853.49940  25517266.95140
  11398017.19800  25008805.25600                   8881578.37240  25008809.26440
 96  9  3  3 43  0.0140000  0  6  4 14 18 19 22 29
   6524848.72100  28894815.66200                   2737102.27640  28894817.51440
  15678929.10400  25445642.38900                  12250333.49940  25445647.85040
  -2598676.48600  25795528.31800                  -1931279.38840  25795533.01740
  -1785236.59100  27531332.82600                  -1374572.03540  27531338.95540
   3520838.07400  25535077.13100                   2816803.34040  25535081.92440
  11468154.51200  25022151.91200                   8936230.82840  25022155.96740
 96  9  3  3 43 30.0140000  0  6  4 14 18 19 22 29
   6607024.00900  28910453.56800                   2801134.98340  28910455.52540
  15810742.25900  25470725.72500                  12353045.04240  25470731.06840
  -2600458.54200  25795189.10000                  -1932667.98440  25795193.71740
  -1799922.39000  27528538.07600                  -1386015.44140  27528543.61940
   3614998.64000  25552995.10000                   2890175.21840  25553000.06840
  11538517.89800  25035541.77900                   8991059.44640  25035545.77540
 96  9  3  3 44  0.0140000  0  6  4 14 18 19 22 29
   6689588.26200  28926164.99800                   2865470.68840  28926170.40040
  15942995.06300  25495892.34200                  12456099.16640  25495897.79140
  -2602137.17900  25794869.38100                  -1933976.00140  25794874.10340
  -1814482.63000  27525767.50600                  -1397361.04140  27525773.22540
   3709700.17800  25571016.34200                   2963968.62840  25571021.38140
  11609092.62700  25048971.29500                   9046052.74340  25048975.40840
 96  9  3  3 44 30.0140000  0  6  4 14 18 19 22 29
   6772530.45800  28941948.79500                   2930100.97540  28941953.28340
  16075672.41300  25521140.12300                  12559484.10140  25521145.50240
  -2603705.48300  25794570.77900                  -1935198.04140  25794575.52540
  -1828920.07800  27523019.85000                  -1408610.95140  27523025.59240
   3804926.11100  25589137.28700                   3038170.65640  25589142.25640
  11679868.48200  25062439.74000                   9101202.76540  25062443.80740
 96  9  3  3 45  0.0140000  0  6  4 14 18 19 22 29
   6855857.12200  28957805.24800                   2995030.86140  28957807.76740
  16208769.76000  25546467.77100                  12663196.30340  25546473.25640
  -2605141.52600  25794297.66200                  -1936317.01540  25794302.36140
  -1843225.59200  27520297.47500                  -1419758.05940  27520303.32240
   3900677.41800  25607358.29500                   3112782.07140  25607363.26440
  11750855.41600  25075948.02100                   9156517.26540  25075952.13540
 96  9  3  3 45 30.0140000  0  6  4 14 18 19 22 29
   6939558.80000  28973733.08400                   3060252.91840  28973740.57640
  16342274.33000  25571872.76400                  12767225.82640  25571878.23640
  -2606437.35500  25794051.25600                  -1937326.73640  25794056.00240
  -1857395.76100  27517601.06800                  -1430799.67640  27517607.38540
   3996946.85900  25625677.31800                   3187797.22840  25625681.79540
  11822059.16000  25089497.73200                   9212000.70840  25089501.68240
 96  9  3  3 46  0.0140000  0  6  4 14 18 19 22 29
   7023635.15600  28989732.88100                   3125766.92440  28989739.47840
  16476165.12600  25597351.39600                  12871556.30540  25597356.85740
  -2607582.47600  25793833.06800                  -1938219.02240  25793837.96740
  -1871414.38600  27514933.44300                  -1441723.25740  27514939.30340
   4093724.65000  25644093.78700                   3263208.49940  25644098.41640
  11893494.79600  25103091.46700                   9267664.84240  25103095.47540
 96  9  3  3 46 30.0140000  0  6  4 14 18 19 22 29
   7108121.62700  29005808.93500                   3191600.53040  29005815.41640
  16610455.42200  25622906.22500                  12976198.08340  25622911.68540
  -2608554.66900  25793648.13900                  -1938976.55940  25793652.89640
  -1885256.28900  27512299.54500                  -1452509.09940  27512305.26440
   4191043.43000  25662613.26400                   3339041.31640  25662617.90440
  11965211.60000  25116738.61500                   9323548.07140  25116742.76440
 96  9  3  3 47  0.0140000  0  6  4 14 18 19 22 29
   7193030.63600  29021967.96700                   3257763.41540  29021972.91240
  16745172.67600  25648541.95100                  13081172.54940  25648547.48240
  -2609345.60400  25793498.03700                  -1939592.85140  25793502.87740
  -1898908.16500  27509701.35000                  -1463146.87340  27509708.14640
   4288921.96300  25681238.76400                   3415310.31340  25681243.47540
  12037232.04900  25130443.78700                   9379667.90640  25130447.94740
 96  9  3  3 47 30.0140000  0  6  4 14 18 19 22 29
   7278356.59800  29038203.74800                   3324251.09740  29038207.88540
  16880296.63900  25674255.24800                  13186463.94140  25674260.81440
  -2609979.99100  25793376.61500                  -1940087.17040  25793381.31440
  -1912376.61700  27507138.68500                  -1473641.73240  27507144.06440
   4387348.74900  25699968.65400                   3492006.51940  25699973.58840
  12109554.01700  25144206.27100                   9436022.68740  25144210.37340
 96  9  3  3 48  0.0150000  0  6  4 14 18 19 22 29
   7364109.61700  29054522.76800                   3391071.67140  29054529.08540
  17015821.93100  25700044.69000                  13292068.05040  25700050.25740
  -2610465.72500  25793284.44800                  -1940465.63840  25793289.47540
  -1925658.87000  27504610.97200                  -1483991.48140  27504616.97240
   4486348.63300  25718807.55000                   3569149.29040  25718812.61240
  12182178.46700  25158026.01100                   9492613.16940  25158030.06540
 96  9  3  3 48 30.0150000  0  6  4 14 18 19 22 29
   7450262.23600  29070916.76100                   3458203.54140  29070922.67940
  17151718.49000  25725905.20600                  13397961.45340  25725910.66740
  -2610833.79200  25793214.52600                  -1940752.42740  25793219.21440
  -1938782.51700  27502113.58900                  -1494217.66840  27502119.42540
   4585894.97000  25737750.60400                   3646717.87840  25737755.28040
  12255064.24700  25171895.83100                   9549407.28140  25171899.73340
 96  9  3  3 49  0.0150000  0  6  4 14 18 19 22 29
   7536822.82100  29087388.58900                   3525653.41040  29087396.60840
  17287990.99600  25751836.72900                  13504147.81540  25751842.16740
  -2611063.60400  25793170.76800                  -1940931.49140  25793175.59740
  -1951739.89600  27499647.99500                  -1504314.27240  27499653.91340
   4685976.26800  25756795.72900                   3724703.30440  25756800.59340
  12328193.67300  25185811.76100                   9606391.25340  25185815.92140
 96  9  3  3 49 30.0150000  0  6  4 14 18 19 22 29
   7623801.40800  29103940.20600
  17424636.50900  25777839.51800                  13610624.82940  25777844.95640
  -2611138.68600  25793156.53400                  -1940989.98840  25793161.10440
  -1964524.51900  27497215.05000                  -1514276.27840  27497221.09740
   4786598.48900  25775943.15900                   3803110.23440  25775948.11640
  12401563.66800  25199773.51100                   9663562.67740  25199777.63640
 96  9  3  3 50  0.0150000  0  6  4 14 18 19 22 29
   7711200.47600  29120571.06500
  17561692.97000  25803920.55800                  13717422.05240  25803926.03040
  -2611035.74800  25793175.80000                  -1940909.76540  25793180.53440
  -1977140.16600  27494814.40100                  -1524106.64340  27494820.94040
   4887766.09600  25795194.90100                   3881942.14340  25795199.63640
  12475177.34600  25213781.98700                   9720923.98440  25213786.01840
 96  9  3  3 50 30.0150000  0  6  4 14 18 19 22 29
   7798997.75700  29137278.22900
  17699162.07800  25830079.83100                  13824540.83440  25830085.45640
  -2610746.03700  25793231.24500                  -1940684.01040  25793236.24940
  -1989613.59500  27492441.43300                  -1533826.15040  27492446.98740
   4989433.40100  25814541.55800                   3961163.42340  25814546.50340
  12549020.78800  25227833.88600                   9778464.32940  25227837.97540
 96  9  3  3 51  0.0150000  0  6  4 14 18 19 22 29
   7887191.01500  29154061.01100                     32104.49450  29154065.32340
  17837061.79800  25856321.87000                  13931995.15040  25856327.19040
  -2610247.04400  25793326.15100                  -1940295.17340  25793330.96840
  -2001932.70300  27490096.57300                  -1543425.40440  27490102.74940
   5091613.82500  25833985.66700                   4040784.54040  25833990.57740
  12623119.51600  25241934.37800                   9836203.59740  25241938.42140
 96  9  3  3 51 30.0150000  0  6  4 14 18 19 22 29
   7975775.41200  29170917.95600                    101131.35940  29170925.99940
  17975406.90100  25882647.76100                  14039796.52640  25882653.32740
  -2609545.71100  25793459.69800                  -1939748.67440  25793464.35040
  -2014087.34700  27487783.59700                  -1552896.51240  27487789.85440
   5194324.46400  25853530.89300                   4120818.80740  25853535.82740
  12697493.91300  25256087.50300                   9894157.67140  25256091.56940
 96  9  3  3 52  0.0150000  0  6  4 14 18 19 22 29
   8064738.67700  29187848.19000                    170453.44140  29187847.61640
  18114186.21400  25909056.65100                  14147936.23040  25909062.15940
  -2608662.03000  25793627.85400                  -1939060.08540  25793632.64740
  -2026073.21300  27485502.65900                  -1562236.12540  27485508.06140
   5297556.68600  25873175.17500                   4201259.50340  25873180.15540
  12772134.67300  25270290.94800                   9952319.29940  25270295.02640
 96  9  3  3 52 30.0150000  0  6  4 14 18 19 22 29
   8154095.89200  29204851.86200
  18253381.31000  25935544.62000                  14256399.93140  25935549.92940
  -2607597.58800  25793830.35400                  -1938230.64340  25793835.01840
  -2037864.86900  27483258.63600                  -1571424.38540  27483264.21440
   5401333.36300  25892923.62800                   4282124.44540  25892928.36240
  12847054.04300  25284547.59700                  10010698.02940  25284551.59340
 96  9  3  3 53  0.0150000  0  6  4 14 18 19 22 29
   8243852.17400  29221932.12800
  18392981.93600  25962109.67500                  14365179.62540  25962115.10040
  -2606371.05400  25794063.51100                  -1937274.89140  25794068.23340
  -2049452.01800  27481053.69000                  -1580453.30640  27481059.63240
   5505679.96300  25912779.83100                   4363433.49040  25912784.80040
  12922251.03000  25298857.30800                  10069293.08240  25298861.42140
 96  9  3  3 53 30.0150000  0  6  4 14 18 19 22 29
   8333999.81000  29239086.28400                     28134.16350  29239085.85040
  18532970.82100  25988748.82300                  14474261.86640  25988754.28440
  -2604989.80700  25794326.65100                  -1936198.59140  25794331.32740
  -2060842.17600  27478885.94800                  -1589328.71840  27478892.33540
   5610597.88800  25932745.30000                   4445187.71840  25932750.33940
  12997711.84800  25313216.91700                  10128093.71940  25313220.92540
 96  9  3  3 54  0.0150000  0  6  4 14 18 19 22 29
   8424549.98200  29256316.15100                     98692.65140  29256323.09340
  18673353.30500  26015462.73700                  14583650.80740  26015468.18640
  -2603428.96500  25794623.20600                  -1934982.34640  25794628.16340
  -2072036.68000  27476756.12000                  -1598051.67340  27476762.16740
   5716086.40100  25952818.62000                   4527386.56740  25952823.39040
  13073444.89100  25327628.26800                  10187106.48040  25327632.37040
 96  9  3  3 54 30.0150000  0  6  4 14 18 19 22 29
   8515491.11500  29273622.89300
  18814113.85200  26042248.47200                  14693334.32640  26042254.05040
  -2601691.68700  25794954.19000                  -1933628.61540  25794958.99540
  -2083069.13900  27474656.60400                  -1606648.36940  27474661.80840
   5822115.70500  25972995.83100                   4610006.80740  25973000.63640
  13149441.50800  25342090.22900                  10246324.61940  25342094.31940
 96  9  3  3 55  0.0150000  0  6  4 14 18 19 22 29
   8606826.40700  29291002.99500
  18955265.54200  26069108.83900                  14803322.64440  26069114.37040
  -2599752.45400  25795323.01800                  -1932117.51540  25795327.64740
  -2093927.59000  27472589.83900                  -1615109.47940  27472596.54240
   5928680.53600  25993274.47900                   4693044.33740  25993279.03840
  13225717.62800  25356605.11200                  10305760.55540  25356609.16740
 96  9  3  3 55 30.0150000  0  6  4 14 18 19 22 29
   8698577.73700  29308462.85400
  19096814.23600  26096044.52600                  14913620.31440  26096050.09340
  -2597582.93700  25795735.82300                  -1930426.97340  25795740.61640
  -2104597.63800  27470559.64300                  -1623423.75840  27470565.69040
   6035770.69800  26013652.51100                   4776491.21640  26013657.15140
  13302300.83000  25371178.20600                  10365435.77640  25371182.09740
 96  9  3  3 56  0.0150000  0  6  4 14 18 19 22 29
   8790771.97700  29326006.68300
  19238764.64400  26123056.82300                  15024231.00440  26123062.21440
  -2595182.48800  25796192.69800                  -1928556.48640  25796197.32740
  -2115072.85200  27468566.53400                  -1631586.22640  27468572.35840
   6143375.46100  26034129.34700                   4860339.08740  26034133.92940
  13379202.22900  25385812.03400                  10425358.94840  25385816.08940
 96  9  3  3 56 30.0150000  0  6  4 14 18 19 22 29
   8883398.39600  29343635.21400                     21684.84250  29343638.89340
  19381104.56600  26150143.43300                  15135145.22040  26150149.08140
  -2592566.96900  25796690.59700                  -1926518.40740  25796695.41340
  -2125348.98000  27466610.78400                  -1639593.56940  27466616.40940
   6251503.63100  26054705.33900                   4944594.80740  26054710.27240
  13456423.17300  25400506.82300                  10485531.11640  25400510.86640
 96  9  3  3 57  0.0150000  0  6  4 14 18 19 22 29
   8976456.38400  29361343.16700
  19523854.47000  26177307.57300                  15246378.90740  26177313.11640
  -2589718.54200  25797232.51800                  -1924298.84440  25797237.31140
  -2135399.93000  27464698.37000                  -1647425.46340  27464704.66340
   6360179.80000  26075386.19000                   5029277.53740  26075390.98340
  13533981.42000  25415265.41700                  10545966.10840  25415269.43640
 96  9  3  3 57 30.0150000  0  6  4 14 18 19 22 29
   9069940.01500  29379129.58900
  19667012.60300  26204549.73700                  15357930.68440  26204555.11640
  -2586658.23200  25797814.71400                  -1921914.17740  25797819.30840
  -2145250.83800  27462823.25300                  -1655101.45340  27462829.18340
   6469404.15400  26096170.27600                   5114387.43240  26096175.24540
  13611857.00700  25430084.91700                  10606648.38440  25430089.07740
 96  9  3  3 58  0.0150000  0  6  4 14 18 19 22 29
   9163836.94200  29396998.80800
  19810605.36000  26231874.83900                  15469821.13140  26231880.44040
  -2583375.91600  25798439.36200                  -1919356.50940  25798443.89740
  -2154892.03900  27460988.62800                  -1662614.04940  27460994.64040
   6579191.75200  26117062.51100                   5199936.20540  26117067.37440
  13690053.00800  25444965.37000                  10667580.33740  25444969.36640
 96  9  3  3 58 30.0150000  0  6  4 14 18 19 22 29
     15733.33310  29414937.69800
  19954623.55900  26259280.11200                  15582043.08640  26259285.38640
  -2579871.87200  25799106.08900                  -1916626.08040  25799110.60040
  -2164337.79900  27459191.16700                  -1669974.35840  27459197.62440
   6689527.26300  26138058.63600                   5285911.93040  26138063.31140
  13768554.75200  25459903.44000                  10728750.52140  25459907.37840
 96  9  3  3 59  0.0150000  0  6  4 14 18 19 22 29
    110381.56000  29432948.83900
  20099061.43600  26286766.08900                  15694592.06740  26286771.42140
  -2576127.95400  25799818.55000                  -1913708.72840  25799823.48340
  -2173591.11100  27457430.24500                  -1677184.68940  27457436.51540
   6800396.93400  26159156.22200                   5372303.88740  26159161.10840
  13847352.47800  25474898.34700                  10790151.34640  25474902.26140
 96  9  3  3 59 30.0150000  0  6  4 14 18 19 22 29
    205416.04400  29451031.62800
  20243896.86500  26314326.75300                  15807450.83240  26314332.19040
  -2572144.67700  25800576.71400                  -1910604.87240  25800581.40140
  -2182654.19200  27455706.30800                  -1684246.80240  27455712.08540
   6911791.64300  26180353.97900                   5459104.95140  26180358.52640
  13926436.57900  25489947.38600                  10851775.31740  25489951.42940
 96  9  3  4  0  0.0150000  0  6  4 14 18 19 22 29
     54099.35910  29469184.70600
  20389102.47900  26341959.01100                  15920598.05240  26341964.49540
  -2567921.38300  25801380.27600                  -1907313.98440  25801384.88240
  -2191521.37300  27454018.00300                  -1691156.23040  27454022.96040
   7023699.36700  26201649.45600                   5546305.77740  26201654.35440
  14005810.01600  25505051.83900                  10913624.74640  25505055.89340
 96  9  3  4  0 30.0150000  0  6  4 14 18 19 22 29
     35165.95810  29487414.55000
  20534664.92500  26369658.69800                  16034023.32540  26369663.98340
  -2563445.52300  25802231.87800                  -1903826.29640  25802236.49540
  -2200184.31600  27452369.72900                  -1697906.55240  27452375.42540
   7136141.12800  26223046.12800                   5633922.73340  26223050.90940
  14085486.80600  25520213.64300                  10975710.55940  25520217.85040
 96  9  3  4  1  0.0160000  0  6  4 14 18 19 22 29
    131363.26200  29505719.19500
  20680586.83400  26397426.62500                  16147728.69940  26397432.39140
  -2558723.26500  25803130.54700                  -1900146.61340  25803135.29340
  -2208633.55000  27450761.98400                  -1704490.34440  27450767.62140
   7249135.29600  26244548.46900                   5721970.13640  26244553.42640
  14165486.14300  25535436.97600                  11038047.69740  25535440.93740
 96  9  3  4  1 30.0160000  0  6  4 14 18 19 22 29
    227960.01500  29524099.87500
  20826878.04500  26425264.95300                  16261721.84040  26425270.53140
  -2553762.56100  25804074.62500                  -1896281.11740  25804079.51240
  -2216849.30400  27449198.71900                  -1710892.18840  27449204.74240
   7362693.62600  26266157.74200                   5810457.14440  26266162.57040
  14245826.25000  25550725.15600                  11100650.37740  25550729.25840
 96  9  3  4  2  0.0160000  0  6  4 14 18 19 22 29
    324964.45300  29542561.10100
  20973554.73600  26453176.64800                  16376015.35540  26453182.23840
  -2548564.24500  25805063.75000                  -1892230.47040  25805068.59040
  -2224830.34700  27447679.89100                  -1717111.13840  27447685.79740
   7476825.78000  26287875.96900                   5899391.29440  26287881.11340
  14326514.70800  25566079.72600                  11163524.50240  25566083.73440
 96  9  3  4  2 30.0160000  0  6  4 14 18 19 22 29
    422381.81100  29561097.21900
  21120621.84700  26481162.34400                  16490613.08940  26481167.71140
  -2543127.42500  25806098.34400                  -1887993.98340  25806102.91440
  -2232588.54700  27446203.74200                  -1723156.43940  27446209.42640
   7591514.61000  26309700.93700                   5988759.21440  26309705.67240
  14407527.34800  25581496.03100                  11226651.22640  25581500.05140
 96  9  3  4  3  0.0160000  0  6  4 14 18 19 22 29
    520175.92700  29579707.32800
  21268080.18300  26509222.94500                  16605515.67140  26509228.16040
  -2537456.79800  25807177.63300                  -1883575.30840  25807182.14440
  -2240120.79700  27444770.20300                  -1729025.70340  27444776.43740
   7706739.74800  26331627.71900                   6078545.03240  26331632.41840
  14488850.89500  25596971.18000                  11290020.22140  25596975.08240
 96  9  3  4  3 30.0160000  0  6  4 14 18 19 22 29
    618337.30100  29598387.07800
  21415921.74200  26537356.25800                  16720716.87640  26537362.00040
  -2531552.82300  25808300.88300                  -1878974.80140  25808305.73440
  -2247443.32600  27443376.98400                  -1734731.53940  27443382.85540
   7822476.74200  26353651.80500                   6168729.71440  26353656.35140
  14570457.46400  25612500.46900                  11353609.75740  25612504.51240
 96  9  3  4  4  0.0160000  0  6  4 14 18 19 22 29
    716865.74100  29617135.90600
  21564140.40200  26565561.47600                  16836211.92140  26565567.05540
  -2525406.17900  25809470.68000                  -1874185.20640  25809475.25040
  -2254565.36500  27442021.83600                  -1740281.14240  27442027.42640
   7938707.15700  26375769.14800                   6259298.86240  26375774.23440
  14652338.72400  25628081.94500                  11417413.33140  25628085.97640
 96  9  3  4  4 30.0160000  0  6  4 14 18 19 22 29
    815746.95100  29635953.15600
  21712724.54100  26593835.97600                  16951991.75840  26593841.67240
  -2519028.52100  25810683.93000                  -1869215.59040  25810688.82840
  -2261501.78500  27440701.33600                  -1745686.11140  27440707.03140
   8055410.16100  26397977.52300                   6350236.26840  26397982.09440
  14734507.14800  25643718.07000                  11481440.67240  25643722.14840
 96  9  3  4  5  0.0160000  0  6  4 14 18 19 22 29
     36419.61510  29654833.50800
  21861657.78000  26622176.75800                  17068043.61340  26622182.35940
  -2512436.46300  25811938.84400                  -1864078.91740  25811943.59040
  -2268256.95000  27439415.85100                  -1750949.84340  27439421.59440
   8172581.13200  26420274.32000                   6441538.32440  26420279.07840
  14816978.93100  25659411.94500                  11545704.39240  25659416.01240
 96  9  3  4  5 30.0160000  0  6  4 14 18 19 22 29
     76393.66510  29673788.78900
  22010973.62400  26650591.07800                  17184393.60540  26650596.78540
  -2505599.30900  25813239.63300                  -1858751.26140  25813244.34440
  -2274810.53700  27438169.18700                  -1756056.50240  27438175.09440
   8290251.36000  26442666.24200                   6533229.40840  26442670.93040
  14899783.58600  25675169.28900                  11610227.49340  25675173.36740
 96  9  3  4  6  0.0160000  0  7  3  4 14 18 19 22 29
         0.05610  29647373.32800
    176354.03800  29692807.89100
  22160655.77900  26679074.51600                  17301029.03340  26679079.91840
  -2498529.38100  25814585.25800                  -1853242.21940  25814589.67640
  -2281181.48200  27436956.48400                  -1761020.85340  27436962.54340
   8408415.46700  26465152.50800                   6625305.33040  26465157.55840
  14982920.85400  25690989.75800                  11675009.77640  25690993.89440
 96  9  3  4  6 30.0160000  0  7  3  4 14 18 19 22 29
    -10885.92000  29645302.28100                     -3666.38050  29645308.29340
     16740.24010  29711899.51600
  22310705.28800  26707627.81200                  17417950.71140  26707633.29740
  -2491225.59100  25815974.79700                  -1847550.94840  25815979.60140
  -2287366.67800  27435779.71900                  -1765840.45540  27435785.35540
   8527083.36900  26487733.60900                   6717773.83440  26487738.63740
  15066382.28900  25706871.75800                  11740044.66240  25706875.77740
 96  9  3  4  7  0.0160000  0  6  3 14 18 19 22 29
    -21649.36100  29643253.31200                    -12053.39940  29643261.12140
  22461139.77900  26736254.98400                  17535172.37640  26736260.50440
  -2483667.30200  25817413.19500                  -1841661.36540  25817417.81240
  -2293335.25900  27434643.57800                  -1770491.28040  27434649.42640
   8646278.30300  26510415.63300                   6810653.00040  26510420.43740
  15150164.07600  25722814.71100                  11805329.16340  25722818.71940
 96  9  3  4  7 30.0160000  0  6  3 14 18 19 22 29
    -32262.24900  29641234.61700                    -20323.21440  29641239.97340
  22611962.51600  26764955.28100                  17652696.56940  26764961.10540
  -2475848.72900  25818900.99200                  -1835568.96140  25818905.86740
  -2299084.93100  27433549.47600                  -1774971.51140  27433554.83240
   8766009.31400  26533200.08600                   6903949.89440  26533204.90240
  15234268.93400  25738819.54700                  11870865.41240  25738823.66040
 96  9  3  4  8  0.0160000  0  6  3 14 18 19 22 29
    -42748.03700  29639238.34400                    -28493.93640  29639242.43340
  22763132.44800  26793722.30500                  17770491.30940  26793728.00040
  -2467795.04600  25820433.57000                  -1829293.35240  25820438.21140
  -2304631.18900  27432494.77300                  -1779293.25740  27432500.15240
   8886246.62500  26556080.41400                   6997641.30540  26556084.93740
  15318685.90200  25754883.67200                  11936644.86240  25754887.63340
 96  9  3  4  8 30.0160000  0  6  3 14 18 19 22 29
    -53123.50500  29637263.68700                    -36578.65040  29637270.42640
  22914623.99100  26822549.76600                  17888536.65440  26822555.27340
  -2459510.48300  25822010.04700                  -1822837.83940  25822014.74640
  -2309967.14100  27431478.60900                  -1783451.11740  27431484.37540
   9006971.02800  26579053.53100                   7091712.26440  26579058.54740
  15403409.34900  25771005.96900                  12002663.13040  25771009.91840
 96  9  3  4  9  0.0160000  0  6  3 14 18 19 22 29
    -63375.72200  29635312.01600                    -44567.38840  29635315.48440
  23066432.79300  26851438.35900                  18006829.20340  26851443.96140
  -2450984.32400  25823632.53100                  -1816194.06740  25823637.25440
  -2315083.21300  27430505.42200                  -1787437.64640  27430511.24640
   9128189.16100  26602120.61700                   7186167.94540  26602125.32840
  15488468.62800  25787192.36700                  12068943.08740  25787196.45740
 96  9  3  4  9 30.0160000  0  6  3 14 18 19 22 29
    -73500.29900  29633385.83600                    -52456.57840  29633390.60540
  23218552.40600  26880385.35100                  18125363.96440  26880390.61340
  -2442201.84600  25825303.71900                  -1809350.57140  25825308.23040
  -2319989.65700  27429571.38300                  -1791260.81940  27429577.18340
   9249891.22600  26625279.89800                   7281000.73040  26625284.83240
  15573861.95100  25803442.15600                  12135483.33740  25803446.41040
 96  9  3  4 10  0.0160000  0  6  3 14 18 19 22 29
    -83489.06600  29631485.18000                    -60240.02740  29631490.17240
  23370984.23000  26909392.15600                  18244141.99940  26909397.99240
  -2433148.58500  25827026.52300                  -1802296.07440  25827031.19940
  -2324672.44900  27428680.85900                  -1794909.71940  27428686.67240
   9372070.89500  26648530.10900                   7376205.66840  26648535.11340
  15659592.38000  25819755.71100                  12202286.27540  25819759.94140
 96  9  3  4 10 30.0160000  0  6  3 14 18 19 22 29
    -93319.81700  29629614.97600                    -67900.37640  29629619.00840
  23523751.97200  26938463.48400                  18363181.78340  26938469.23840
  -2423822.60800  25828801.19500                  -1795029.07640  25828805.87140
  -2329135.29600  27427831.05500                  -1798387.22640  27427836.84440
   9494744.51200  26671873.44500                   7471795.48840  26671878.26240
  15745656.81900  25836133.67200                  12269349.47240  25836137.59840
 96  9  3  4 11  0.0160000  0  6  3 14 18 19 22 29
   -102974.55300  29627777.53100                    -75423.47840  29627782.44140
  23676867.62700  26967600.27300                  18482492.67040  26967605.53540
  -2414230.01100  25830626.53900                  -1787554.31240  25830631.29740
  -2333383.86500  27427022.48400                  -1801697.79240  27427028.10940
   9617921.70600  26695313.32800                   7567777.72640  26695318.37940
  15832048.66300  25852573.25800                  12336667.79040  25852577.33640
 96  9  3  4 11 30.0160000  0  6  3 14 18 19 22 29
   -112463.07300  29625971.50000                    -82817.13040  29625977.54740
  23830328.54100  26996802.54700                  18602072.60440  26996808.00840
  -2404371.73500  25832502.35900                  -1779872.53040  25832507.04740
  -2337427.72500  27426252.66400                  -1804848.81540  27426257.87940
   9741591.29100  26718846.99200                   7664143.62740  26718851.64440
  15918750.46100  25869071.89100                  12404227.63040  25869076.06240
 96  9  3  4 12  0.0160000  0  6  3 14 18 19 22 29
   -121799.72500  29624195.02300                    -90092.39040  29624198.80840
  23984149.94700  27026073.39800                  18721933.42340  27026079.16440
  -2394245.53900  25834429.58600                  -1771981.98140  25834434.32040
  -2341260.45800  27425523.51600                  -1807835.33140  27425529.12940
   9865770.02800  26742477.24200                   7760906.28440  26742482.11740
  16005793.89700  25885635.90600                  12472053.68640  25885640.04340
 96  9  3  4 12 30.0160000  0  6  3 14 18 19 22 29
   -131021.68200  29622441.43700                    -97278.33040  29622446.38340
  24138310.59400  27055409.70300                  18842058.58540  27055415.51640
  -2383868.96600  25836404.21900                  -1763896.33040  25836408.77740
  -2344904.58900  27424830.27300                  -1810674.87640  27424836.30840
   9990443.54800  26766202.25000                   7858054.47440  26766207.26640
  16093164.85300  25902262.08600                  12540134.95440  25902266.05840
 96  9  3  4 13  0.0160000  0  6  3 14 18 19 22 29
   -140141.77600  29620705.76600                   -104384.89340  29620712.11740
  24292793.58800  27084806.80500                  18962434.93840  27084812.19540
  -2373214.77000  25838431.50800                  -1755594.35040  25838436.30140
  -2348342.88200  27424175.73400                  -1813354.02840  27424181.34840
  10115595.72100  26790017.25800                   7955575.64940  26790022.21540
  16180875.05400  25918952.56200                  12608480.56140  25918956.81640
 96  9  3  4 13 30.0170000  0  6  3 14 18 19 22 29
   -149173.66600  29618985.69200                   -111422.67740  29618992.58740
  24447592.58300  27114264.34100                  19083057.52340  27114270.01340
  -2362269.74800  25840514.46600                  -1747065.75540  25840519.01340
  -2351583.80300  27423559.16100                  -1815879.38140  27423564.91540
  10241213.43000  26813921.66900                   8053459.58240  26813926.52040
  16268931.22500  25935709.34900                  12677095.76540  25935713.39140
 96  9  3  4 14  0.0170000  0  6  3 14 18 19 22 29
   -158089.78000  29617288.60600                   -118370.28640  29617292.60240
  24602693.80600  27143779.48900                  19203915.60940  27143784.80940
  -2351037.00100  25842651.80200                  -1738312.95740  25842656.39540
  -2354623.98400  27422980.23100                  -1818248.31740  27422986.24340
  10367291.67500  26837913.68400                   8151702.37140  26837918.37240
  16357323.37000  25952529.88000                  12745972.76040  25952533.91140
 96  9  3  4 14 30.0170000  0  6  3 14 18 19 22 29
   -166844.64100  29615624.31700                   -125192.24040  29615629.83740
  24758091.55100  27173350.34900                  19325004.75140  27173355.92740
  -2339503.03300  25844846.66100                  -1729325.44740  25844851.34940
  -2357451.88500  27422442.63000                  -1820451.84140  27422447.84540
  10493830.05100  26861993.02000                   8250303.70740  26861997.80240
  16446032.24500  25969410.45800                  12815096.55440  25969414.59540
 96  9  3  4 15  0.0170000  0  6  3 14 18 19 22 29
   -175406.15200  29613993.84100                   -131863.56940  29613998.31740
  24913794.85000  27202978.96600                  19446331.98640  27202984.76640
  -2327662.89500  25847099.88000                  -1720099.36240  25847104.50940
  -2360077.50100  27421942.95000                  -1822497.75040  27421948.07140
  10620819.54300  26886158.38800                   8349256.55240  26886163.20440
  16535050.53300  25986350.30900                  12884461.45640  25986354.48140
 96  9  3  4 15 30.0170000  0  6  3 14 18 19 22 29
   -183754.90700  29612405.14500                   -138369.03740  29612412.20440
  25069823.33600  27232670.66900                  19567912.60940  27232676.70440
  -2315539.80000  25849406.54400                  -1710652.78640  25849411.24340
  -2362509.97900  27421480.10600                  -1824393.15540  27421485.55640
  10748269.38100  26910411.90300                   8448568.11340  26910417.08340
  16624369.24100  26003346.74700                  12954060.45340  26003350.88440
 96  9  3  4 16  0.0170000  0  6  3 14 18 19 22 29
   -191900.71000  29610855.80200                   -144716.39540  29610860.31340
  25226171.70700  27262423.21600                  19689742.49440  27262429.01640
  -2303150.04900  25851764.42700                  -1700998.43440  25851769.30240
  -2364742.74900  27421054.84900                  -1826132.95340  27421060.72040
  10876165.72000  26934749.15300                   8548227.60240  26934754.28640
  16713979.62800  26020399.15300                  13023886.72540  26020403.31340
 96  9  3  4 16 30.0170000  0  6  3 14 18 19 22 29
   -199897.51800  29609333.48900                   -150947.62540  29609338.62240
  25382812.96600  27292230.52800                  19811800.61340  27292235.79040
  -2290519.72200  25854167.63000                  -1691156.60940  25854172.32940
  -2366796.34000  27420663.98100                  -1827733.11640  27420669.48940
  11004467.86200  26959164.77000                   8648203.29740  26959169.45840
  16803874.71400  26037505.84900                  13093934.84040  26037509.96240
 96  9  3  4 17  0.0170000  0  6  3 14 18 19 22 29
   -207748.76900  29607838.74700                   -157065.51140  29607844.54840
  25539774.68800  27322099.51300                  19934108.43240  27322104.82140
  -2277632.37000  25856620.34100                  -1681114.51140  25856624.91140
  -2368645.96400  27420312.13000                  -1829174.36440  27420317.46240
  11133204.29100  26983662.24700                   8748517.39940  26983667.06340
  16894086.58800  26054672.30200                  13164229.80440  26054676.42740
 96  9  3  4 17 30.0170000  0  6  3 14 18 19 22 29
   -215471.32700  29606369.88000                   -163083.04540  29606375.30640
  25697038.35600  27352025.78600                  20056651.53940  27352031.90340
  -2264480.50900  25859122.82500                  -1670866.29940  25859127.43140
  -2370273.02900  27420002.43400                  -1830442.17640  27420008.08340
  11262389.52900  27008244.94200                   8849181.21740  27008250.04040
  16984622.75900  26071900.93400                  13234777.46640  26071905.04840
 96  9  3  4 18  0.0170000  0  6  3 14 18 19 22 29
   -223065.55200  29604924.59100                   -169000.60140  29604929.66540
  25854570.99800  27382003.20800                  20179404.24440  27382008.71640
  -2251064.95000  25861675.88800                  -1660412.61240  25861680.36440
  -2371689.53200  27419732.71600                  -1831545.91740  27419738.75140
  11392011.05800  27032911.65300                   8950185.02640  27032916.64540
  17075471.81300  26089188.84100                  13305568.93640  26089192.95440
 96  9  3  4 18 30.0170000  0  6  3 14 18 19 22 29
   -230511.02400  29603508.13800                   -174802.25640  29603513.68140
  26012370.11500  27412031.30900                  20302364.58340  27412037.15740
  -2237386.29500  25864278.71600                  -1649753.91340  25864283.38040
  -2372912.60600  27419499.84900                  -1832498.93340  27419505.66140
  11522085.60600  27057663.76300                   9051541.81140  27057668.53240
  17166627.68500  26106535.10600                  13376599.48140  26106539.16140
 96  9  3  4 19  0.0170000  0  6  3 14 18 19 22 29
   -237772.09800  29602126.59900                   -180460.18240  29602132.02440
  26170449.46000  27442113.11400                  20425543.28540  27442119.12640
  -2223429.58300  25866934.64500                  -1638878.54540  25866939.41540
  -2373938.49800  27419305.09100                  -1833298.30940  27419310.59940
  11652637.66700  27082506.99700                   9153270.69340  27082511.42740
  17258103.06400  26123942.52800                  13447878.99040  26123946.46640
 96  9  3  4 19 30.0170000  0  6  3 14 18 19 22 29
   -244850.77700  29600777.70800                   -185976.04940  29600786.16140
  26328790.24100  27472245.10600                  20548925.68240  27472250.34540
  -2209217.30700  25869639.09900                  -1627804.03640  25869643.64540
  -2374799.84400  27419140.96600                  -1833969.46840  27419146.68440
  11783629.54400  27107434.18400                   9255342.28640  27107439.17740
  17349882.88100  26141408.02000                  13519395.72440  26141412.05240
 96  9  3  4 20  0.0170000  0  6  3 14 18 19 22 29
   -251727.78800  29599470.05200                   -191334.71440  29599473.67340
  26487415.24500  27502430.01300                  20672529.58540  27502435.76640
  -2194741.71600  25872393.61400                  -1616524.34440  25872398.25540
  -2375494.46300  27419008.66900                  -1834510.70840  27419014.18840
  11915060.65300  27132444.63000                   9357756.13940  27132449.55240
  17441988.01200  26158934.65300                  13591165.95440  26158938.70840
 96  9  3  4 20 30.0170000  0  6  3 14 18 19 22 29
   -258426.66000  29598195.02000                   -196554.59940  29598201.63040
  26646333.29200  27532671.29400                  20796361.81640  27532676.89540
  -2179993.45600  25875200.31700                  -1605032.18940  25875204.98140
  -2376013.09500  27418909.74700                  -1834914.81240  27418915.63040
  12046926.02000  27157537.66100                   9460508.37640  27157542.66540
  17534430.25400  26176525.70800                  13663198.85840  26176529.91540
 96  9  3  4 21  0.0170000  0  7  3 14 18 19 22 28 29
   -264953.21900  29596953.70000                   -201640.23340  29596957.83740
  26805536.69800  27562966.38000                  20920416.39940  27562971.91140
  -2164955.41200  25878061.95800                  -1593314.22740  25878066.45840
  -2376342.81900  27418847.09900                  -1835171.72140  27418853.02840
  12179210.63300  27182710.38800                   9563587.29640  27182715.54440
        -1.66310  29974518.21600
  17627211.58900  26194181.27000                  13735496.00140  26194185.23140
 96  9  3  4 21 30.0170000  0  7  3 14 18 19 22 28 29
   -271302.93300  29595744.91900                   -206588.03940  29595750.72040
  26965026.47900  27593316.27800                  21044694.14240  27593321.44640
  -2149616.58500  25880980.76300                  -1581361.88840  25880985.32140
  -2376464.58700  27418823.95000                  -1835266.57640  27418829.62240
  12311916.57000  27207963.42700                   9666994.52540  27207968.09140
     25408.70710  29983028.34100                     19798.23410  29983032.54400
  17720331.09800  26211901.59100                  13808056.65440  26211905.64540
 96  9  3  4 22  0.0170000  0  7  3 14 18 19 22 28 29
   -277500.19300  29594566.05900                   -211417.04140  29594571.95440
  27124763.80300  27623713.14500                  21169164.77040  27623718.53640
  -2133995.25900  25883953.59900                  -1569189.41640  25883958.05240
  -2376386.37500  27418838.77000                  -1835205.61740  27418844.55940
  12445025.90500  27233293.21600                   9770716.08440  27233298.31340
     70596.02900  29991627.27800                     55009.13600  29991632.30900
  17813766.06700  26229681.64500                  13880863.11440  26229685.74740
 96  9  3  4 22 30.0170000  0  7  3 14 18 19 22 28 29
   -283550.63200  29593414.80900                   -216131.64240  29593420.24740
  27284723.30100  27654152.59900                  21293808.53040  27654158.27040
  -2118109.65700  25886976.30900                  -1556811.02540  25886980.98540
  -2376113.95300  27418890.54400                  -1834993.31940  27418896.35640
  12578518.68000  27258696.41900                   9874736.42340  27258701.38840
    116216.43100  30000308.62200                     90557.57100  30000312.55200
  17907491.59700  26247517.41900                  13953895.98740  26247521.59140
 96  9  3  4 23  0.0170000  0  7  3 14 18 19 22 28 29
   -289403.53500  29592301.52800                   -220692.31340  29592305.95840
  27444923.98400  27684637.38000                  21418640.23340  27684643.20440
  -2101946.21300  25890052.01300                  -1544216.12240  25890056.53640
  -2375627.24500  27418983.06700                  -1834614.02640  27418989.18440
  12712405.63600  27284174.35600                   9979063.92640  27284179.17340
    162293.83700  30009076.62200                    126462.07500  30009080.54400
  18001523.64400  26265410.68400                  14027167.71040  26265414.71640
 96  9  3  4 23 30.0170000  0  7  3 14 18 19 22 28 29
   -295053.27500  29591226.03600                   -225094.63940  29591230.88840
  27605367.11700  27715169.15300                  21543660.82940  27715174.53240
  -2085512.23600  25893179.59900                  -1531410.41340  25893184.08740
  -2374929.75100  27419115.99700                  -1834070.50840  27419121.70440
  12846680.67200  27309726.01300                  10083693.82540  27309730.59540
    208830.78600  30017932.57500                    162724.64300  30017936.16900
  18095867.19900  26283363.90300                  14100682.16240  26283367.97040
 96  9  3  4 24  0.0170000  0  7  3 14 18 19 22 28 29
   -300504.29700  29590188.60600                   -229342.22040  29590194.73540
  27766035.56200  27745743.12200                  21668856.99940  27745749.13440
  -2068798.47400  25896359.97400                  -1518386.70040  25896364.64940
  -2374029.11500  27419287.25500                  -1833368.68940  27419292.68140
  12981330.24800  27335348.78600                  10188615.57640  27335353.62640
    255824.10000  30026874.70800                    199342.80000  30026879.67300
  18190514.83800  26301374.71600                  14174433.55440  26301378.79440
 96  9  3  4 24 30.0170000  0  7  3 14 18 19 22 28 29
   -305756.59600  29589188.27000                   -233434.94140  29589192.02040
  27926926.75900  27776359.45800                  21794226.74540  27776365.36440
  -2051797.77400  25899595.27000                  -1505139.39340  25899599.89940
  -2372933.69100  27419495.46600                  -1832515.07840  27419501.31340
  13116348.86100  27361041.95000                  10293824.88340  27361046.88440
    303269.25300  30035903.19200                    236313.13300  30035908.12200
  18285461.53500  26319442.15300                  14248417.98740  26319446.36040
 96  9  3  4 25  0.0170000  0  7  3 14 18 19 22 28 29
   -310791.40100  29588230.93400                   -237358.12140  29588235.66940
  28088058.94200  27807022.31700                  21919784.29340  27807027.97740
  -2034479.97200  25902890.52800                  -1491644.99540  25902895.02840
  -2371637.71800  27419742.59100                  -1831505.21340  27419747.99340
  13251759.63500  27386809.98100                  10399339.78040  27386814.65740
    351183.22300  30045021.01300                    273648.70700  30045025.84900
  18380732.88500  26337572.01300                  14322655.39740  26337576.00940
 96  9  3  4 25 30.0170000  0  7  3 14 18 19 22 28 29
   -315614.87700  29587312.94200                   -241116.66640  29587318.56740
  28249413.71500  27837726.62200                  22045515.27740  27837731.93140
  -2016844.39000  25906246.56700                  -1477902.97740  25906251.02040
  -2370151.41100  27420024.91900                  -1830347.02440  27420030.53240
  13387569.04100  27412653.38800                  10505165.28740  27412658.35640
    399561.77600  30054226.89500                    311346.26000  30054231.95800
  18476329.74900  26355763.48100                  14397146.45540  26355767.50140
 96  9  3  4 26  0.0170000  0  7  3 14 18 19 22 28 29
   -320219.84700  29586436.59900                   -244704.94840  29586443.45840
  28410997.65700  27868475.16100                  22171424.83140  27868480.96240
  -1998888.27800  25909663.57500                  -1463911.19340  25909668.13440
  -2368483.02700  27420342.63000                  -1829046.95440  27420348.20840
  13523783.98300  27438573.72400                  10611306.81040  27438578.96240
    448405.37600  30063521.85600                    349406.25400  30063526.50900
  18572250.38400  26374016.26300                  14471889.79940  26374020.25940
 96  9  3  4 26 30.0180000  0  7  3 14 18 19 22 28 29
   -324601.79600  29585602.09600                   -248119.44240  29585609.08440
  28572823.65500  27899269.72100                  22297523.01440  27899275.80340
  -1980628.11400  25913138.11100                  -1449682.49040  25913142.59940
  -2366653.36200  27420691.18200                  -1827621.21540  27420696.90040
  13660410.17600  27464573.51700                  10717768.77340  27464578.32240
    497712.72900  30072904.47100                    387827.62700  30072909.41200
  18668500.63300  26392332.09600                  14546889.98940  26392336.15040
 96  9  3  4 27  0.0180000  0  7  3 14 18 19 22 28 29
   -328756.39600  29584812.40000                   -251356.74740  29584818.28340
  28734893.61400  27930110.48600                  22423811.29140  27930116.17040
  -1962068.10100  25916670.26700                  -1435220.12940  25916674.79140
  -2364668.44800  27421068.70500                  -1826074.50840  27421074.15440
  13797433.24400  27490647.88500                  10824540.00540  27490652.79540
    547486.58900  30082376.17400                    426612.44400  30082380.86900
  18765079.98300  26410710.61100                  14622146.62040  26410714.58440
 96  9  3  4 27 30.0180000  0  7  3 14 18 19 22 28 29
   -332681.34400  29584065.11900                   -254415.12940  29584069.13940
  28897219.65900  27961000.16600                  22550299.09340  27961005.84940
  -1943206.05400  25920259.31400                  -1420522.42240  25920264.04940
  -2362513.42900  27421478.47100                  -1824395.24940  27421483.99040
  13934861.64700  27516799.65000                  10931627.07040  27516804.42040
    597738.31000  30091939.25200                    465769.63700  30091943.73600
  18861996.02900  26429153.33800                  14697665.61340  26429157.49840
 96  9  3  4 28  0.0180000  0  7  3 14 18 19 22 28 29
   -336390.06000  29583359.35300                   -257305.05040  29583367.30340
  29059811.17100  27991940.80700                  22676993.76440  27991946.46740
  -1924042.42500  25923906.21300                  -1405589.71840  25923910.70140
  -2360173.95100  27421923.70500                  -1822572.26240  27421929.17840
  14072695.39100  27543028.65800                  11039029.98940  27543033.49840
    648476.19500  30101593.79900                    505305.69600  30101598.67400
  18959253.04300  26447660.66600                  14773450.28840  26447664.79140
 96  9  3  4 28 30.0180000  0  7  3 14 18 19 22 28 29
   -339899.16400  29582692.66600                   -260039.37440  29582695.83040
  29222646.19100  28022926.62700                  22803878.19140  28022932.05340
  -1904592.80300  25927607.15800                  -1390434.16040  25927611.72840
  -2357644.84600  27422405.00200                  -1820601.50840  27422410.38140
  14210921.16400  27569332.54900                  11146738.38740  27569337.56440
    699695.71500  30111340.23600                    545217.05300  30111344.83800
  19056846.55100  26466231.92400                  14849497.16740  26466235.87340
 96  9  3  4 29  0.0180000  0  7  3 14 18 19 22 28 29
   -343224.88900  29582059.95500                   -262630.79640  29582066.52940
  29385702.63700  28053955.30700                  22930935.14640  28053961.44740
  -1884869.15100  25931360.49400                  -1375065.07340  25931365.05340
  -2354917.38300  27422923.89200                  -1818476.19340  27422929.44740
  14349518.08600  27595706.40000                  11254735.98140  27595711.14640
    751383.68400  30121176.54100                    585493.37800  30121180.89200
  19154759.98800  26484864.23600                  14925793.34740  26484868.29140
 96  9  3  4 29 30.0180000  0  7  3 14 18 19 22 28 29
   -346358.64500  29581463.09600                   -265072.68840  29581467.08040
  29548957.72400  28085022.16600                  23058146.89140  28085027.90840
  -1864855.86800  25935169.08800                  -1359470.29640  25935173.78740
  -2351976.56800  27423483.79100                  -1816184.62240  27423489.46340
  14488493.94800  27622152.62700                  11363028.85740  27622157.91240
    803543.90900  30131101.94700                    626137.71900  30131106.43900
  19252979.69000  26503555.12700                  15002328.17340  26503559.28740
 96  9  3  4 30  0.0180000  0  7  3 14 18 19 22 28 29
   -349284.65300  29580905.76000                   -267352.67540  29580910.58840
  29712412.75700  28116126.43900                  23185514.44140  28116131.99440
  -1844536.09600  25939035.66600                  -1343636.69840  25939040.37740
  -2348812.66400  27424085.72100                  -1813719.23340  27424090.84240
  14627850.06300  27648670.54100                  11471618.04840  27648675.39240
    856184.52000  30141118.34600                    667156.43500  30141124.36500
  19351508.78500  26522304.29900                  15079104.08540  26522308.34240
 96  9  3  4 30 30.0180000  0  7  3 14 18 19 22 28 29
   -351971.26500  29580393.30700                   -269446.14840  29580398.24040
  29876068.12100  28147268.94700                  23313038.10040  28147275.13540
  -1823897.19700  25942963.05700                  -1327554.43340  25942967.56840
  -2345427.97400  27424729.76700                  -1811081.77640  27424735.65040
  14767577.49200  27675259.94700                  11580496.57140  27675265.42040
    909304.38800  30151228.40800                    708548.54300  30151231.23600
  19450351.52800  26541113.41600                  15156124.39540  26541117.63540
 96  9  3  4 31  0.0180000  0  7  3 14 18 19 22 28 29
   -354401.64300  29579932.08800                   -271339.87040  29579938.54540
  30039929.58900  28178450.69700                  23440722.35340  28178456.18240
  -1802917.81800  25946955.16600                  -1311206.85940  25946959.72440
  -2341817.40100  27425416.74400                  -1808268.32340  27425422.18240
  14907680.02800  27701920.97800                  11689667.37740  27701925.26740
    962907.46300  30161428.40800                    750317.16400  30161432.64600
  19549511.41800  26559983.37700                  15233391.83840  26559987.40840
 96  9  3  4 31 30.0180000  0  7  3 14 18 19 22 28 29
   -356573.31600  29579518.30700                   -273032.07340  29579523.55740
  30204001.37800  28209673.22100                  23568570.48040  28209678.54140
  -1781603.57800  25951011.27500                  -1294598.35540  25951015.76440
  -2337989.23200  27426145.08800                  -1805285.30940  27426150.52540
  15048163.48500  27728653.88500                  11799135.00340  27728658.77140
   1016997.21700  30171720.57200                    792465.09800  30171725.49800
  19649002.69800  26578915.86100                  15310917.50640  26578919.89240
 96  9  3  4 32  0.0180000  0  7  3 14 18 19 22 28 29
   -358499.37800  29579151.94700                   -274532.83540  29579157.33840
  30368282.04500  28240933.55700                  23696581.37940  28240939.19340
  -1759981.36400  25955125.81400                  -1277749.87340  25955130.39640
  -2333970.42100  27426909.79900                  -1802153.73940  27426915.52940
  15189001.88700  27755455.01000                  11908879.20440  27755459.76740
   1071556.69600  30182102.73600                    834978.96500  30182107.61100
  19748836.51600  26597913.36900                  15388710.07440  26597917.55340
 96  9  3  4 32 30.0180000  0  7  3 14 18 19 22 28 29
   -360157.12400  29578837.13500                   -275824.59640  29578841.29540
  30532782.95700  28272238.04900                  23824763.87240  28272243.11140
  -1738028.94900  25959303.09600                  -1260644.08740  25959307.76040
  -2329756.85100  27427711.91600                  -1798870.41140  27427717.54140
  15330205.05100  27782324.88500                  12018907.65140  27782329.95940
   1126601.77200  30192577.28300                    877871.25600  30192582.49800
  19849029.72900  26616979.51000                  15466782.70340  26616983.67040
 96  9  3  4 33  0.0180000  0  7  3 14 18 19 22 28 29
   -361552.19300  29578570.81400                   -276911.67740  29578577.82640
  30697500.18300  28303582.83800                  23953114.95740  28303589.01440
  -1715736.77500  25963545.12700                  -1243273.55640  25963549.60340
  -2325346.60000  27428550.81400                  -1795433.82640  27428556.29940
  15471779.42600  27809265.65000                  12129225.35140  27809270.79540
   1182137.99200  30203147.30700                    921146.24100  30203150.89600
  19949570.83400  26636112.09600                  15545126.41440  26636116.17440
 96  9  3  4 33 30.0180000  0  7  3 14 18 19 22 28 29
   -362675.76700  29578356.65000                   -277787.13840  29578361.52540
  30862424.72200  28334965.86100                  24081627.59340  28334971.61540
  -1693109.37700  25967850.96300                  -1225641.81240  25967855.55740
  -2320754.04400  27429425.01700                  -1791855.18540  27429430.84240
  15613705.99800  27836272.76700                  12239817.47440  27836278.09940
   1238162.96000  30213807.09600                    964802.09900  30213811.97800
  20050449.09800  26655308.21300                  15623732.84840  26655312.43240
 96  9  3  4 34  0.0180000  0  7  3 14 18 19 22 28 29
   -363509.81100  29578198.11900                   -278437.03340  29578203.25240
  31027547.83700  28366388.03300                  24210294.93740  28366393.47140
  -1670127.88200  25972224.46300                  -1207734.14840  25972228.92840
  -2315981.96400  27430333.24400                  -1788136.64840  27430338.97440
  15755971.32500  27863345.08000                  12350673.58140  27863350.18940
   1294679.55600  30224562.25200                   1008841.00200  30224566.36500
  20151646.69900  26674565.77500                  15702588.12640  26674569.80740
 96  9  3  4 34 30.0180000  0  7  3 14 18 19 22 28 29
   -364039.79100  29578097.42400                   -278849.97140  29578102.55740
  31192875.29100  28397848.69700                  24339121.51740  28397854.59240
  -1646783.19200  25976666.83000                  -1189543.47540  25976671.34240
  -2311012.27200  27431278.90800                  -1784264.14140  27431284.47440
  15898602.15000  27890487.80700                  12461814.48040  27890492.23640
   1351700.25400  30235413.10300                   1053272.72400  30235417.61900
  20253161.82300  26693883.36100                  15781690.81340  26693887.56840
 96  9  3  4 35  0.0180000  0  8  3 14 18 19 22 28 29 31
   -364286.99100  29578050.68200                   -279042.60040  29578055.41640
  31358390.35800  28429345.66600                  24468094.28240  28429351.80740
  -1623117.06700  25981170.39200                  -1171102.32840  25981175.01040
  -2305866.93000  27432257.60300                  -1780254.75340  27432263.14640
  16041580.56700  27917695.18200                  12573226.22240  27917700.11540
   1409203.53800  30246355.32200                   1098080.49500  30246360.23600
  20354986.69700  26713259.69700                  15861034.87340  26713263.84640
         0.03710  30013340.76000
 96  9  3  4 35 30.0180000  0  8  3 14 18 19 22 28 29 31
   -364241.10700  29578059.79100                   -279006.81040  29578063.22440
  31524098.65000  28460879.53300                  24597217.61740  28460884.57240
  -1599137.63200  25985733.39200                  -1152417.04640  25985737.91640
  -2300539.21400  27433271.59600                  -1776103.25540  27433276.96340
  16184916.97800  27944971.33000                  12684916.93840  27944976.42840
   1467202.42400  30257392.41600                   1143274.38800  30257395.92800
  20457150.71300  26732701.05700                  15940643.19140  26732705.01740
    -30570.94200  30007522.28300
 96  9  3  4 36  0.0180000  0  8  3 14 18 19 22 28 29 31
   -363916.80300  29578120.16600                   -278754.10240  29578123.71740
  31690005.93400  28492450.37700                  24726495.99640  28492456.44740
  -1574846.14300  25990355.72800                  -1133488.61540  25990360.33440
  -2295016.36000  27434322.70500                  -1771799.71340  27434328.22440
  16328630.34700  27972318.79100                  12796901.39540  27972323.94740
   1525701.17600  30268523.40800                   1188857.87600  30268528.34200
  20559670.00600  26752209.97800                  16020528.34940  26752214.06840
    -61194.32200  30001694.33800                    -15116.26550  30001699.75240
 96  9  3  4 36 30.0180000  0  8  3 14 18 19 22 28 29 31
   -363317.89700  29578235.65000                   -278287.36440  29578240.24440
  31856118.43500  28524059.89200                  24855934.32540  28524066.04540
  -1550234.65300  25995039.35300                  -1114310.82440  25995043.90040
  -2289287.63900  27435412.58000                  -1767335.75940  27435417.53740
  16472719.61600  27999737.75200                  12909178.75140  27999742.55740
   1584706.55400  30279752.82200                   1234836.10400  30279756.69300
  20662559.17600  26771788.96300                  16100701.72640  26771792.97140
    -91852.73700  29995860.61100                    -39005.96940  29995865.83840
 96  9  3  4 37  0.0180000  0  9  3 14 18 19 22 27 28 29 31
   -362442.38900  29578401.42400                   -277605.13540  29578403.82640
  32022428.29100  28555708.04900                  24985526.41140  28555713.54540
  -1525285.39700  25999787.02500                  -1094869.83740  25999791.49040
  -2283342.44800  27436543.90000                  -1762703.11340  27436549.65440
  16617159.38500  28027223.42400                  13021729.21740  28027227.84240
         0.41810  30409491.01000
   1644224.52100  30291078.08800                   1281213.77200  30291081.92800
  20765814.69400  26791437.86900                  16181160.57240  26791441.99440
   -122532.15000  29990023.54900                    -62912.01340  29990028.37740
 96  9  3  4 37 30.0180000  0  9  3 14 18 19 22 27 28 29 31
   -361293.03800  29578619.57200                   -276709.52840  29578624.42440
  32188924.21200  28587390.79100                  25115263.47440  28587397.27140
  -1499983.86500  26004601.63500                  -1075154.35740  26004606.24040
  -2277174.42500  27437717.76700                  -1757896.84340  27437723.21740
  16761937.72700  28054774.59600                  13134543.51340  28054779.02540
    -20471.31600  30405595.96300
   1704250.49800  30302501.37700                   1327987.25600  30302504.95900
  20869420.57700  26811153.37700                  16261892.42940  26811157.51440
   -153238.74200  29984179.31400                    -86839.21540  29984183.24040
 96  9  3  4 38  0.0180000  0  9  3 14 18 19 22 27 28 29 31
   -359854.45700  29578893.41600                   -275588.56340  29578899.54540
  32355622.14000  28619112.59600                  25245157.93640  28619117.68240
  -1474303.14400  26009488.56400                  -1055143.39840  26009493.12340
  -2270762.87000  27438937.65800                  -1752900.80240  27438943.07240
  16907051.25900  28082388.25200                  13247618.99440  28082392.89240
    -40876.22600  30401712.62700
   1764792.66800  30314021.73600                   1375163.03200  30314025.92400
  20973377.02000  26830935.64200                  16342897.44840  26830939.61540
   -183962.36200  29978333.92400                   -110779.71440  29978338.67040
 96  9  3  4 38 30.0180000  0  9  3 14 18 19 22 27 28 29 31
   -358132.56900  29579221.67400                   -274246.80640  29579226.80740
  32522500.60700  28650868.41600                  25375193.11240  28650874.53340
  -1448255.23100  26014445.35300                  -1034846.32040  26014449.84240
  -2264121.40200  27440201.43900                  -1747725.60340  27440206.92440
  17052471.56000  28110060.59600                  13360933.51540  28110065.75240
    -61212.36500  30397842.82200
   1825836.53100  30325637.12700                   1422729.66600  30325642.02900
  21077662.89900  26850780.72800                  16424159.16440  26850784.76040
   -214704.05600  29972483.43200                   -134734.23140  29972489.67840
 96  9  3  4 39  0.0180000  0  9  3 14 18 19 22 27 28 29 31
   -356104.27600  29579607.66600                   -272666.31240  29579612.91640
  32689581.37900  28682662.64200                  25505385.91540  28682669.17040
  -1421827.85000  26019474.33000                  -1014253.55140  26019479.02940
  -2257225.61400  27441514.08000                  -1742352.23740  27441519.63540
  17198239.76400  28137800.33000                  13474519.12340  28137805.02940
    -81439.55300  30393994.00200                    -11024.31950  30393998.06840
   1887404.29800  30337354.46300                   1470704.57700  30337358.06800
  21182305.70100  26870693.42400                  16505699.00640  26870697.33840
   -245441.39500  29966632.86100                   -158685.44040  29966639.30740
 96  9  3  4 39 30.0180000  0  9  3 14 18 19 22 27 28 29 31
   -353778.04200  29580048.47800                   -270853.63340  29580054.15040
  32856865.33600  28714495.63500                  25635737.03040  28714500.83840
  -1395032.83100  26024573.27500                   -993374.31040  26024577.64640
  -2250095.87100  27442870.30700                  -1736796.56740  27442875.94340
  17344366.82900  28165606.84600                  13588384.39240  28165611.70940
   -101556.89600  30390165.74400                    -26700.04340  30390172.56440
   1949491.94100  30349169.25200                   1519084.57400  30349173.09200
  21287304.24100  26890674.04100                  16587516.04440  26890678.27140
   -276182.22200  29960783.68900                   -182639.27740  29960786.34940
 96  9  3  4 40  0.0190000  0  9  3 14 18 19 22 27 28 29 31
   -351154.96900  29580548.94400                   -268809.66440  29580554.93240
  33024358.84300  28746369.41300                  25766251.44140  28746375.58940
  -1367866.65000  26029742.52200                   -972205.85740  26029747.15140
  -2242734.33500  27444271.14000                  -1731060.28240  27444276.48340
  17490862.98500  28193484.20200                  13702537.22840  28193488.72540
   -121558.06900  30386359.39000                    -42285.34940  30386364.83940
   2012108.68300  30361084.11600                   1567876.86700  30361088.62000
  21392659.72100  26910722.64000                  16669611.21740  26910726.64740
   -306903.50600  29954938.77200                   -206578.00840  29954941.55040
 96  9  3  4 40 30.0190000  0  9  3 14 18 19 22 27 28 29 31
   -348248.64900  29581102.55400                   -266544.94640  29581107.39340
  33192021.44500  28778274.41300                  25896897.61140  28778280.23740
  -1340342.60300  26034980.28000                   -950758.54440  26034984.86240
  -2235179.81400  27445709.05400                  -1725173.61640  27445714.55040
  17637719.29900  28221429.76500                  13816970.72340  28221434.86240
   -141462.42900  30382570.71800                    -57795.15540  30382576.51840
   2075235.11500  30373095.71800                   1617066.31800  30373101.62000
  21498346.24500  26930834.16300                  16751964.34540  26930838.34740
   -337617.59300  29949094.30400                   -230510.97740  29949099.78840
 96  9  3  4 41  0.0190000  0  9  3 14 18 19 22 27 28 29 31
   -345046.25600  29581712.01500                   -264049.59140  29581716.38640
  33359860.06900  28810212.28000                  26027680.92740  28810216.99140
  -1312450.58500  26040287.93600                   -929024.50240  26040292.57740
  -2227430.55600  27447183.21000                  -1719135.20440  27447188.55440
  17784945.82000  28249446.46800                  13931692.68440  28249451.60040
   -161287.11400  30378799.55400                    -73242.93140  30378806.26840
   2138877.73400  30385207.88200                   1666657.97300  30385212.46000
  21604376.44100  26951010.84300                  16834585.26840  26951015.05040
   -368326.88800  29943249.78000                   -254440.36340  29943256.34340
 96  9  3  4 41 30.0190000  0  9  3 14 18 19 22 27 28 29 31
   -341519.45200  29582382.77200                   -261301.41840  29582387.82340
  33527872.12100  28842184.56100                  26158599.39840  28842188.96840
  -1284170.85400  26045669.38200                   -906988.34540  26045674.04640
  -2219477.66400  27448696.88200                  -1712938.11740  27448702.30740
  17932534.97100  28277531.95200                  14046697.23240  28277536.83940
   -181043.33500  30375039.03000                    -88637.31740  30375046.27640
   2203043.23300  30397418.05400                   1716657.06900  30397422.17500
  21710749.20600  26971253.02200                  16917473.13240  26971257.20640
   -399019.15300  29937408.39000                   -278356.37240  29937414.37840
 96  9  3  4 42  0.0190000  0  9  3 14 18 19 22 27 28 29 31
   -337639.72500  29583121.39000                   -258278.18640  29583127.00340
  33696052.70200  28874188.45200                  26289649.17140  28874193.31540
  -1255494.06800  26051126.61600                   -884642.79540  26051131.10440
  -2211303.82100  27450252.45200                  -1706568.86940  27450258.01840
  18080484.28500  28305685.39000                  14161982.40540  28305689.74940
   -200733.79800  30371292.10800                   -103980.46240  30371298.10840
   2267735.83900  30409727.93600                   1767066.87800  30409733.53000
  21817481.20000  26991563.56900                  17000640.91140  26991567.74140
   -429677.26300  29931575.80400                   -302245.77340  29931581.35840
 96  9  3  4 42 30.0190000  0  9  3 14 18 19 22 27 28 29 31
   -333387.86300  29583930.46800                   -254965.08740  29583933.89040
  33864401.89000  28906224.03800                  26420830.37440  28906229.89740
  -1226420.24800  26056659.05400                   -861987.86040  26056663.55440
  -2202901.56800  27451851.20200                  -1700021.63740  27451856.58140
  18228784.32700  28333906.33500                  14277540.88640  28333911.26840
   -220370.04500  30367555.93600                   -119281.37240  30367562.30040
   2332954.70500  30422139.13200                   1817886.79400  30422143.19800
  21924585.99300  27011944.97500                  17084099.19040  27011949.11240
   -460304.46300  29925747.96800                   -326111.12340  29925754.78840
 96  9  3  4 43  0.0190000  0  9  3 14 18 19 22 27 28 29 31
   -328759.03300  29584810.32700                   -251358.17540  29584816.64340
  34032928.73600  28938293.72500                  26552149.97640  28938298.77640
  -1196949.93500  26062267.00700                   -839023.97340  26062271.51840
  -2194249.80900  27453497.64000                  -1693279.98440  27453502.72540
  18377416.83900  28362190.07700                  14393358.43140  28362194.72940
   -239955.02800  30363828.77200                   -134542.38940  30363835.38240
   2398703.75400  30434651.12400                   1869119.83800  30434655.79200
  22032075.17400  27032399.45200                  17167856.98440  27032403.78840
   -490880.93600  29919927.75700                   -349936.95640  29919931.74140
 96  9  3  4 43 30.0190000  0  9  3 14 18 19 22 27 28 29 31
   -323752.23400  29585763.49100                   -247456.74140  29585770.10040
  34201636.38900  28970396.99900                  26683610.46540  28970403.39740
  -1167093.33300  26067948.64000                   -815759.07840  26067953.17540
  -2185356.24300  27455190.01500                  -1686349.92140  27455195.20640
  18526373.35100  28390535.19400                  14509428.44440  28390539.46040
   -259480.56200  30360112.49100                   -149757.02940  30360117.80040
   2464981.87100  30447263.74900                   1920765.11000  30447267.68600
  22139943.77500  27052925.98300                  17251910.43740  27052930.14340
   -521403.18900  29914120.56100                   -373720.51140  29914122.99940
 96  9  3  4 44  0.0190000  0  9  3 14 18 19 22 27 28 29 31
   -318399.96700  29586782.78000                   -243286.09940  29586787.42140
  34370518.80700  29002534.79600                  26815207.13340  29002540.52640
  -1136865.69000  26073700.55400                   -792205.06640  26073704.94840
  -2176238.13400  27456925.30400                  -1679244.87640  27456930.61240
  18675626.20500  28418936.85000                  14625729.36740  28418941.31540
   -278952.38500  30356407.72500                   -164929.82140  30356414.47540
   2531776.68800  30459973.38200                   1972813.04700  30459978.63200
  22248184.09500  27073523.33500                  17336253.53340  27073527.46040
   -551881.27400  29908320.41300                   -397469.65640  29908325.00740
 96  9  3  4 44 30.0190000  0  9  3 14 18 19 22 27 28 29 31
   -312713.98400  29587864.39000                   -238855.45940  29587868.16340
  34539581.50100  29034706.50700                  26946944.27940  29034712.82340
  -1106260.08400  26079524.78000                   -768356.54340  26079529.43240
  -2166904.03600  27458700.93600                  -1671971.52040  27458706.35040
  18825167.62200  28447394.04600                  14742255.14540  28447399.35440
   -298358.64600  30352714.74100                   -180051.54540  30352720.50740
   2599088.86800  30472783.28000                   2025264.08900  30472787.24100
  22356784.62500  27094189.41300                  17420877.31840  27094193.42140
   -582323.47900  29902527.40500                   -421190.90240  29902531.34340
 96  9  3  4 45  0.0190000  0  9  3 14 18 19 22 27 28 29 31
   -306692.42600  29589010.32700                   -234163.30940  29589015.76540
  34708826.25100  29066912.51500                  27078823.30240  29066917.99940
  -1075266.74400  26085422.55400                   -744205.88240  26085427.17140
  -2157354.05900  27460518.56900                  -1664529.94940  27460523.96040
  18975001.10300  28475906.19400                  14859008.50140  28475911.64340
   -317667.77900  30349039.81900                   -195097.56840  30349045.99540
   2666927.33600  30485692.37400                   2078125.25300  30485696.49900
  22465747.69400  27114924.49900                  17505783.60040  27114928.55440
   -612729.95100  29896741.08500                   -444884.19140  29896747.83540
 96  9  3  4 45 30.0190000  0  9  3 14 18 19 22 27 28 29 31
   -300309.83700  29590224.49100                   -229189.84940  29590230.37440
  34878261.07200  29099154.56900                  27210850.41940  29099159.99540
  -1043863.28700  26091398.47500                   -719735.65440  26091402.99940
  -2147572.74000  27462379.54600                  -1656908.11840  27462385.19440
  19125145.34700  28504477.96000                  14976004.02940  28504482.05040
   -336846.13400  30345390.53800                   -210041.71940  30345396.22240
   2735309.20100  30498703.38200                   2131409.78400  30498709.65500
  22575081.01400  27135730.00700                  17590978.38940  27135734.07340
   -643098.83900  29890961.52200                   -468548.21740  29890967.13640
 96  9  3  4 46  0.0190000  0  9  3 14 18 19 22 27 28 29 31
   -293583.26800  29591505.20200                   -223948.33140  29591511.78840
  35047859.00400  29131428.14000                  27343004.64540  29131433.47240
  -1012052.41600  26097451.67100                   -694947.95840  26097456.20640
  -2137578.37700  27464281.75700                  -1649120.27640  27464287.01840
  19275591.46100  28533106.74100                  15093234.77440  28533111.33540
   -355900.06000  30341764.63200                   -224888.88640  30341770.53840
   2804221.76400  30511819.02200                   2185107.92300  30511821.90500
  22684770.53000  27156603.35800                  17676450.72840  27156607.24940
   -673440.17900  29885188.17100                   -492190.88740  29885193.17540
 96  9  3  4 46 30.0190000  0  9  3 14 18 19 22 27 28 29 31
   -286504.38900  29592851.48300                   -218432.25840  29592857.67140
  35217594.70500  29163728.19400                  27475266.20840  29163733.43240
   -979846.41500  26103580.22500                   -669852.36040  26103584.63240
  -2127381.70000  27466222.31100                  -1641174.80240  27466227.35040
  19426346.55900  28561794.88200                  15210706.28140  28561799.66340
   -374837.00300  30338161.22500                   -239644.88840  30338168.06940
   2873658.58800  30525031.64700                   2239214.51500  30525035.93600
  22794805.65700  27177541.97500                  17762192.37740  27177546.13640
   -703762.12800  29879418.79600                   -515818.37140  29879423.68240
 96  9  3  4 47  0.0190000  0  9  3 14 18 19 22 27 28 29 31
   -279070.75000  29594266.75700                   -212639.85040  29594271.98340
  35387450.85700  29196051.63200                  27607621.62840  29196058.28840
   -947258.67500  26109781.62400                   -644459.31340  26109786.24140
  -2116979.15400  27468201.32700                  -1633068.89840  27468206.43640
  19577416.00300  28590542.21000                  15328422.71940  28590547.30740
   -393660.66400  30334578.87400                   -254312.62840  30334584.99140
   2943616.04000  30538344.06100                   2293726.79200  30538348.01100
  22905191.34900  27198547.78000                  17848207.19340  27198551.88240
   -734056.16700  29873653.41300                   -539424.07640  29873658.90940
 96  9  3  4 47 30.0190000  0  9  3 14 18 19 22 27 28 29 31
   -271274.74400  29595749.87400                   -206565.01240  29595754.11640
  35557430.05900  29228396.83500                  27740072.96440  29228402.55440
   -914283.30000  26116056.67900                   -618764.20840  26116061.15540
  -2106365.87200  27470221.03800                  -1624798.78440  27470226.60440
  19728812.76400  28619352.28800                  15446394.22440  28619356.91740
   -412379.24400  30331016.82700                   -268898.46440  30331023.43640
   3014100.29500  30551757.71800                   2348649.59000  30551761.04200
  23015928.51400  27219620.50700                  17934495.88140  27219624.73740
   -764294.60700  29867899.52200                   -562986.49840  29867907.30740
 96  9  3  4 48  0.0190000  0  9  3 14 18 19 22 27 28 29 31
   -263122.68300  29597301.42100                   -200212.72040  29597305.75740
  35727524.53700  29260764.36600                  27872614.10740  29260770.17940
   -880924.01700  26122404.89000                   -592769.96240  26122409.29640
  -2095547.16400  27472279.69400                  -1616368.60640  27472285.23740
  19880540.72900  28648224.26500                  15564623.79440  28648229.31540
   -431011.95800  30327471.60800                   -283417.43540  30327478.30040
   3085108.06800  30565268.85800                   2403980.34100  30565273.23700
  23127017.42800  27240759.85000                  18021058.66340  27240763.89340
   -794465.80300  29862157.81100                   -586496.52840  29862162.78040
 96  9  3  4 48 30.0190000  0  9  3 14 18 19 22 27 28 29 31
   -254614.40600  29598920.31100                   -193582.88340  29598925.24540
  35897730.13600  29293153.67100                  28005241.82340  29293159.63640
   -847187.10100  26128824.72500                   -566481.45040  26128829.27240
  -2084518.31800  27474378.51500                  -1607774.67140  27474384.04640
  20032587.37600  28677157.90500                  15683101.70440  28677163.22540
   -449573.27000  30323938.80400                   -297880.75640  30323944.89740
   3156630.82300  30578879.71000                   2459712.37200  30578883.65500
  23238443.37200  27261963.49100                  18107884.07040  27261967.72240
   -824573.67900  29856428.56100                   -609957.18140  29856433.42540
 96  9  3  4 49  0.0190000  0  9  3 14 18 19 22 27 28 29 31
   -245737.35200  29600609.46800                   -186665.67240  29600615.98340
  36068066.75200  29325566.89700                  28137971.65140  29325573.08540
   -813055.06700  26135319.78800                   -539885.05640  26135324.26540
  -2073261.11900  27476521.04600                  -1599002.81540  27476526.01540
  20184947.24900  28706151.92100                  15801823.68240  28706156.96040
   -468062.85900  30320420.43600                   -312288.19940  30320426.87040
   3228677.39000  30592589.70200                   2515852.56100  30592593.90900
  23350210.52300  27283232.36600                  18194975.34640  27283236.29240
   -854596.10300  29850715.45200                   -633351.26640  29850719.76540
 96  9  3  4 49 30.0190000  0  9  3 14 18 19 22 27 28 29 31
   -236485.61700  29602368.90500                   -179456.50140  29602375.46840
  36238547.38200  29358009.02200                  28270813.67940  29358014.65940
   -778513.40100  26141892.98300                   -512969.46640  26141897.60040
  -2061772.15700  27478707.38200                  -1590050.35440  27478712.63240
  20337613.31700  28735202.71000                  15920784.27040  28735207.97240
   -486485.19600  30316914.45200                   -326643.22240  30316919.93640
   3301255.17400  30606400.63200                   2572406.67600  30606404.83100
  23462318.75200  27304565.76500                  18282332.40440  27304569.97240
   -884535.55400  29845018.27200                   -656680.71340  29845023.18240
 96  9  3  4 50  0.0190000  0  9  3 14 18 19 22 27 28 29 31
   -226878.49900  29604198.29600                   -171970.40740  29604204.27240
  36409144.92600  29390472.72500                  28403746.82840  29390478.45640
   -743587.67400  26148539.04600                   -485754.61140  26148543.54640
  -2050064.99100  27480934.57700                  -1580927.86540  27480940.23740
  20490549.50900  28764305.53000                  16039955.30040  28764311.14340
   -504868.60600  30313416.54600                   -340967.90040  30313422.87440
   3374341.05000  30620308.46800                   2629356.72600  30620313.04600
  23574746.55900  27325960.05400                  18369938.47640  27325964.14340
   -914431.44900  29839329.02200                   -679976.17440  29839335.30440
 96  9  3  4 50 30.0190000  0  9  3 14 18 19 22 27 28 29 31
   -216905.14700  29606095.42100                   -164198.94240  29606099.97940
  36579875.03500  29422961.89700                  28536783.27640  29422967.85040
   -708271.32700  26155259.42900                   -458235.37740  26155263.95240
  -2038129.30500  27483205.89000                  -1571627.30840  27483211.59740
  20643750.03400  28793458.65500                  16159332.34240  28793463.15540
   -523196.91000  30309928.56100                   -355249.62840  30309934.29240
   3447944.52200  30634314.53000                   2686710.09900  30634319.15500
  23687501.41700  27347416.47500                  18457799.40140  27347420.84740
   -944279.62900  29833649.56100                   -703234.45940  29833656.37040
 96  9  3  4 51  0.0190000  0  9  3 14 18 19 22 27 28 29 31
   -206575.76300  29608061.56100                   -156150.04440  29608066.19040
  36750735.16800  29455475.42100                  28669921.02940  29455481.87840
   -672567.39500  26162053.66300                   -430414.12840  26162058.09340
  -2025971.59700  27485519.64700                  -1562153.74540  27485524.82740
  20797210.47000  28822660.46800                  16278911.91240  28822666.01140
   -541470.78100  30306451.47500                   -369488.98640  30306457.46440
   3522063.45800  30648419.34300                   2744465.10000  30648423.21400
  23800597.93900  27368938.04600                  18545926.54740  27368942.35840
   -974089.68600  29827976.92100                   -726463.10640  29827982.20640
 96  9  3  4 51 30.0190000  0  9  3 14 18 19 22 27 28 29 31
   -195904.04900  29610091.53000                   -147834.42840  29610096.85040
  36921708.27400  29488009.67900                  28803146.82940  29488013.65140
   -636480.17000  26168920.84300                   -402294.20540  26168925.31940
  -2013611.70400  27487871.65500                  -1552522.64640  27487876.94040
  20950931.84900  28851913.83500                  16398694.79240  28851918.65140
   -559689.36500  30302985.33500                   -383685.26040  30302991.94440
   3596689.72200  30662619.83500                   2802615.42600  30662624.81900
  23914040.53500  27390525.98300                  18634323.36340  27390530.24940
  -1003879.87200  29822307.82700                   -749676.21540  29822313.75740
 96  9  3  4 52  0.0190000  0  8  3 14 18 19 22 27 29 31
   -184875.86000  29612191.41300                   -139241.00540  29612195.69040
  37092796.67100  29520567.66300                  28936462.45440  29520572.22240
   -599988.73500  26175864.92100                   -373859.31940  26175869.42140
  -2001037.58000  27490264.42100                  -1542724.60940  27490269.61240
  21104933.08800  28881219.61600                  16518695.76240  28881224.71440
   -577833.23300  30299532.14700                   -397823.30540  30299538.26540
  24027854.91100  27412183.70200                  18723009.87240  27412187.93240
  -1033621.63600  29816647.97500                   -772851.62240  29816654.47940
 96  9  3  4 52 30.0190000  0  8  3 14 18 19 22 27 29 31
   -173502.32200  29614355.79600                   -130378.46940  29614360.58940
  37263996.94300  29553145.85000                  29069865.24140  29553151.35840
   -563096.25800  26182885.27200                   -345111.93040  26182889.84340
  -1988279.62300  27492691.99100                  -1532783.32140  27492697.35840
  21259216.50100  28910578.12400                  16638916.59740  28910583.28040
   -595894.57400  30296094.88200                   -411897.02640  30296101.06940
  24142046.81500  27433914.08500                  18811990.57240  27433918.35040
  -1063308.02400  29810998.29600                   -795983.83640  29811004.97540
 96  9  3  4 53  0.0200000  0  8  3 14 18 19 22 27 29 31
   -161769.60800  29616586.66800                   -121236.07540  29616591.66040
  37435307.55000  29585744.63700                  29203354.02540  29585749.62940
   -525789.28600  26189984.47300                   -316041.55840  26189988.98440
  -1975325.08000  27495157.21500                  -1522688.86040  27495162.65240
  21413792.64000  28939992.66000                  16759365.56440  28939996.65640
   -613857.87500  30292676.48000                   -425894.36340  30292681.73040
  24256635.15000  27455719.00400                  18901280.18440  27455723.31640
  -1092917.89100  29805363.59000                   -819056.49140  29805368.84040
 96  9  3  4 53 30.0200000  0  8  3 14 18 19 22 27 29 31
   -149662.76500  29618891.11300                   -111802.17940  29618895.48440
  37606698.73600  29618359.19100                  29336905.55940  29618364.86340
   -488085.57700  26197159.32400                   -286662.04140  26197163.90640
  -1962189.41500  27497656.69100                  -1512453.26640  27497662.03540
  21568637.90000  28969459.28500                  16880024.18340  28969463.69140
   -631721.82400  30289277.09800                   -439814.29240  30289282.65240
  24371583.83800  27477593.22300                  18990850.57340  27477597.34840
  -1122440.97100  29799746.84800                   -842061.46840  29799751.87540
 96  9  3  4 54  0.0200000  0  8  3 14 18 19 22 27 29 31
   -137174.74000  29621267.05800                   -102071.18940  29621272.27340
  37778176.65600  29650990.77700                  29470524.72140  29650997.03540
   -449994.19500  26204407.83200                   -256980.44040  26204412.28540
  -1948868.76400  27500191.75400                  -1502073.51640  27500196.86340
  21723741.95800  28998974.09000                  17000884.48840  28998978.25040
   -649491.79800  30285896.03500                   -453660.99440  30285901.20340
  24486878.90500  27499532.91000                  19080690.88040  27499537.26940
  -1151865.95000  29794146.41800                   -864989.97940  29794152.93340
 96  9  3  4 54 30.0200000  0  8  3 14 18 19 22 27 29 31
   -124287.47900  29623720.55800                    -92029.19640  29623725.36340
  37949753.90200  29683641.01200                  29604221.27640  29683646.97640
   -411513.32100  26211730.24600                   -226995.33640  26211734.80540
  -1935347.64800  27502764.44900                  -1491537.56740  27502769.68740
  21879095.93000  29028537.83200                  17121939.54640  29028542.14440
   -667173.06900  30282530.36300                   -467438.56440  30282535.53140
  24602502.71500  27521535.59800                  19170787.34640  27521539.79340
  -1181186.20500  29788568.05800                   -887836.96040  29788573.22640
 96  9  3  4 55  0.0200000  0  8  3 14 18 19 22 27 29 31
   -110989.79000  29626251.10500                    -81667.32540  29626255.45340
  38121416.31300  29716307.05100                  29737984.21940  29716312.61740
   -372643.32300  26219127.37100                   -196707.02040  26219132.01240
  -1921609.81000  27505378.87900                  -1480832.74140  27505383.91840
  22034672.78500  29058142.69100                  17243168.25840  29058147.89440
   -684786.33500  30279179.52700                   -481163.15040  30279185.46940
  24718436.79400  27543597.15200                  19261125.57540  27543601.41840
  -1210403.38400  29783008.20700                   -910603.53440  29783015.69940
 96  9  3  4 55 30.0200000  0  8  3 14 18 19 22 27 29 31
    -97286.59900  29628859.01900                    -70989.45540  29628864.25840
  38293170.84900  29748990.13700                  29871818.90840  29748995.79740
   -333373.42400  26226600.01200                   -166107.09640  26226604.66440
      7918.43510  27508031.19900
  22190473.71100  29087791.42600                  17364571.58440  29087795.72640
   -702353.24300  30275836.87900                   -494851.61640  30275842.66840
  24834681.42500  27565717.59800                  19351705.80540  27565721.89840
  -1239518.00800  29777466.67600                   -933290.24340  29777472.53540
 96  9  3  4 56  0.0200000  0  8  3 14 18 19 22 27 29 31
    -83190.53200  29631540.29300                    -60005.68740  29631544.96940
  38465019.51200  29781692.98000                  30005726.93540  29781697.45740
   -293679.75800  26234153.60500                   -135176.96140  26234158.03540
     22073.15100  27510724.54300
  22346493.74600  29117480.29300                  17486145.64540  29117483.05840
   -719886.54700  30272499.98000                   -508513.88340  30272506.14440
  24951262.11400  27587902.24600                  19442547.89640  27587906.58240
  -1268526.87400  29771946.59800                   -955894.53240  29771952.91440
 96  9  3  4 56 30.0200000  0  7  3 14 18 22 27 29 31
    -68704.47000  29634296.95700                    -48717.64240  29634301.82040
  38636959.38900  29814411.03500                  30139706.06040  29814417.03540
   -253557.44600  26241788.64400                   -103912.81740  26241793.10940
  22502738.45400  29147212.07400                  17607894.76540  29147216.38740
   -737372.47700  30269172.68300                   -522139.23740  30269178.47340
  25068197.30300  27610154.32400                  19533666.21240  27610158.60140
  -1297425.64100  29766447.33200                   -978413.05840  29766452.00840
 96  9  3  4 57  0.0200000  0  8  3 14 18 19 22 27 29 31
    -53820.45700  29637129.93300                    -37119.69540  29637134.32840
  38808993.32700  29847148.38700                  30273758.44640  29847155.68040
   -212993.15400  26249507.74600                    -72304.27640  26249512.16440
      8296.40910  27516238.84000
  22659236.64500  29176993.50400                  17729841.41840  29176998.62540
   -754774.88400  30265860.59000                   -535699.49940  30265865.88740
  25185516.52800  27632479.84800                  19625083.77940  27632484.13740
  -1326193.55800  29760973.60500                  -1000829.60640  29760979.84040
 96  9  3  4 57 30.0200000  0  8  3 14 18 19 22 27 29 31
    -38565.88600  29640032.37100                    -25233.01340  29640036.54340
  38981096.23800  29879898.97300                  30407864.62540  29879903.70740
   -172009.74200  26257306.48800                    -40369.14740  26257311.03540
     23097.97300  27519055.56600
  22815981.01700  29206820.14400                  17851979.86840  29206825.41840
   -772108.19600  30262562.22300                   -549205.95540  30262568.16440
  25303196.22300  27654873.16000                  19716782.23140  27654877.12140
  -1354846.53500  29755520.59000                  -1023156.60140  29755524.94940
 96  9  3  4 58  0.0200000  0  8  3 14 18 19 22 27 29 31
    -22927.69900  29643008.17600                    -13047.39040  29643013.34440
  39153259.42100  29912660.68300                  30542017.72340  29912665.85140
   -130628.72700  26265181.23000                     -8124.19240  26265185.76540
     38122.77100  27521914.60500                     10544.99850  27521919.72640
  22972962.52600  29236692.32400                  17974303.14740  29236696.90640
   -789361.97900  30259278.84000                   -562650.40340  30259285.00440
  25421219.82800  27677332.51200                  19808748.66840  27677336.74240
  -1383390.34000  29750088.67600                  -1045398.53040  29750092.71940
 96  9  3  4 58 30.0200000  0  8  3 14 18 19 22 27 29 31
     -6876.82600  29646062.16000                      -540.19640  29646067.23440
  39325496.01800  29945436.16800                  30676228.02940  29945440.31640
    -88848.25500  26273131.80100                     24432.02540  26273136.30140
     53363.03500  27524814.45700                     22420.54840  27524820.19940
  23130184.22900  29266611.42600                  18096813.55340  29266616.10140
   -806520.47400  30256013.70700                   -576020.60140  30256019.98840
  25539577.17700  27699855.02700                  19900975.16540  27699859.09440
  -1411815.23700  29744680.55100                  -1067547.71940  29744684.91040
 96  9  3  4 59  0.0200000  0  8  3 14 18 19 22 27 29 31
      9608.50700  29649200.19900                     12305.54540  29649203.76240
  39497802.42600  29978224.42600                  30810492.76040  29978229.92240
    -46656.71300  26281160.33200                     57308.55640  26281164.90240
     68812.09300  27527754.56600                     34458.79640  27527760.09840
  23287637.97200  29296573.78500                  18219504.80340  29296578.96540
   -823601.04200  30252763.51200                   -589330.10840  30252769.12540
  25658259.66700  27722439.65200                  19993455.01140  27722443.70740
  -1440129.86800  29739291.55800                  -1089611.11140  29739296.32840
 96  9  3  4 59 30.0200000  0  8  3 14 18 19 22 27 29 31
     26535.04300  29652420.45700                     25495.08340  29652426.03540
  39670181.71700  30011027.32400                  30944814.28140  30011032.91440
     -4047.20700  26289268.54300                     90510.77840  26289273.11340
     84478.39400  27530736.01900                     46666.32440  27530741.15240
  23445307.07600  29326576.96500                  18342363.84940  29326581.85140
   -840618.77600  30249524.91800                   -602590.63540  30249530.62540
  25777267.07800  27745085.83200                  20086188.05440  27745090.00440
  -1468345.29500  29733923.21500                  -1111597.13640  29733928.79340
 96  9  3  5  0  0.0200000  0  8  3 14 18 19 22 27 29 31
     43891.61400  29655723.30800                     39019.69840  29655728.40640
  39842626.54000  30043842.71500                  31079186.92640  30043846.74640
     38979.06000  26297456.23800                    124037.74540  26297460.86740
    100338.61100  27533753.87900                     59024.94940  27533759.16440
  23603175.86900  29356618.11300                  18465378.49240  29356623.93740
   -857574.17000  30246298.55800                   -615802.60340  30246304.46540
  25896597.78000  27767793.93300                  20179173.00440  27767798.01240
  -1496484.26900  29728568.25400                  -1133523.59540  29728573.84440
 96  9  3  5  0 30.0200000  0  8  3 14 18 19 22 27 29 31
     61666.17800  29659106.11300                     52870.02640  29659109.79340
  40015135.77500  30076669.83200                  31213609.66240  30076676.12540
     82446.66100  26305727.95700                    157908.61040  26305732.55140
    116379.41700  27536806.29300                     71524.29440  27536811.48440
  23761263.04000  29386701.10500                  18588563.34240  29386706.01540
   -874455.04700  30243086.35500                   -628956.48340  30243092.62540
  26016265.34400  27790565.74600                  20272420.44740  27790569.97640
  -1524530.96100  29723231.63700                  -1155378.13640  29723236.48840
 96  9  3  5  1  0.0200000  0  8  3 14 18 19 22 27 29 31
     79824.50800  29662560.83200                     67019.40640  29662566.19940
  40187691.00200  30109506.41800                  31348068.20940  30109512.32440
    126349.11400  26314082.23000                    192118.31840  26314086.81240
    132605.83500  27539894.02700                     84168.27140  27539899.13740
  23919575.13900  29416826.98800                  18711923.39340  29416832.64840
   -891266.99300  30239887.06600                   -642056.67240  30239892.29340
  26136267.29900  27813401.44100                  20365928.44640  27813405.70740
  -1552490.30100  29717910.50400                  -1177164.63240  29717913.79740
 96  9  3  5  1 30.0200000  0  8  3 14 18 19 22 27 29 31
     98329.86100  29666084.13700                     81439.18640  29666088.34440
  40360273.61500  30142347.53500                  31482548.25940  30142352.41040
    170668.10300  26322515.93300                    226652.59540  26322520.43340
    149009.78600  27543015.80800                     96950.58240  27543021.04740
  24078108.41400  29446994.52700                  18835455.82140  29447000.99640
   -908013.13700  30236700.02700                   -655105.57940  30236706.09840
  26256594.59500  27836298.97300                  20459689.96640  27836303.20340
  -1580355.51200  29712607.84000                  -1198877.72940  29712612.53940
